[[{"header":{"parameterUnit":"m.s-1","parameterCategory":1,"la1":30.6,"la2":29.2853,"lo1":-89.7004,"lo2":-87.6739,"dy":0.0162,"dx":0.0183,"nx":112,"ny":82,"refTime":"2024-09-13T18:00:00:Z","depth":0,"parameterNumber":2,"parameterNumberName":"U-component_of_WINDS"},"data":[0.0,0.0,0.0,0.0,0.0,0.0,0.0,0.0,0.0,0.0,0.0,0.0,0.0,0.0,0.0,0.0,0.0,0.0,0.0,0.0,0.0,0.0,0.0,0.0,0.0,0.0,0.0,0.0,0.0,0.0,0.0,0.0,0.0,0.0,0.0,0.0,0.0,0.0,0.0,0.0,0.0,0.0,0.0,0.0,0.0,0.0,0.0,0.0,0.0,0.0,0.0,0.0,0.0,0.0,0.0,0.0,0.0,0.0,0.0,0.0,0.0,0.0,0.0,0.0,0.0,0.0,0.0,0.0,0.0,0.0,0.0,0.0,0.0,0.0,0.0,0.0,0.0,0.0,0.0,0.0,0.0,0.0,0.0,0.0,0.0,0.0,0.0,0.0,0.0,0.0,1.7063,1.8542,2.0791,2.2017,2.156,2.1368,2.0011,1.6979,0.0,0.0,0.0,0.0,0.0,0.0,0.0,0.0,0.0,0.0,0.0,0.0,0.0,0.0,0.0,0.0,0.0,0.0,0.0,0.0,0.0,0.0,0.0,0.0,0.0,0.0,0.0,0.0,0.0,0.0,0.0,0.0,0.0,0.0,0.0,0.0,0.0,0.0,0.0,0.0,0.0,0.0,0.0,0.0,0.0,0.0,0.0,0.0,0.0,0.0,0.0,0.0,0.0,0.0,0.0,0.0,0.0,0.0,0.0,0.0,0.0,0.0,0.0,0.0,0.0,0.0,0.0,0.0,0.0,0.0,0.0,0.0,0.0,0.0,0.0,0.0,0.0,0.0,0.0,0.0,0.0,0.0,0.0,0.0,0.0,0.0,0.0,0.0,0.0,0.0,0.0,0.0,0.0,0.0,0.0,0.0,0.0,0.0,0.0,0.0,0.0,0.0,0.0,0.0,1.7183,2.0562,2.168,2.2161,2.2089,2.1247,1.9745,1.7378,0.0,0.0,0.0,0.0,0.0,0.0,0.0,0.0,0.0,0.0,0.0,0.0,0.0,0.0,0.0,0.0,0.0,0.0,0.0,0.0,0.0,0.0,0.0,0.0,0.0,0.0,0.0,0.0,0.0,0.0,0.0,0.0,0.0,0.0,0.0,0.0,0.0,0.0,0.0,0.0,0.0,0.0,0.0,0.0,0.0,0.0,0.0,0.0,0.0,0.0,0.0,0.0,0.0,0.0,0.0,0.0,0.0,0.0,0.0,0.0,0.0,0.0,0.0,0.0,0.0,0.0,0.0,0.0,0.0,0.0,0.0,0.0,0.0,0.0,0.0,0.0,0.0,0.0,0.0,0.0,0.0,0.0,0.0,0.0,0.0,0.0,0.0,0.0,0.0,0.0,0.0,0.0,0.0,0.0,0.0,0.0,0.0,0.0,0.0,0.0,0.0,0.0,0.0,1.6846,1.8326,2.1488,2.2053,2.2197,2.2197,2.1223,1.9616,1.7222,1.4944,0.0,0.0,0.0,0.0,0.0,0.0,0.0,0.0,0.0,0.0,0.0,0.0,0.0,0.0,0.0,0.0,0.0,0.0,0.0,0.0,0.0,0.0,0.0,0.0,0.0,0.0,0.0,0.0,0.0,0.0,0.0,0.0,0.0,0.0,0.0,0.0,0.0,0.0,0.0,0.0,0.0,0.0,0.0,0.0,0.0,0.0,0.0,0.0,0.0,0.0,0.0,0.0,0.0,0.0,0.0,0.0,0.0,0.0,0.0,0.0,0.0,0.0,0.0,0.0,0.0,0.0,0.0,0.0,0.0,0.0,0.0,0.0,0.0,0.0,0.0,0.0,0.0,0.0,0.0,0.0,0.0,0.0,0.0,0.0,0.0,0.0,0.0,0.0,0.0,0.0,0.0,0.0,0.0,0.0,0.0,0.0,0.0,0.0,0.0,0.0,0.0,0.0,1.871,1.9648,2.1945,2.2197,2.2197,2.2197,2.0983,1.925,1.7006,1.4339,0.0,0.0,0.0,0.0,0.0,0.0,0.0,0.0,0.0,0.0,0.0,0.0,0.0,0.0,0.0,0.0,0.0,0.0,0.0,0.0,0.0,0.0,0.0,0.0,0.0,0.0,0.0,0.0,0.0,0.0,0.0,0.0,0.0,0.0,0.0,0.0,0.0,0.0,0.0,0.0,0.0,0.0,0.0,0.0,0.0,0.0,0.0,0.0,0.0,0.0,0.0,0.0,0.0,0.0,0.0,0.0,0.0,0.0,0.0,0.0,0.0,0.0,0.0,0.0,0.0,0.0,0.0,0.0,0.0,0.0,0.0,0.0,0.0,0.0,0.0,0.0,0.0,0.0,0.0,0.0,0.0,0.0,0.0,0.0,0.0,0.0,0.0,0.0,0.0,0.0,0.0,0.0,0.0,0.0,0.0,0.0,0.0,0.0,0.0,0.0,0.0,0.0,1.9239,2.0899,2.2065,2.2197,2.2197,2.2197,2.0298,1.846,1.6844,1.3703,0.0,0.0,0.0,0.0,0.0,0.0,0.0,0.0,0.0,0.0,0.0,0.0,0.0,0.0,0.0,0.0,0.0,0.0,0.0,0.0,0.0,0.0,0.0,0.0,0.0,0.0,0.0,0.0,0.0,0.0,0.0,0.0,0.0,0.0,0.0,0.0,0.0,0.0,0.0,0.0,0.0,0.0,0.0,0.0,0.0,0.0,0.0,0.0,0.0,0.0,0.0,0.0,0.0,0.0,0.0,0.0,0.0,0.0,0.0,0.0,0.0,0.0,0.0,0.0,0.0,0.0,0.0,0.0,0.0,0.0,0.0,0.0,0.0,0.0,0.0,0.0,0.0,0.0,0.0,0.0,0.0,0.0,0.0,0.0,0.0,0.0,0.0,0.0,0.0,0.0,0.0,0.0,0.0,0.0,0.0,0.0,0.0,0.0,0.0,0.0,0.0,0.0,1.8698,2.0273,0.0,2.2197,2.2197,2.2197,2.0851,1.8955,1.6506,0.0,0.0,0.0,0.0,0.0,0.0,0.0,0.0,0.0,0.0,0.0,0.0,0.0,0.0,0.0,0.0,0.0,0.0,0.0,0.0,0.0,0.0,0.0,0.0,0.0,0.0,0.0,0.0,0.0,0.0,0.0,0.0,0.0,0.0,0.0,0.0,0.0,0.0,0.0,0.0,0.0,0.0,0.0,0.0,0.0,0.0,0.0,0.0,0.0,0.0,0.0,0.0,0.0,0.0,0.0,0.0,0.0,0.0,0.0,0.0,0.0,0.0,0.0,0.0,0.0,0.0,0.0,0.0,0.0,0.0,0.0,0.0,0.0,0.0,0.0,0.0,0.0,0.0,0.0,0.0,0.0,0.0,0.0,0.0,0.0,0.0,0.0,0.0,0.0,0.0,0.0,0.0,0.0,0.0,0.0,0.0,0.0,0.0,0.0,0.0,0.0,0.0,1.7051,1.8626,2.0121,0.0,2.1862,2.1729,2.1366,2.0041,1.8239,1.5763,0.0,0.0,0.0,0.0,0.0,0.0,0.0,0.0,0.0,0.0,0.0,0.0,0.0,0.0,0.0,0.0,0.0,0.0,0.0,0.0,0.0,0.0,0.0,0.0,0.0,0.0,0.0,0.0,0.0,0.0,0.0,0.0,0.0,0.0,0.0,0.0,0.0,0.0,0.0,0.0,0.0,0.0,0.0,0.0,0.0,0.0,0.0,0.0,0.0,0.0,0.0,0.0,0.0,0.0,0.0,0.0,0.0,0.0,0.0,0.0,0.0,0.0,0.0,0.0,0.0,0.0,0.0,0.0,0.0,0.0,0.0,0.0,0.0,0.0,0.0,0.0,0.0,0.0,0.0,0.0,0.0,0.0,0.0,0.0,0.0,0.0,0.0,0.0,0.0,0.0,0.0,0.0,0.0,0.0,0.0,0.0,0.0,0.0,0.0,0.0,0.0,0.0,1.7147,1.9263,2.0736,2.1083,2.1123,2.0665,1.9544,1.7549,1.5879,0.0,0.0,0.0,0.0,0.0,0.0,0.0,0.0,0.0,0.0,0.0,0.0,0.0,0.0,0.0,0.0,0.0,0.0,0.0,0.0,0.0,0.0,0.0,0.0,0.0,0.0,0.0,0.0,0.0,0.0,0.0,0.0,0.0,0.0,0.0,0.0,0.0,0.0,0.0,0.0,0.0,0.0,0.0,0.0,0.0,0.0,0.0,0.0,0.0,0.0,0.0,0.0,0.0,0.0,0.0,0.0,0.0,0.0,0.0,0.0,0.0,0.0,0.0,0.0,0.0,0.0,0.0,0.0,0.0,0.0,0.0,0.0,0.0,0.0,0.0,0.0,0.0,0.0,0.0,0.0,0.0,0.0,0.0,0.0,0.0,0.0,0.0,0.0,0.0,0.0,0.0,0.0,0.0,0.0,0.0,0.0,0.0,0.0,0.0,0.0,0.0,0.0,0.0,1.7147,1.9048,2.057,2.1409,2.1336,2.0877,2.0166,1.8628,1.6852,1.4814,0.0,0.0,0.0,0.0,0.0,0.0,0.0,0.0,0.0,0.0,0.0,0.0,0.0,0.0,0.0,0.0,0.0,0.0,0.0,0.0,0.0,0.0,0.0,0.0,0.0,0.0,0.0,0.0,0.0,0.0,0.0,0.0,0.0,0.0,0.0,0.0,0.0,0.0,0.0,0.0,0.0,0.0,0.0,0.0,0.0,0.0,0.0,0.0,0.0,0.0,0.0,0.0,0.0,0.0,0.0,0.0,0.0,0.0,0.0,0.0,0.0,0.0,0.0,0.0,0.0,0.0,0.0,0.0,0.0,0.0,0.0,0.0,0.0,0.0,0.0,0.0,0.0,0.0,0.0,0.0,0.0,0.0,0.0,0.0,0.0,0.0,0.0,0.0,0.0,0.0,0.0,0.0,0.0,0.0,0.0,0.0,0.0,0.0,0.0,0.0,0.0,0.0,1.6955,1.8885,2.0332,2.0957,2.1008,2.0597,1.9566,1.8548,1.7003,1.4687,0.0,0.0,0.0,0.0,0.0,0.0,0.0,0.0,0.0,0.0,0.0,0.0,0.0,0.0,0.0,0.0,0.0,0.0,0.0,0.0,0.0,0.0,0.0,0.0,0.0,0.0,0.0,0.0,0.0,0.0,0.0,0.0,0.0,0.0,0.0,0.0,0.0,0.0,0.0,0.0,0.0,0.0,0.0,0.0,0.0,0.0,0.0,0.0,0.0,0.0,0.0,0.0,0.0,0.0,0.0,0.0,0.0,0.0,0.0,0.0,0.0,0.0,0.0,0.0,0.0,0.0,0.0,0.0,0.0,0.0,0.0,0.0,0.0,0.0,0.0,0.0,0.0,0.0,0.0,0.0,0.0,0.0,0.0,0.0,0.0,0.0,0.0,0.0,0.0,0.0,0.0,0.0,0.0,0.0,0.0,0.0,0.0,0.0,0.0,0.0,0.0,0.0,1.6783,1.8811,2.0141,2.0256,2.0473,2.002,1.8419,1.7894,1.6711,1.456,0.0,0.0,0.0,0.0,0.0,0.0,0.0,0.0,0.0,0.0,0.0,0.0,0.0,0.0,0.0,0.0,0.0,0.0,0.0,0.0,0.0,0.0,0.0,0.0,0.0,0.0,0.0,0.0,0.0,0.0,0.0,0.0,0.0,0.0,0.0,0.0,0.0,0.0,0.0,0.0,0.0,0.0,0.0,0.0,0.0,0.0,0.0,0.0,0.0,0.0,0.0,0.0,0.0,0.0,0.0,0.0,0.0,0.0,0.0,0.0,1.3864,0.0,0.0,0.0,0.0,0.0,0.0,0.0,0.0,0.0,0.0,0.0,0.0,0.0,0.0,0.0,0.0,0.0,0.0,0.0,0.0,0.0,0.0,0.0,0.0,0.0,0.0,0.0,0.0,0.0,0.0,0.0,0.0,0.0,0.0,0.0,0.0,0.0,0.0,0.0,0.0,0.0,1.7613,1.9199,2.044,2.1283,2.121,2.0768,2.0007,1.884,1.7501,1.6031,1.3606,0.0,0.0,0.0,0.0,0.0,0.0,0.0,0.0,0.0,0.0,0.0,0.0,0.0,0.0,0.0,0.0,0.0,0.0,0.0,0.0,0.0,0.0,0.0,0.0,0.0,0.0,0.0,0.0,0.0,0.0,0.0,0.0,0.0,0.0,0.0,0.0,0.0,0.0,0.0,0.0,0.0,0.0,0.0,0.0,0.0,0.0,0.0,0.0,0.0,0.0,0.0,0.0,0.0,0.0,0.0,0.0,0.0,0.0,0.0,0.0,1.5199,0.0,0.0,0.0,0.0,0.0,0.0,0.0,0.0,0.0,0.0,0.0,0.0,0.0,0.0,0.0,0.0,0.0,0.0,0.0,0.0,0.0,0.0,0.0,0.0,0.0,0.0,0.0,0.0,0.0,0.0,0.0,0.0,0.0,0.0,0.0,0.0,0.0,0.0,0.0,0.0,1.7677,1.9134,2.0213,2.0864,2.0944,2.0538,1.9721,1.9369,1.8464,1.6622,1.4631,0.0,0.0,0.0,0.0,0.0,0.0,0.0,0.0,0.0,0.0,0.0,0.0,0.0,0.0,0.0,0.0,0.0,0.0,0.0,0.0,0.0,0.0,0.0,0.0,0.0,0.0,0.0,0.0,0.0,0.0,0.0,0.0,0.0,0.0,0.0,0.0,0.0,0.0,0.0,0.0,0.0,0.0,0.0,0.0,0.0,0.0,0.0,0.0,0.0,0.0,0.0,0.0,0.0,2.0009,2.0562,2.1416,2.0959,2.0995,2.1332,1.9564,1.8422,1.7784,1.7255,0.0,0.0,0.0,0.0,0.0,0.0,0.0,0.0,0.0,0.0,0.0,0.0,0.0,0.0,0.0,0.0,0.0,0.0,0.0,0.0,0.0,0.0,0.0,0.0,1.9167,1.8686,0.0,0.0,0.0,0.0,0.0,0.0,0.0,0.0,0.0,0.0,0.0,0.0,1.7855,1.9114,1.999,2.0364,2.0537,2.0242,1.9285,1.9765,1.9181,1.7034,1.5639,1.402,0.0,0.0,0.0,0.0,0.0,0.0,0.0,0.0,0.0,0.0,0.0,0.0,0.0,0.0,0.0,0.0,0.0,0.0,0.0,0.0,0.0,0.0,0.0,0.0,0.0,0.0,0.0,0.0,0.0,0.0,0.0,0.0,1.3029,1.4225,0.0,0.0,0.0,0.0,0.0,0.0,0.0,0.0,0.0,0.0,0.0,0.0,0.0,2.0069,2.067,2.2173,2.3003,2.3147,2.4049,2.4554,2.4687,2.4614,2.4614,2.4675,2.4398,0.0,1.942,1.8891,0.0,0.0,0.0,0.0,0.0,0.0,0.0,0.0,0.0,0.0,0.0,0.0,0.0,0.0,0.0,0.0,0.0,0.0,0.0,0.0,0.0,0.0,2.1296,2.1043,2.1392,2.1512,0.0,1.8277,1.6152,1.542,1.4249,0.0,0.0,0.0,0.0,0.0,0.0,0.0,1.9203,1.996,2.0572,2.1404,2.0985,2.0707,2.0864,2.0149,1.9188,1.8074,1.7112,1.5658,1.3591,1.296,0.0,0.0,0.0,0.0,0.0,0.0,0.0,0.0,0.0,0.0,0.0,0.0,0.0,0.0,0.0,0.0,0.0,0.0,0.0,0.0,0.0,0.0,0.0,0.0,0.0,0.0,0.0,0.0,0.0,1.3111,1.4756,1.5169,1.5228,1.4886,0.0,0.0,0.0,0.0,0.0,0.0,0.0,0.0,0.0,2.0488,2.1481,2.2377,2.3147,2.4229,2.4743,2.4743,2.5479,2.576,2.5464,2.5464,2.5464,2.5464,2.5464,2.44,2.2566,2.1629,2.061,1.9564,0.0,0.0,0.0,0.0,1.877,1.8686,2.0069,2.0201,0.0,1.9336,0.0,0.0,0.0,0.0,0.0,0.0,0.0,0.0,0.0,0.0,2.2282,2.2654,2.2907,2.3015,2.2787,2.1392,1.9684,0.0,1.7291,1.6496,1.4658,0.0,0.0,0.0,0.0,1.7827,1.9469,2.0,2.0378,2.0794,2.0484,2.0096,1.9584,1.9595,1.9076,1.7792,1.6929,1.6063,1.5039,1.377,1.2666,0.0,0.0,0.0,0.0,0.0,0.0,0.0,0.0,0.0,0.0,0.0,0.0,0.0,0.0,0.0,0.0,0.0,0.0,0.0,0.0,0.0,0.0,0.0,0.0,0.0,0.0,0.0,0.0,1.4915,1.6426,1.6151,1.7143,1.7171,0.0,0.0,0.0,0.0,0.0,0.0,2.0041,2.0958,2.1973,2.3056,2.3653,2.4308,2.4969,2.5585,2.5966,2.5966,2.6352,2.6384,2.5982,2.5982,2.5982,2.5982,2.5982,2.5695,2.5089,2.3906,2.291,2.2025,2.1596,2.1404,2.1488,2.2005,2.1945,2.1777,2.3111,2.3147,2.251,2.1993,0.0,2.0273,1.8566,0.0,0.0,0.0,0.0,2.0767,2.2378,2.2787,2.3015,2.3941,2.4157,2.4169,2.4034,2.3616,2.2575,0.0,2.0105,1.9396,1.6753,0.0,0.0,0.0,0.0,1.8654,1.9593,1.977,1.9876,1.9942,1.9713,1.9243,1.8395,1.8799,1.855,1.7363,1.6636,1.6155,1.5869,1.4453,1.3469,1.3057,0.0,0.0,0.0,0.0,0.0,0.0,0.0,0.0,0.0,0.0,0.0,0.0,0.0,0.0,0.0,0.0,0.0,0.0,0.0,0.0,0.0,0.0,0.0,0.0,0.0,0.0,0.0,0.0,0.0,1.7844,1.9806,0.0,0.0,0.0,0.0,1.9703,2.0624,2.1748,2.2834,2.3478,2.4273,2.528,2.5881,2.6255,2.6278,2.6806,2.7151,2.7151,2.7174,2.7105,2.7105,2.7105,2.7105,2.7105,2.7105,2.6818,2.6232,2.5075,2.4249,2.379,2.3676,2.3616,2.3676,2.4181,2.435,2.441,2.4987,2.453,2.3845,2.4771,2.4049,2.2702,2.2101,2.1235,0.0,0.0,2.2053,2.2438,2.4001,2.4398,2.4542,2.5095,2.5228,2.5169,2.485,2.4354,2.3715,0.0,2.1993,2.0985,2.0016,0.0,1.8406,1.843,1.8537,1.8891,1.9874,1.9497,1.9251,1.9607,1.8702,1.8202,1.8442,1.8085,1.7572,1.7119,1.6648,1.6206,1.5811,1.5013,1.4144,1.3377,1.2397,0.0,0.0,0.0,0.0,0.0,0.0,0.0,0.0,0.0,0.0,0.0,0.0,0.0,0.0,0.0,0.0,0.0,0.0,0.0,0.0,0.0,0.0,0.0,0.0,0.0,0.0,0.0,0.0,2.0128,2.1777,0.0,2.0488,2.116,2.1757,2.1958,2.2659,2.3616,2.463,2.5256,2.5698,2.612,2.6323,2.6585,2.6921,2.6767,2.6775,2.6775,2.6775,2.661,2.6385,2.6385,2.6385,2.6385,2.6385,2.6284,2.6084,2.5939,2.5547,2.5004,2.4978,2.4982,2.5005,2.518,2.5238,2.5261,2.5745,2.5507,2.4982,2.5309,2.5004,2.4446,2.4254,2.4169,2.4162,2.4257,2.4765,2.5217,2.5135,2.5326,2.5492,2.5348,2.4791,2.4276,2.4215,2.3475,2.2866,2.2595,2.2037,2.1311,2.0295,1.9745,1.9265,1.8772,1.893,1.9301,1.9717,1.9585,1.9414,1.9283,1.8914,1.8498,1.7998,1.7842,1.7398,1.6598,1.6179,1.5886,1.5789,1.4987,1.4402,1.4178,1.3219,1.1962,0.0,0.0,0.0,0.0,0.0,0.0,0.0,0.0,0.0,0.0,0.0,0.0,0.0,0.0,0.0,0.0,0.0,0.0,0.0,0.0,0.0,0.0,0.0,0.0,0.0,0.0,2.1534,2.1663,2.3309,2.379,2.224,2.29,2.3607,2.3985,2.4346,2.5009,2.5825,2.6108,2.6273,2.6517,2.6373,2.6456,2.6787,2.6456,2.629,2.629,2.629,2.6135,2.5895,2.5895,2.5895,2.5895,2.5895,2.5895,2.5895,2.6218,2.6065,2.5723,2.6029,2.6108,2.6108,2.6108,2.6108,2.6163,2.6302,2.6167,2.5853,2.5576,2.5468,2.5406,2.5406,2.5642,2.5851,2.5627,2.596,2.6299,2.5408,2.5379,2.5436,2.4865,2.4107,2.3464,2.3315,2.2671,2.2027,2.1962,2.1912,2.1604,2.0608,2.0371,2.0048,1.9084,1.9203,1.9479,1.9555,1.9422,1.9228,1.902,1.8728,1.8305,1.7669,1.7394,1.6985,1.634,1.567,1.5414,1.5559,1.4613,1.411,1.4188,1.3198,1.2196,1.1269,0.0,0.0,0.0,0.0,0.0,0.0,0.0,0.0,0.0,0.0,0.0,0.0,0.0,0.0,0.0,0.0,0.0,0.0,0.0,0.0,0.0,0.0,0.0,1.9985,2.1788,2.2986,2.2519,2.4296,2.5002,2.347,2.4716,2.5699,2.5811,2.5764,2.5965,2.6412,2.6052,2.6052,2.6445,2.6052,2.5895,2.5895,2.5895,2.5812,2.5895,2.5895,2.5895,2.5895,2.5906,2.5895,2.5895,2.5895,2.5895,2.5895,2.5895,2.5895,2.5979,2.6857,2.7185,2.7185,2.7185,2.7185,2.7105,2.6542,2.6371,2.6381,2.581,2.565,2.565,2.565,2.565,2.565,2.5561,2.5572,2.5406,2.4736,2.4557,2.4399,2.3663,2.3213,2.2808,2.2439,2.201,2.1538,2.1252,2.1756,2.1955,2.1145,2.0989,2.0629,1.961,1.9468,0.0,1.9335,1.8971,1.8724,1.8715,1.799,1.7513,1.7495,1.6771,1.6312,1.6285,1.5166,1.4725,1.5157,1.3998,1.3336,1.3423,1.2349,1.1675,1.1416,0.0,0.0,0.0,0.0,0.0,0.0,0.0,0.0,0.0,0.0,0.0,0.0,0.0,0.0,0.0,0.0,0.0,0.0,0.0,0.0,0.0,2.0656,2.205,2.2168,2.3732,2.4973,2.5269,2.6129,2.644,2.5633,2.5959,2.6088,2.5633,2.5333,2.5303,2.5746,2.5359,2.5464,2.6052,2.5464,2.538,2.5895,2.485,2.4669,2.5211,2.5211,2.5211,2.5211,2.5644,2.5895,2.5895,2.5895,2.5895,2.5895,2.5895,2.5895,2.5895,2.6146,2.6218,2.6218,2.6218,2.6456,2.6588,2.6229,2.6419,2.6874,2.6402,2.6449,2.6772,2.6772,2.6449,2.595,2.5601,2.5426,2.4999,2.4164,2.4161,2.4228,2.3657,2.2827,2.2251,2.2099,2.1218,2.0387,2.0316,2.021,2.0178,2.0381,2.0043,1.9665,1.9362,1.9362,0.0,1.9283,1.9201,1.9026,1.8742,1.8256,1.7825,1.7523,1.6771,1.6065,1.5469,1.4854,1.4427,1.4287,1.395,1.3718,1.3765,1.2911,1.2289,0.0,0.0,0.0,0.0,0.0,0.0,0.0,0.0,0.0,0.0,0.0,0.0,0.0,0.0,0.0,0.0,0.0,0.0,0.0,0.0,0.0,0.0,2.2662,2.3933,2.4162,2.5015,2.5865,2.6416,2.6606,2.6456,2.5863,2.5863,2.5516,2.4808,2.4573,2.4584,2.4808,2.4584,2.4584,2.502,2.468,2.4594,2.502,2.4231,2.4059,2.4413,2.4413,2.4594,2.4946,2.5295,2.5644,2.5895,2.5895,2.5895,2.5895,2.5895,2.5895,0.0,0.0,0.0,0.0,0.0,2.6063,2.6218,2.5979,2.6218,2.6622,2.6373,2.6456,2.6622,2.6362,2.5935,2.5516,2.4988,2.4723,2.4405,2.3564,2.3493,2.3507,2.2908,2.2197,2.1652,2.1652,2.0857,2.0127,1.9962,1.9732,0.0,1.9803,1.9539,1.9301,1.9301,1.9301,1.9301,1.9301,1.9301,1.9219,1.899,1.8605,1.821,1.7798,1.7018,0.0,0.0,0.0,1.4249,1.3662,1.3635,0.0,0.0,0.0,0.0,0.0,0.0,0.0,0.0,1.2597,1.2794,0.0,0.0,0.0,0.0,0.0,0.0,0.0,0.0,0.0,0.0,0.0,0.0,0.0,0.0,0.0,0.0,2.4585,2.5554,2.5672,2.5658,2.5813,2.6307,2.5957,2.5486,2.4934,2.4849,2.4516,2.3854,2.3864,2.3864,2.3864,0.0,0.0,0.0,0.0,2.3864,2.3941,2.3777,2.3777,2.3864,2.3814,2.4054,2.4763,2.4796,2.5115,2.5644,2.5644,2.5644,2.5644,2.5644,2.5644,2.5644,2.5812,2.5895,2.5895,2.5895,2.5895,2.5895,2.5895,0.0,0.0,2.5812,2.5812,2.5644,2.4946,2.468,2.4509,2.3897,2.3627,2.3454,2.2794,2.2715,2.2539,2.183,2.1447,2.1181,2.1181,2.0869,2.0484,2.0136,1.9989,1.9815,1.9439,1.9329,1.9301,1.9301,1.9301,1.9301,1.9301,1.9301,1.9301,1.9301,0.0,0.0,1.8219,1.7403,1.6734,1.6273,1.5096,1.4132,1.3469,1.3432,1.3444,1.3436,1.3812,1.4056,1.4149,1.4849,1.5223,1.5103,1.3649,1.3578,0.0,0.0,0.0,0.0,0.0,0.0,0.0,0.0,0.0,0.0,0.0,0.0,0.0,0.0,0.0,2.3798,2.4737,2.5185,2.5082,2.5062,2.5094,2.5179,2.4584,2.4288,2.45,2.453,2.4326,2.403,2.3968,2.3968,2.3968,2.3968,2.4242,2.4786,2.4242,2.4242,2.4776,2.361,2.3343,2.3968,0.0,0.0,2.3722,2.3884,2.4059,2.4231,2.4231,2.4231,2.4231,2.4231,2.4231,2.4317,2.5464,2.5895,2.5895,2.5895,2.5895,2.5895,2.5895,2.5895,2.5812,2.5295,2.5115,2.4946,2.4231,2.3647,0.0,2.3047,2.252,2.2078,2.1909,2.1909,2.1909,2.1731,2.1676,2.1612,2.1612,2.1291,2.097,2.0897,2.0365,1.9907,1.9824,1.9522,1.9301,1.9301,1.9301,1.9301,1.9301,1.9301,1.9301,1.9301,1.8944,1.8678,1.8605,1.7559,1.6587,1.5833,1.4749,1.4162,1.4267,1.4318,1.4328,1.4333,1.4709,1.4865,1.4875,1.563,1.568,1.5203,1.5074,1.5334,0.0,0.0,0.0,0.0,0.0,0.0,0.0,0.0,0.0,0.0,0.0,2.1,2.1733,0.0,2.3302,2.4643,2.4808,2.4846,2.4944,2.4652,2.4402,2.4389,2.4176,2.4057,2.3929,2.4045,2.3997,2.3476,2.3495,2.3495,2.3495,2.3495,2.3588,2.3951,2.3588,2.3476,2.3551,2.3121,2.2933,2.3093,2.3094,2.3369,2.3717,2.3633,2.3791,2.4132,2.3891,2.38,2.38,2.38,2.38,2.3887,2.4584,2.485,2.485,2.485,2.485,2.485,2.485,2.485,2.4754,2.4498,2.4327,2.4241,2.3474,2.3047,2.2706,2.2353,2.2008,2.1741,2.1741,2.1741,2.1741,2.1741,2.1741,2.1741,2.1741,2.1566,2.1355,2.1145,2.0796,2.0309,1.9669,1.9426,1.9299,1.9338,1.9301,1.9301,1.9301,1.9152,1.9002,1.9002,1.8585,1.8301,1.8098,1.7296,1.6615,1.6008,1.542,1.5061,1.5074,1.5112,1.5103,1.515,1.5334,1.5375,1.5412,1.5963,1.5827,1.5188,1.5512,1.5589,0.0,0.0,0.0,0.0,0.0,0.0,0.0,0.0,1.981,2.075,2.1943,2.2955,2.3449,2.3764,2.4294,2.5217,2.4873,2.4556,2.4804,2.4234,2.3751,2.3399,2.3801,2.3935,2.3477,2.3689,2.3645,2.318,2.3189,2.3189,2.3189,2.3189,2.3189,2.3189,2.299,2.279,2.238,2.2694,2.259,2.2188,2.2518,2.3052,2.358,2.3166,2.3252,2.3767,2.3418,2.3174,2.3096,2.3096,2.3096,2.3096,2.3096,2.3096,2.3183,2.3617,2.38,2.38,2.38,2.38,2.38,2.3627,2.3637,2.3464,2.2794,2.2627,2.2441,2.1731,2.1642,2.1651,2.1463,2.1553,2.1642,2.1463,2.1463,2.1553,2.1463,2.1463,2.1364,2.1029,2.0902,2.0476,1.9521,1.9283,1.9126,1.9047,1.9063,1.9063,1.9063,1.8763,1.8531,1.8531,1.8201,1.7877,1.7405,1.7021,1.6623,1.6178,1.6087,1.5945,1.5563,1.5483,1.547,1.5468,1.5466,1.5415,1.5389,1.5738,1.5579,1.4932,1.5194,1.509,1.6655,1.7228,1.7933,1.9397,1.9511,2.0143,0.0,0.0,2.3242,2.5142,2.5802,2.5898,2.571,2.5826,2.5695,2.5118,2.4967,2.4713,2.421,2.3717,2.3085,2.1998,2.2537,2.3213,2.3469,2.3542,2.3717,2.3987,2.4015,2.4015,2.4015,2.4015,2.4015,2.4015,2.3502,2.3205,2.3196,2.2698,2.2507,2.2498,2.2171,2.2016,2.2088,2.1691,2.1613,2.1587,2.1316,2.0959,2.0736,2.0736,2.0736,2.0736,2.0736,2.0736,2.0907,2.3008,2.38,2.38,2.38,2.38,2.3714,2.3135,2.2882,2.2794,2.1998,2.182,2.1731,2.1177,2.1365,2.1472,2.0654,2.1105,2.1472,2.0654,2.0736,2.0997,2.0564,2.0473,2.0464,2.0413,2.0136,1.9798,1.972,1.9127,1.8551,1.8172,1.8112,1.8112,1.8112,1.8121,1.804,1.804,1.804,1.7877,1.7405,1.7111,1.6616,1.5855,1.5763,1.5602,1.5341,1.5019,1.4796,1.4842,1.4497,1.4342,1.4377,1.4696,1.4518,1.3853,1.3886,1.4216,1.916,1.9772,2.0178,2.0864,2.1718,2.2839,2.4559,2.467,2.4736,2.5975,2.6303,2.6149,2.5523,2.5179,2.4851,0.0,2.441,2.4117,2.4085,2.3767,2.3128,2.236,2.2402,2.2438,2.2302,2.2523,2.2814,2.3211,2.3238,2.3238,2.3238,2.3238,2.3238,2.3238,2.2929,2.2728,2.2325,2.2426,2.2325,2.2021,2.2172,2.2295,2.2287,2.1803,2.1505,2.1283,2.1139,2.0866,2.0626,2.0626,2.0489,2.0292,2.0292,2.0292,2.0464,2.1695,2.2129,2.2217,2.2501,2.2403,2.2129,2.1802,2.1544,2.1275,2.1015,2.0925,2.0826,2.0645,2.0736,2.0835,2.0382,2.0564,2.0744,2.0382,2.0464,2.0555,2.0382,2.0002,1.9621,1.9621,1.9133,1.86,1.8124,1.7752,1.7352,1.6675,1.7391,1.804,1.804,1.7797,1.7383,1.6722,1.6304,1.5996,1.5851,1.568,1.5464,1.5161,1.5153,1.508,1.4999,1.4756,1.4667,1.4667,1.4557,1.4455,1.4455,1.4587,1.4321,1.3737,1.3821,1.3719,2.0226,2.1169,2.1887,2.2291,2.3646,2.4864,2.4962,2.5193,2.5583,2.6014,2.5947,2.5624,2.4911,2.4195,2.3898,2.3849,2.3432,2.325,2.3538,2.3232,2.2751,2.2154,2.1709,2.1328,2.087,2.1582,2.2073,2.2347,2.2466,2.2526,2.2526,2.2526,2.2526,2.2526,2.2325,2.2123,2.1725,2.1928,2.1827,2.1522,2.1818,2.2021,2.2013,2.1753,2.1427,2.1067,2.1067,2.0866,2.054,2.054,2.0322,2.0079,2.0079,2.002,1.9928,2.0456,2.0727,2.0826,2.1195,2.1096,2.0817,2.0817,2.0555,2.0292,2.0292,2.0292,2.0292,2.011,2.0201,2.0201,1.9928,2.011,2.0201,1.9928,2.0019,2.0011,1.9637,1.9163,1.8696,1.8511,1.8048,1.7409,1.6813,1.6697,1.6378,1.5708,1.6604,1.73,1.7203,1.6868,1.6312,1.5484,1.4985,1.4734,1.4734,1.4734,1.465,1.4405,1.4566,1.465,1.4405,1.4398,1.4398,1.4398,1.423,1.4139,1.4139,1.4057,1.3756,1.3347,1.3442,1.3076,1.8838,2.049,2.2641,2.405,2.5131,2.5923,2.6129,2.6162,2.6038,2.5775,2.542,2.4871,2.4165,2.3721,2.3128,2.2186,2.2059,2.2059,2.2068,2.1758,2.1198,2.0379,1.9903,1.9635,1.9447,2.0953,2.1961,2.197,2.2321,2.2526,2.2526,2.2526,2.2526,2.2526,2.203,2.1725,2.1725,2.1224,2.0917,2.0925,2.0917,2.0925,2.0917,2.0909,2.071,2.0476,2.0476,2.0277,1.9949,1.9949,1.975,1.9447,1.9447,1.9231,1.892,1.9463,1.992,2.0292,2.0382,2.0292,2.0292,2.0292,2.0292,2.0292,2.0292,2.0292,2.0201,1.9737,1.992,2.011,1.9104,1.9563,2.0011,1.9104,1.9279,1.9271,1.8056,1.7777,1.7505,1.6864,1.6676,1.6676,1.6567,1.6309,1.6014,1.6007,1.5729,1.5504,1.521,1.4916,1.4734,1.4734,1.4734,1.4734,1.4734,1.4734,1.4398,1.3737,1.4314,1.4405,1.3737,1.3737,1.3737,1.3737,1.313,1.279,1.279,1.2534,1.2392,1.2309,1.2191,1.2161,2.0174,2.1678,2.3066,2.4302,2.4726,2.4906,2.5235,2.4848,2.439,2.407,2.373,2.3214,2.2527,2.2256,2.21,2.1999,2.1961,2.1961,2.1961,2.1859,2.1164,1.9581,1.9327,1.8746,1.7603,1.9233,0.0,2.0941,2.0997,2.1167,2.1412,2.0901,2.0593,2.0593,1.9872,1.9561,1.9561,1.9354,1.9257,1.9257,1.9783,2.0403,2.0925,2.0925,2.0853,2.0742,2.0742,2.0543,2.0218,2.0218,2.0011,1.9701,1.9701,1.9495,1.9193,1.9373,1.9406,1.9379,2.011,2.011,1.9828,1.9828,1.9554,1.9279,1.9279,1.9279,1.9288,1.9104,1.9196,1.9196,1.892,1.8719,1.8527,1.8164,1.7792,1.7512,1.7044,1.6567,1.6096,1.5818,1.5439,1.5057,1.5057,1.4981,1.4911,1.4911,1.5244,1.5424,1.5415,1.4879,1.4482,1.4289,1.3931,1.3595,1.3398,1.3379,1.33,1.3045,1.3215,1.3294,1.3052,1.3045,1.2875,1.2613,1.2447,1.2272,1.2009,1.2075,1.1828,1.1288,1.1414,1.108,2.0459,2.1619,2.2556,2.4075,2.4281,2.42,2.4279,2.3843,2.3268,2.2595,2.1977,2.1336,2.0424,2.0029,1.9961,2.0087,2.0192,2.0321,2.0351,2.0686,2.0351,1.8989,1.8839,1.8474,1.7404,0.0,0.0,1.9766,1.9729,1.9959,2.0395,1.999,1.968,1.968,1.9153,1.884,1.884,1.8527,1.8422,1.8422,1.8945,1.9465,1.9983,1.9983,1.9983,1.9983,2.03,2.0381,2.0171,2.0482,2.0369,2.0051,2.0051,1.9773,1.9376,1.9376,1.9145,1.892,1.9554,1.9554,1.9279,1.9279,1.9096,1.8735,1.845,1.845,1.8357,1.8079,1.7986,1.7986,1.7986,1.7699,1.7326,1.7326,1.6951,1.6487,1.6204,1.5724,1.5343,1.5057,1.458,1.4298,1.4298,1.4298,1.4298,1.4298,1.4746,1.5021,1.4922,1.4463,1.4065,1.3894,1.3527,1.3188,1.3006,1.2994,1.2994,1.2994,1.2814,1.2726,1.2726,1.2552,1.2289,1.202,1.1825,1.1632,1.1271,1.1119,1.0758,1.0202,1.0305,0.9912,1.9674,2.0371,2.1321,2.3458,2.3954,2.3762,2.3184,2.3042,2.2599,2.1104,2.0163,1.9264,1.8144,1.7376,1.6873,1.665,1.6908,1.7246,1.7456,1.8376,1.8959,0.0,0.0,0.0,0.0,0.0,0.0,1.8533,0.0,1.8722,1.9576,1.9576,1.9576,1.9576,1.9569,1.9465,1.9465,1.8736,1.8318,1.8318,1.8318,1.8318,1.8422,1.8422,1.8422,1.8422,1.9257,1.968,1.968,2.0506,2.0617,2.0316,2.0316,1.9905,1.9304,1.9304,1.9059,1.8735,1.8735,1.8735,1.8735,1.8735,1.8735,1.8542,1.7878,1.7598,1.7505,1.677,1.6588,1.6588,1.6588,1.6581,1.6581,1.6581,1.6487,1.6298,1.5534,1.5337,1.5153,1.449,1.4298,1.4298,1.4298,1.4298,1.4298,1.4298,1.4298,1.4208,1.396,1.3713,1.355,1.3538,1.3538,1.3532,1.3423,1.3423,1.3423,1.3423,1.2962,1.2683,1.2683,1.2221,1.1946,1.186,1.1124,1.0672,1.0667,0.9638,0.9148,0.9152,0.8845,0.8722,1.9885,2.1077,2.2286,2.3084,2.2629,2.1944,2.1756,2.0824,1.966,1.8767,1.7698,1.6711,1.5855,1.6254,0.0,1.617,1.729,0.0,1.7591,1.8171,0.0,1.6941,0.0,1.6934,1.6017,1.5986,0.0,0.0,1.7908,1.8281,1.8729,1.8199,1.7884,1.7884,1.7259,1.6836,1.6836,1.663,1.6836,1.7463,1.7463,1.7786,1.8422,1.8422,1.8422,1.8422,1.8632,1.8736,1.8736,1.8945,1.8998,1.8926,1.8926,1.8535,1.7978,1.7978,1.7623,1.7145,1.7145,1.7512,1.7885,1.7333,1.7145,1.7145,1.6958,1.6857,1.6864,1.6676,1.6588,1.6588,1.6588,1.6204,1.5724,1.5724,1.5248,1.4867,1.458,1.458,1.4484,1.4298,1.4298,1.4298,1.4298,1.4298,1.4202,1.3727,1.3727,1.38,1.4208,1.4135,1.402,1.3827,1.3803,1.354,1.2974,1.2865,1.2774,1.2409,1.2226,1.2226,1.2226,1.1487,1.0935,1.0565,0.9951,0.9453,0.9076,0.8968,0.8557,0.7967,0.7908,0.763,2.0029,2.092,2.1666,2.1863,2.137,2.0679,1.9882,1.8872,1.7624,1.6413,1.5367,1.4432,1.3474,1.418,1.4775,0.0,0.0,0.0,1.6487,1.7311,1.7553,0.0,1.6808,0.0,1.6078,1.5891,1.6111,0.0,1.7093,1.745,1.8164,1.7747,1.7473,1.7349,1.6921,1.6442,1.5891,1.5891,1.6099,1.6624,1.6624,1.673,1.6942,1.7153,1.7047,1.6611,0.0,1.7463,1.7463,1.7562,1.7772,1.7982,1.7982,1.7613,1.7186,1.7399,1.7113,1.6588,1.6197,1.6379,1.6662,1.6581,1.6588,1.6487,1.6204,1.6109,1.6008,1.5724,1.5629,1.5629,1.5629,1.5248,1.4962,1.4962,1.458,1.4298,1.4298,1.4298,1.4298,1.4298,1.4106,1.3919,1.3919,1.3817,1.3534,1.3249,1.3152,1.3147,1.3125,1.3426,1.3573,1.3429,1.3417,1.3265,1.2747,1.2444,1.2057,1.1869,1.1303,1.0924,1.0924,1.026,0.9789,0.9507,0.8821,0.838,0.8094,0.7888,0.7531,0.7033,0.7033,0.6833,2.0075,2.0392,2.0448,2.0408,2.0329,1.982,1.8152,1.7274,1.6164,1.4235,1.3272,1.2395,1.1343,1.1998,1.2587,1.2286,0.0,1.4825,1.5059,1.6141,1.7002,1.7035,1.7041,1.7054,1.7093,1.6572,1.6308,1.6386,1.6404,1.6821,1.7668,1.7792,1.7663,1.7386,1.7341,1.6883,1.5891,1.5891,1.5891,1.5891,1.5891,1.5678,1.5143,1.5678,1.5351,1.4385,1.5553,0.0,1.608,1.628,1.6698,1.7121,1.7121,1.6872,1.6473,1.6993,1.6821,1.6204,1.5534,1.5242,1.5337,1.6109,1.6298,1.6204,1.5439,1.5242,1.5153,1.4484,1.4298,1.4298,1.4298,1.4298,1.4298,1.4298,1.4298,1.4298,1.4298,1.4202,1.4202,1.4106,1.3624,1.3244,1.3244,1.2851,1.2462,1.237,1.2365,1.2068,1.137,1.2068,1.2559,1.2462,1.2462,1.2462,1.2365,1.1765,1.1268,1.1268,1.0096,0.9509,0.9509,0.892,0.8627,0.8627,0.7829,0.7431,0.7431,0.6734,0.6437,0.6437,0.6437,0.6437,1.9908,2.0384,2.0758,2.0464,1.9963,1.9241,1.8041,1.6542,0.0,0.0,1.199,1.0806,1.0263,1.116,1.2061,1.1951,1.3674,1.4962,1.5105,1.5476,1.5854,0.0,1.6099,1.6184,1.6404,1.6363,0.0,0.0,1.6954,1.6995,1.693,1.6918,1.679,1.6508,1.6288,1.6147,1.5891,1.5891,1.5891,1.5891,1.5891,1.5891,1.5785,1.5891,1.5571,1.4821,1.5143,0.0,1.4595,1.4589,1.4917,1.5458,1.5458,1.535,1.5405,1.5506,1.5153,1.4682,1.458,1.4484,1.4484,1.4682,1.4675,1.4675,1.449,1.4484,1.4484,1.4298,1.4298,1.4298,1.4298,1.4298,1.4298,1.4298,1.4298,1.4298,1.4298,1.3919,1.3534,1.3147,1.2452,1.1955,1.1955,1.1263,1.0672,1.0194,1.0199,0.9903,0.9312,1.0783,1.156,1.0867,1.0863,1.0676,1.0194,1.0002,0.9805,0.9312,0.9019,0.8924,0.8924,0.8226,0.7829,0.7829,0.7033,0.6637,0.6637,0.6437,0.6437,0.6437,0.6437,0.6437,1.982,2.0106,2.0289,1.9948,1.9471,1.8621,1.6833,0.0,0.0,0.0,1.0553,0.9721,0.8991,1.0065,1.1075,1.1107,1.2572,1.3919,1.437,1.4835,1.524,1.5638,1.5807,1.5994,1.6254,1.641,1.6552,1.6603,1.6621,1.6742,1.7105,1.6845,1.6573,1.629,1.6024,1.5891,1.5891,1.5891,1.5891,1.5891,1.5891,1.5785,1.5464,1.5464,1.4928,1.4072,1.4072,0.0,1.4169,1.3846,1.4283,1.5024,1.4898,1.4717,1.4671,1.4849,1.4648,1.4298,1.4298,1.4298,1.4298,1.401,1.4112,1.4298,1.4298,1.4298,1.4298,1.4298,1.4298,1.4298,1.4298,1.4106,1.3919,1.3919,1.3727,1.3431,1.3028,1.264,1.2355,1.1658,1.0974,1.0587,1.0587,0.9993,0.9604,0.9813,0.9813,0.9517,0.8924,0.9608,0.9998,0.9596,0.96,0.9501,0.9217,0.8817,0.8421,0.8226,0.7829,0.7531,0.7531,0.7132,0.6933,0.6933,0.6637,0.6437,0.6437,0.6437,0.6437,0.6437,0.6137,0.5934,1.9669,1.9812,1.9781,1.9455,1.8986,1.8001,1.5705,1.4359,0.0,1.0365,0.9534,0.9028,0.8263,0.9101,1.0079,0.0,1.1564,1.2795,1.3767,1.437,1.4914,0.0,1.5623,0.0,1.6041,1.6145,0.0,1.584,1.5966,1.6276,1.6949,1.6642,1.6285,1.5955,1.5809,1.5678,1.5565,1.5565,1.5565,1.5565,1.5565,1.525,1.4821,1.4821,1.4283,1.3315,1.3315,0.0,0.0,1.331,1.3717,1.4511,1.4317,1.416,1.3971,1.4284,1.424,1.401,1.401,1.401,1.3913,1.3539,1.3727,1.4106,1.401,1.3811,1.3806,1.3913,1.3811,1.3806,1.3908,1.363,1.3346,1.3147,1.2657,1.2063,1.137,1.1268,1.117,1.0476,0.9797,0.941,0.941,0.8821,0.8524,0.9122,0.9225,0.9023,0.8326,0.8326,0.8326,0.8326,0.8326,0.8326,0.8326,0.773,0.7332,0.7332,0.6734,0.6437,0.6437,0.6437,0.6437,0.6437,0.6437,0.6337,0.6237,0.6237,0.6137,0.6034,0.5636,0.5434,1.932,1.9638,1.9781,1.9455,1.8613,1.7397,1.5594,0.0,1.2145,1.0613,0.9463,0.8717,0.8864,0.8844,0.9214,1.049,1.122,1.2168,1.3688,1.437,1.4914,1.5439,0.0,0.0,1.5493,1.5093,1.4877,1.5134,1.515,1.5161,1.5183,1.5372,1.5319,1.4735,1.495,1.4821,1.4385,1.4385,1.4385,1.4385,1.4385,1.4385,1.4277,1.4277,1.3959,1.3315,1.3315,0.0,0.0,1.2545,1.2759,1.3213,1.3193,1.323,1.3341,1.3319,1.3161,1.2953,1.2953,1.2953,1.2958,1.2861,1.3152,1.3443,1.3055,1.2457,1.1955,1.2754,1.2452,1.2052,1.2759,1.2861,1.2662,1.196,1.1165,1.0476,0.9899,1.0391,1.0685,1.0109,0.9418,0.892,0.892,0.763,0.6634,0.6736,0.6734,0.6734,0.6634,0.6634,0.6634,0.6634,0.6634,0.6634,0.6634,0.6534,0.6537,0.6537,0.6437,0.6437,0.6437,0.6437,0.6437,0.6437,0.6437,0.6137,0.5634,0.5634,0.5434,0.4935,0.4935,0.4834,1.8573,1.8978,1.9209,1.9074,1.8255,1.7016,1.5261,1.3797,1.2243,1.0126,0.9295,0.8824,0.8406,0.8379,0.8717,0.9627,1.0018,1.0634,1.1729,1.248,1.3032,1.3653,1.3931,0.0,0.0,0.0,1.4446,1.4218,1.3892,1.3613,1.3467,1.4382,1.4784,1.4418,1.4434,1.4385,1.4169,1.4169,1.4169,1.4169,1.4169,1.4169,1.4169,1.3851,1.3527,1.3315,1.2881,0.0,0.0,1.2842,1.3052,1.3477,1.3193,1.3175,1.3093,1.2444,1.2139,1.196,1.156,1.1663,1.2058,1.1668,1.2068,1.2662,1.2764,1.2565,1.2365,1.2662,1.2565,1.2365,1.2759,1.2565,1.217,1.1482,1.0788,1.0002,0.9316,0.9015,0.8715,0.7928,0.7531,0.7332,0.7332,0.6833,0.6534,0.7033,0.7132,0.7132,0.7132,0.7132,0.6933,0.6437,0.6437,0.6437,0.6437,0.6437,0.6437,0.6437,0.6437,0.6437,0.6437,0.6437,0.6237,0.5937,0.5937,0.5634,0.5135,0.5135,0.473,0.4024,0.3725,0.3321,1.7898,1.8398,1.8676,1.8676,1.7811,1.6524,1.4863,1.36,1.2148,0.986,0.9263,0.8949,0.8103,0.81,0.8312,0.8786,0.9109,0.9629,1.0506,1.1168,1.176,1.2384,0.0,1.3371,0.0,1.4004,1.3758,1.3322,1.2889,1.2602,1.2446,1.3337,1.3899,1.3635,1.3846,1.3846,1.363,1.363,1.363,1.363,1.363,1.363,1.3624,1.3202,1.2989,1.2985,1.255,0.0,0.0,1.283,1.29,1.3169,1.284,1.2668,1.249,1.1727,1.1473,1.137,1.0583,1.0681,1.0984,1.0391,1.0592,1.1091,1.1482,1.158,1.158,1.158,1.158,1.158,1.158,1.1184,1.0596,1.0203,0.9517,0.8825,0.8226,0.7829,0.7431,0.6833,0.6734,0.6734,0.6734,0.6534,0.6637,0.7132,0.7232,0.7232,0.7232,0.7232,0.7033,0.6437,0.6437,0.6437,0.6437,0.6437,0.6437,0.6437,0.6237,0.6137,0.6137,0.6037,0.5634,0.5031,0.5031,0.4628,0.3825,0.3825,0.3522,0.2717,0.2416,0.1813,1.7397,1.8033,1.8303,1.8303,1.7254,1.5848,1.4434,1.3036,1.161,1.0076,0.9458,0.8995,0.8237,0.7996,0.7999,0.8154,0.8667,0.9406,1.057,1.1193,1.1778,0.0,0.0,1.2501,1.274,1.2525,1.2441,1.2441,1.2441,0.0,1.2441,1.2441,1.2441,1.2441,1.2989,1.2985,1.2436,1.2436,1.2436,1.2436,1.2436,1.2436,1.2436,1.2441,1.2441,1.2441,0.0,0.0,0.0,1.2139,1.1898,1.1524,1.152,1.1387,1.1198,1.1194,1.1194,1.1096,1.0314,1.0019,0.992,0.9122,0.8821,0.8825,0.8825,0.8825,0.8825,0.8825,0.8825,0.8825,0.8825,0.8226,0.763,0.763,0.7033,0.6434,0.6437,0.7033,0.763,0.763,0.763,0.763,0.763,0.6933,0.6437,0.6437,0.6437,0.6437,0.6437,0.6437,0.6437,0.6437,0.6437,0.6437,0.6437,0.6437,0.6437,0.6437,0.5934,0.5636,0.5636,0.5135,0.4429,0.3621,0.362,0.2917,0.161,0.161,0.1309,0.0806,0.0806,0.0403,1.5086,1.5713,1.6111,1.5856,1.5102,1.4172,1.3259,1.2269,1.1151,0.9926,0.9465,0.904,0.8131,0.7931,0.8037,0.8458,0.8689,0.905,0.0,0.0,0.0,1.1169,1.1942,1.238,0.0,0.0,1.2441,1.2441,1.2441,1.2441,1.2441,1.2441,1.2441,1.2441,1.255,1.255,1.2441,1.2441,1.2441,1.2441,1.2441,1.2441,1.2441,1.2441,1.2441,0.0,0.0,0.0,0.0,1.1983,1.1761,1.1505,1.1354,1.1255,1.1096,1.001,0.9513,0.9316,0.8024,0.7928,0.8326,0.8028,0.8326,0.8726,0.8127,0.8326,0.8825,0.8825,0.8825,0.8825,0.8825,0.8623,0.8425,0.8425,0.7829,0.7232,0.7232,0.7033,0.6734,0.6734,0.6734,0.6734,0.6734,0.6534,0.6437,0.6437,0.6437,0.6437,0.6437,0.6437,0.6437,0.6437,0.6437,0.6437,0.6437,0.6034,0.5837,0.5837,0.5336,0.5035,0.5035,0.4935,0.4228,0.312,0.302,0.2415,0.1008,0.1008,0.0706,0.0,-0.0606,-0.101,1.36,1.4339,1.472,1.4498,1.3918,1.3211,1.2512,1.1755,1.0864,0.9829,0.951,0.9197,0.8249,0.815,0.8269,0.8301,0.8457,0.8769,0.0,0.0,0.0,1.0844,0.0,0.0,0.0,1.2394,1.2441,1.2441,1.2441,1.2441,1.2441,1.2441,1.2441,1.2441,1.2441,1.2441,1.2441,1.2441,1.2441,1.2441,1.2441,1.2441,1.2441,1.2441,1.2441,0.0,0.0,0.0,0.0,1.1794,1.1581,1.1383,1.1246,1.0998,1.0605,0.962,0.9023,0.8623,0.7332,0.7132,0.7531,0.7232,0.7531,0.7829,0.7332,0.7531,0.7928,0.7928,0.7928,0.7928,0.7928,0.7928,0.7928,0.7928,0.7531,0.7132,0.7132,0.6734,0.6437,0.6437,0.6437,0.6437,0.6437,0.6437,0.6437,0.6437,0.6437,0.6437,0.6437,0.6437,0.6234,0.5734,0.5634,0.5432,0.4926,0.5331,0.5434,0.4828,0.4329,0.3927,0.3623,0.3423,0.2719,0.1612,0.1613,0.1008,-0.0101,-0.0101,-0.0404,-0.0909,-0.1415,-0.1617,0.0,1.3561,1.3854,1.3854,1.3378,1.2734,1.2059,1.1416,0.0,0.9784,0.9614,0.9375,0.8605,0.8592,0.8568,0.7969,0.8186,0.862,0.0,0.9488,0.0,0.0,1.1728,0.0,1.2143,1.2328,1.2441,1.2441,1.2441,1.2441,1.2441,1.2441,1.2441,1.2441,1.2441,1.2441,1.2441,1.2441,1.2441,1.2441,1.2441,1.2441,1.2441,1.2441,1.2432,0.0,0.0,0.0,0.0,1.1489,1.1288,1.1096,1.1096,1.0605,0.992,0.9821,0.9324,0.8623,0.7829,0.7531,0.7431,0.6634,0.6437,0.6437,0.6437,0.6437,0.6437,0.6437,0.6437,0.6437,0.6437,0.6437,0.6437,0.6437,0.6437,0.6437,0.6437,0.6437,0.6437,0.6437,0.6437,0.6437,0.6437,0.6437,0.6337,0.6337,0.6337,0.6337,0.6134,0.6234,0.5732,0.4427,0.4228,0.3723,0.2415,0.4124,0.4828,0.3519,0.2919,0.2316,0.161,0.1108,0.0403,-0.0404,-0.0505,-0.0808,-0.1617,-0.1617,-0.1617,-0.1617,-0.1617,-0.1617,1.0224,0.0,1.1328,1.1328,1.1201,1.1096,0.0,1.0656,1.0358,0.9962,0.9836,0.9528,0.8897,0.851,0.8516,0.9114,0.8882,0.9039,1.035,0.0,0.0,1.1694,1.2072,1.2313,1.2365,1.2413,1.2441,1.2441,1.2441,1.2441,1.2441,1.2441,1.2441,1.2441,1.2441,1.2441,1.2441,1.2441,1.2441,1.2441,1.2441,1.2441,1.2441,1.2441,1.2356,0.0,0.0,0.0,1.148,1.0201,0.9875,1.0216,0.9616,0.9221,0.9023,0.8425,0.8028,0.773,0.6933,0.6634,0.6637,0.6437,0.6437,0.6437,0.6437,0.6437,0.6437,0.6437,0.6437,0.6437,0.6437,0.6437,0.6437,0.6437,0.6437,0.6437,0.6437,0.6437,0.6437,0.6437,0.6437,0.6437,0.6437,0.6437,0.6134,0.5336,0.5837,0.5732,0.3924,0.4327,0.4327,0.302,0.2919,0.2616,0.1811,0.2213,0.2413,0.2113,0.1611,0.1209,0.1008,0.0907,0.0403,-0.0404,-0.101,-0.1415,-0.1617,-0.1617,-0.1617,-0.1617,-0.1617,-0.1617,0.9128,0.9922,1.0709,1.0709,1.0828,1.0939,1.0939,1.064,1.0316,0.0,0.0,0.9727,0.917,0.9305,0.9467,0.9233,0.9558,0.0,0.0,0.0,1.1732,1.194,1.2243,1.2441,0.0,1.2441,1.2219,1.1782,1.1782,1.1669,1.1227,1.1472,1.1536,1.1108,1.1773,1.2243,1.2436,1.2441,1.2441,1.2441,1.2346,1.2304,1.2299,1.1773,1.146,0.0,0.0,0.0,1.0281,0.9384,0.9402,0.992,0.9122,0.8825,0.8726,0.7928,0.7332,0.7033,0.6534,0.6437,0.6437,0.6437,0.6437,0.6437,0.6437,0.6437,0.6437,0.6437,0.6437,0.6437,0.6437,0.6437,0.6437,0.6437,0.6437,0.6437,0.6437,0.6037,0.5634,0.5634,0.5233,0.4931,0.4931,0.4931,0.473,0.4128,0.4427,0.4325,0.292,0.3221,0.2919,0.1611,0.1511,0.1108,0.0202,0.0101,0.0302,0.0705,0.0403,0.0101,-0.0303,-0.0303,-0.0505,-0.0909,-0.1415,-0.1617,-0.1617,-0.1617,-0.1617,-0.1617,-0.1617,-0.1617,0.8937,1.0041,1.1034,1.0875,1.113,1.14,1.1344,0.0,0.0,0.0,0.0,0.0,0.9525,1.0171,0.0,0.0,0.0,0.0,1.0923,1.143,1.1883,1.2068,1.2299,0.0,1.2441,1.2441,1.21,1.1306,1.1306,1.0958,1.0159,1.0667,1.0588,0.9953,1.1176,1.1987,1.2342,1.2238,1.2126,1.2126,1.1959,1.1986,1.1976,1.1172,1.0768,1.063,0.0,0.0,0.9415,0.8977,0.9221,0.9719,0.8924,0.8524,0.8326,0.763,0.7033,0.6437,0.6437,0.6437,0.6337,0.6234,0.6137,0.6134,0.5934,0.5934,0.5934,0.5934,0.6034,0.6237,0.6337,0.6237,0.6137,0.6137,0.6137,0.6134,0.5934,0.5233,0.4533,0.4533,0.3827,0.3123,0.3123,0.3123,0.3021,0.282,0.282,0.2619,0.2216,0.2115,0.1611,0.0202,0.0101,-0.0404,-0.1516,-0.1617,-0.1314,-0.0606,-0.0606,-0.0909,-0.1617,-0.1617,-0.1617,-0.1617,-0.1617,-0.1617,-0.1617,-0.1617,-0.1617,-0.1617,-0.1617,-0.1617,0.9509,1.0574,1.1201,1.0311,1.0589,1.0995,1.0693,0.0,0.0,0.0,0.0,0.0,0.0,0.9655,0.9678,0.0,0.0,1.1232,0.0,0.0,1.1831,1.186,0.0,1.2441,1.2441,1.2441,1.2262,1.1986,1.1972,1.1787,1.1499,1.1567,1.1548,1.1449,1.1728,1.1846,1.1912,1.1181,1.0871,1.0871,1.0841,1.1141,1.1865,1.1728,1.1518,1.136,0.0,1.0397,1.0744,0.9327,0.8825,0.8924,0.8127,0.7332,0.6734,0.6634,0.6534,0.6437,0.6437,0.6437,0.6237,0.5334,0.5035,0.4832,0.3927,0.3725,0.3725,0.3725,0.4329,0.5233,0.6137,0.5734,0.5035,0.5035,0.5035,0.4832,0.3927,0.3525,0.3425,0.3425,0.3122,0.282,0.282,0.2718,0.2215,0.131,0.1913,0.1712,-0.0303,0.0202,0.0202,-0.1111,-0.1313,-0.1414,-0.1617,-0.1617,-0.1516,-0.1415,-0.1415,-0.1516,-0.1617,-0.1617,-0.1617,-0.1617,-0.1617,-0.1617,-0.1617,-0.1617,-0.1617,-0.1617,-0.1617,-0.1617,0.8961,0.9851,1.0574,1.0288,1.1312,1.2305,1.1839,1.143,0.0,0.0,0.0,0.0,0.0,0.0,1.0707,1.1824,0.0,1.1076,1.1014,1.1401,1.1657,0.0,0.0,1.2106,1.2106,1.2106,1.1852,1.1238,1.123,0.0,1.046,1.0776,1.0723,1.0318,1.1033,1.1075,1.0163,1.0272,1.0578,1.13,1.1093,1.1248,1.1652,1.1028,1.0528,1.0042,0.0,0.9187,0.8616,0.8322,0.8127,0.8028,0.7232,0.7033,0.7033,0.6534,0.6437,0.6437,0.6437,0.6037,0.5436,0.4935,0.4431,0.3827,0.3324,0.3224,0.3123,0.3021,0.3425,0.4028,0.4529,0.4227,0.3726,0.3927,0.3725,0.3423,0.3021,0.2417,0.1914,0.1914,0.131,0.0806,0.0806,0.0706,0.0504,0.0,0.0202,0.0101,-0.101,-0.0908,-0.0908,-0.1516,-0.1617,-0.1617,-0.1617,-0.1617,-0.1617,-0.1617,-0.1617,-0.1617,-0.1617,-0.1617,-0.1919,-0.2421,-0.2421,-0.2723,-0.3323,-0.3323,-0.3323,-0.3323,-0.3323,-0.3323,0.8675,0.9382,1.016,1.0597,1.1853,1.2949,1.2905,1.2482,0.0,0.0,0.0,0.0,0.0,1.136,0.0,1.1941,1.1402,1.1019,1.1175,1.1383,1.152,1.152,1.1694,1.1817,1.1817,1.1817,1.138,1.0509,1.0613,0.0,0.9404,1.0091,1.0121,0.952,1.0582,1.0507,0.9122,0.9719,1.0358,1.1053,1.0905,1.0838,1.0833,1.0082,0.9422,0.8825,0.8825,0.8127,0.7033,0.763,0.773,0.7531,0.6933,0.6933,0.7232,0.6634,0.6237,0.6037,0.6037,0.5534,0.4734,0.4531,0.3927,0.3323,0.3123,0.2922,0.272,0.2317,0.2418,0.262,0.2922,0.2719,0.2416,0.2619,0.2316,0.2014,0.2015,0.1109,0.0403,0.0403,-0.0303,-0.0909,-0.0909,-0.0909,-0.101,-0.101,-0.1212,-0.1414,-0.1615,-0.1616,-0.1818,-0.2321,-0.2119,-0.212,-0.2321,-0.2321,-0.2321,-0.2321,-0.2321,-0.2321,-0.2321,-0.2321,-0.2723,-0.3524,-0.3624,-0.4024,-0.4824,-0.4824,-0.4924,-0.4924,-0.4924,-0.5024,0.9549,1.0113,1.0589,1.1249,1.1296,0.0,1.2871,1.2394,0.0,1.2998,0.0,0.0,0.0,1.1804,1.1425,1.1099,1.1149,1.1179,1.1194,0.0,1.152,1.152,1.1694,1.1817,1.1817,1.1817,1.1429,1.0425,0.0,0.0,0.997,1.0735,1.1119,1.1021,1.1105,1.0801,0.992,1.0019,0.9636,0.9057,0.9046,0.9042,0.9042,0.8928,0.8825,0.8825,0.8825,0.8726,0.8627,0.8726,0.8226,0.763,0.7531,0.7132,0.6437,0.6437,0.5737,0.4935,0.4935,0.4834,0.4634,0.3626,0.3624,0.3725,0.2723,0.2117,0.1513,0.0808,0.0606,0.0908,0.2115,0.1712,0.0907,0.1008,0.0907,0.0605,-0.0303,-0.0606,-0.0707,-0.0707,-0.0909,-0.1212,-0.1212,-0.1415,-0.1516,-0.1516,-0.1516,-0.1919,-0.2923,-0.222,-0.2321,-0.4325,-0.3725,-0.3524,-0.4524,-0.4524,-0.4524,-0.4524,-0.4524,-0.4524,-0.4524,-0.4524,-0.4624,-0.4724,-0.4724,-0.4724,-0.4824,-0.5027,-0.5129,-0.5129,-0.5425,-0.5525,0.885,0.97,1.0633,1.1066,1.1518,0.0,0.0,1.3299,1.3433,1.3922,1.3507,0.0,0.0,0.0,1.1812,1.1058,1.1066,1.1194,1.1194,1.1264,1.1316,1.1316,1.1383,1.143,1.143,1.0929,1.0501,1.0124,0.0,0.0,0.9225,0.9517,0.9715,0.9715,0.9715,0.9817,1.0019,0.9521,0.9324,0.9521,0.9023,0.9023,0.9521,0.9023,0.9122,0.9521,0.9521,0.9221,0.8825,0.8825,0.8326,0.7531,0.7033,0.6637,0.6437,0.6437,0.6134,0.5837,0.5837,0.5131,0.4227,0.3825,0.3122,0.2317,0.1412,0.1009,0.0606,-0.0303,-0.0606,-0.0303,0.0807,0.0404,-0.0303,0.0404,-0.0101,-0.0808,-0.101,-0.1212,-0.1313,-0.1313,-0.1415,-0.1415,-0.1415,-0.2119,-0.2622,-0.2622,-0.3123,-0.3723,-0.4124,-0.3823,-0.3924,-0.4724,-0.4425,-0.4325,-0.4724,-0.5427,-0.5832,-0.5832,-0.5127,-0.4824,-0.4824,-0.4824,-0.5127,-0.5832,-0.5832,-0.6229,-0.7027,-0.7129,-0.7621,-0.8403,-0.8502,-0.889,0.8487,0.941,1.0559,1.0822,0.0,0.0,1.3603,1.4193,1.4609,1.5043,1.4696,0.0,1.2005,0.0,0.0,0.0,1.1066,1.1194,1.1194,1.1194,1.1194,1.1194,1.1194,1.1096,1.0806,1.0314,0.9821,0.0,0.0,0.0,0.0,0.8623,0.8924,0.9122,0.9225,0.9422,1.0019,0.9422,0.9324,0.962,0.9023,0.9122,0.962,0.9023,0.9122,0.962,0.962,0.9122,0.8425,0.8425,0.7928,0.7132,0.6634,0.6437,0.6437,0.6437,0.6034,0.5632,0.5632,0.4828,0.3725,0.3423,0.2719,0.1814,0.1009,0.0706,0.0303,-0.0707,-0.0909,-0.0808,0.0,-0.0606,-0.1111,-0.0404,-0.0909,-0.1516,-0.1415,-0.1717,-0.212,-0.212,-0.2422,-0.2622,-0.2622,-0.3224,-0.3725,-0.3725,-0.4325,-0.4924,-0.5227,-0.5027,-0.4924,-0.5227,-0.5627,-0.5827,-0.5827,-0.6531,-0.6936,-0.6936,-0.6526,-0.6121,-0.5827,-0.5924,-0.6326,-0.7036,-0.7428,-0.812,-0.9019,-0.941,-1.0096,-1.0974,-1.1072,-1.1463,0.8642,0.9448,1.054,0.0,0.0,0.0,1.4253,1.4699,1.5087,1.6528,1.5124,1.3106,1.1228,1.0721,0.0,1.0863,1.1066,1.1194,1.1194,1.1194,1.1194,1.1194,1.1194,1.0904,1.0117,1.0019,0.9324,0.0,0.0,0.0,0.0,0.8326,0.9122,0.992,1.0019,1.0019,1.0019,1.0019,0.962,0.8825,0.8825,0.8825,0.8825,0.8825,0.8825,0.8825,0.8825,0.8326,0.763,0.763,0.7132,0.6437,0.6437,0.6437,0.6437,0.6437,0.5432,0.4024,0.4024,0.3624,0.3022,0.2218,0.2318,0.2618,0.1811,0.1209,0.0605,-0.0202,-0.0404,-0.0404,-0.0404,-0.101,-0.1617,-0.1617,-0.1617,-0.1617,-0.1617,-0.2421,-0.3224,-0.3224,-0.4024,-0.4824,-0.4824,-0.4824,-0.4824,-0.4824,-0.4824,-0.5227,-0.6234,-0.5529,-0.5227,-0.6334,-0.7338,-0.8041,-0.8038,-0.8038,-0.8038,-0.8038,-0.9019,-0.9118,-0.8038,-0.8233,-0.8432,-0.8432,-0.9706,-1.0391,-1.0386,-1.1653,-1.2339,-1.2339,-1.263,-1.2727,0.8692,0.9597,0.0,1.1153,0.0,0.0,0.0,1.4062,0.0,0.0,1.4559,1.3626,1.222,0.0,0.0,1.1001,1.1066,1.1194,1.1194,1.1194,1.1194,1.1194,1.1194,1.1096,1.09,1.0314,0.0,0.0,0.0,0.0,0.0,0.8623,0.8924,0.9122,0.9122,0.9422,1.0019,0.9422,0.9616,1.0502,0.932,0.9122,0.962,0.8425,0.8528,0.962,0.8425,0.8127,0.8425,0.7829,0.7132,0.6437,0.6437,0.6437,0.6337,0.5934,0.5534,0.5031,0.473,0.3825,0.292,0.2619,0.2015,0.1209,0.0403,0.0101,-0.0202,-0.101,-0.1817,-0.242,-0.242,-0.3122,-0.3522,-0.2216,-0.2919,-0.3823,-0.3823,-0.4124,-0.4325,-0.4325,-0.4624,-0.4824,-0.4824,-0.5427,-0.5932,-0.5932,-0.6531,-0.7132,-0.7437,-0.7235,-0.7428,-0.8517,-0.8916,-0.941,-1.0194,-1.0293,-1.0293,-1.0293,-1.0583,-1.0194,-0.9217,-1.0096,-1.0685,-1.0685,-1.117,-1.156,-1.1755,-1.2145,-1.2829,-1.3709,-1.3806,-1.419,0.9103,1.0124,0.0,1.1867,1.251,1.307,1.3387,0.0,0.0,0.0,1.3611,1.3244,1.2156,1.1996,0.0,1.1115,1.1113,1.1194,1.1194,1.1194,1.1194,1.1194,1.1194,1.1096,1.0703,1.0314,0.0,0.0,0.0,0.0,0.0,0.8031,0.8428,0.8326,0.8722,0.9118,0.9513,0.9015,0.911,0.9604,0.8616,0.8421,0.8916,0.8326,0.8623,0.9422,0.8127,0.773,0.7925,0.7332,0.6634,0.5837,0.6037,0.5937,0.5734,0.5434,0.4933,0.4429,0.4128,0.3122,0.1913,0.1612,0.1008,0.0202,-0.0606,-0.1211,-0.1614,-0.2119,-0.3022,-0.3823,-0.3823,-0.4626,-0.5027,-0.3518,-0.4021,-0.4824,-0.4824,-0.5127,-0.5427,-0.5427,-0.5829,-0.6027,-0.6027,-0.6634,-0.7036,-0.7036,-0.7537,-0.8038,-0.8038,-0.8333,-0.8924,-0.9509,-0.9998,-1.0489,-1.117,-1.117,-1.1268,-1.1365,-1.2129,-1.2308,-1.1726,-1.2114,-1.2404,-1.2501,-1.3454,-1.4118,-1.4214,-1.4702,-1.5292,-1.6075,-1.6075,-1.6365,0.9644,1.0685,0.0,1.2555,1.3069,0.0,1.3221,1.3401,1.3385,1.2684,0.0,1.2204,1.1351,1.1047,1.0981,1.1165,1.1194,1.1194,1.1194,1.1194,1.1194,1.1194,1.11,1.0801,1.0117,0.992,0.0,0.0,0.0,0.0,0.0,0.6836,0.7836,0.7531,0.852,0.8913,0.8609,0.8609,0.8212,0.7223,0.7123,0.7123,0.7123,0.8124,0.8524,0.8425,0.7627,0.703,0.6631,0.6334,0.5634,0.4834,0.5334,0.5135,0.4732,0.4634,0.3827,0.2718,0.2619,0.1813,0.0605,-0.0202,-0.0404,-0.0707,-0.1515,-0.2422,-0.3224,-0.3324,-0.4124,-0.4924,-0.4924,-0.5729,-0.6334,-0.5327,-0.5125,-0.5125,-0.5125,-0.5829,-0.6537,-0.6537,-0.7338,-0.8038,-0.8038,-0.8038,-0.8038,-0.8137,-0.8137,-0.8134,-0.8233,-0.9118,-0.9801,-0.9899,-1.0779,-1.1365,-1.1463,-1.1556,-1.175,-1.2042,-1.3837,-1.507,-1.5266,-1.438,-1.3993,-1.4189,-1.6268,-1.7309,-1.7309,-1.8295,-1.888,-1.8964,-1.8964,-1.8964,0.9267,1.0181,0.0,0.0,1.3054,1.2979,1.2366,1.1848,1.1512,1.1536,1.2119,1.2389,1.138,1.1161,1.1146,1.1189,1.1194,1.1194,1.1194,1.1194,1.1194,1.1194,1.0609,1.0216,1.0019,0.0,0.0,0.0,0.0,0.0,0.6725,0.7126,0.7325,0.7322,0.7521,0.7621,0.7518,0.7518,0.7419,0.0,0.6526,0.6229,0.6229,0.6528,0.6229,0.5632,0.5434,0.5334,0.5233,0.5133,0.5035,0.4834,0.4935,0.4529,0.3823,0.3423,0.2618,0.1812,0.141,0.0605,-0.0202,-0.0303,-0.0808,-0.1515,-0.2521,-0.3022,-0.3425,-0.4225,-0.5227,-0.6032,-0.6032,-0.6836,-0.7637,-0.7335,-0.7335,-0.7335,-0.7335,-0.7537,-0.7637,-0.7637,-0.7839,-0.8038,-0.8038,-0.8038,-0.8333,-0.9118,-0.9217,-0.9608,-1.0391,-1.0681,-1.117,-1.195,-1.2242,-1.2829,-1.3908,-1.4644,-1.5203,-1.5393,-1.6612,-1.736,-1.7632,-1.7431,-1.7338,-1.7431,-1.8103,-1.8495,-1.8495,-1.8688,-1.9222,-1.9901,-1.9901,-2.0245,0.9085,0.0,0.0,1.2669,0.0,1.2616,1.189,1.1226,1.0773,1.0877,1.1433,1.177,1.1096,1.1096,1.1194,1.0998,1.0801,1.0605,1.0605,1.0306,0.9908,0.9706,0.9517,0.9221,0.8718,0.0,0.0,0.0,0.0,0.652,0.5329,0.6226,0.6623,0.6029,0.6526,0.6523,0.6029,0.6029,0.5829,0.5329,0.483,0.4632,0.4632,0.5233,0.5233,0.4834,0.4834,0.4634,0.4435,0.4734,0.4533,0.4033,0.3929,0.3423,0.2719,0.2115,0.131,0.0605,0.0303,-0.0303,-0.101,-0.101,-0.1615,-0.2421,-0.3022,-0.3925,-0.4828,-0.5429,-0.6331,-0.7135,-0.7135,-0.7537,-0.8038,-0.8038,-0.8038,-0.8038,-0.8038,-0.8038,-0.8038,-0.8038,-0.8038,-0.8038,-0.8038,-0.8432,-0.892,-0.9509,-0.9998,-1.0587,-1.117,-1.1658,-1.2334,-1.329,-1.3872,-1.4644,-1.5798,-1.6539,-1.7001,-1.7196,-1.8311,-1.9222,-1.9926,-2.0378,-2.0378,-1.9926,-2.1007,-2.1551,-2.1551,-2.1551,-2.1808,-2.223,-2.223,-2.264,0.8562,0.0,1.1066,1.2447,1.2512,0.0,1.1587,1.087,1.0334,1.0334,1.0726,1.0988,1.0502,1.0626,1.0649,1.0356,0.9895,0.9719,0.9821,0.9122,0.8524,0.8021,0.8223,0.7925,0.7123,0.0,0.0,0.0,0.0,0.5325,0.333,0.4929,0.5429,0.4533,0.5429,0.5429,0.4533,0.4533,0.4033,0.323,0.323,0.323,0.323,0.4133,0.4533,0.4533,0.4533,0.4234,0.3932,0.4334,0.3932,0.3027,0.2923,0.2318,0.1513,0.1008,0.0202,-0.0606,-0.0606,-0.101,-0.1617,-0.1818,-0.2521,-0.3224,-0.3626,-0.5029,-0.6437,-0.6637,-0.7434,-0.8233,-0.8233,-0.8432,-0.8528,-0.8528,-0.8528,-0.8432,-0.8038,-0.8038,-0.8038,-0.8038,-0.8137,-0.8333,-0.8531,-0.9316,-0.9899,-1.0096,-1.0877,-1.156,-1.1945,-1.2716,-1.3674,-1.4709,-1.5677,-1.6546,-1.7382,-1.8018,-1.838,-1.8572,-1.9951,-2.1123,-2.2073,-2.3153,-2.3317,-2.2494,-2.3856,-2.4498,-2.4498,-2.4573,-2.4734,-2.4914,-2.4988,-2.5368,0.0,0.0,1.0255,0.0,1.1379,1.1182,0.0,0.0,0.9397,0.0,1.0122,1.037,0.9235,0.9172,0.8987,0.8408,0.8234,0.8421,0.8924,0.8425,0.8124,0.8021,0.7027,0.6329,0.6129,0.0,0.0,0.0,0.3831,0.353,0.323,0.343,0.3531,0.343,0.3531,0.3531,0.343,0.343,0.3331,0.323,0.323,0.323,0.323,0.3331,0.343,0.343,0.343,0.3331,0.3331,0.3432,0.2925,0.2219,0.2927,0.1817,0.0,0.0605,-0.0101,-0.1415,-0.1415,-0.1516,-0.1717,-0.2722,-0.3123,-0.3525,-0.5432,-0.6134,-0.6637,-0.7537,-0.8528,-0.941,-0.941,-1.0096,-1.0783,-1.0783,-1.0783,-1.0293,-0.8432,-0.8038,-0.8038,-0.8038,-0.8726,-0.9706,-1.0587,-1.0881,-1.1268,-1.2145,-1.2436,-1.3108,-1.493,-1.5494,-1.6149,-1.7174,-1.7561,-1.784,-1.8211,-1.981,-2.0882,-2.1087,-2.2892,-2.3963,-2.4135,-2.5557,-2.6213,-2.6119,-2.5062,-2.4498,-2.4498,-2.5031,-2.5692,-2.6483,-2.7012,-2.774,0.6748,0.819,0.943,0.0,0.9872,0.9787,0.9558,0.0,0.8341,0.8424,0.8561,0.8556,0.8102,0.7907,0.7665,0.7289,0.696,0.6804,0.7093,0.652,0.6039,0.5744,0.5458,0.5072,0.0,0.0,0.0,0.0,0.3323,0.3128,0.3128,0.3128,0.3128,0.3128,0.3128,0.3128,0.3128,0.3128,0.3128,0.3128,0.3128,0.3128,0.3129,0.3164,0.3198,0.323,0.323,0.323,0.323,0.323,0.2725,0.2017,0.1916,0.0908,-0.0404,-0.0505,-0.101,-0.1617,-0.1617,-0.2019,-0.2622,-0.3022,-0.4026,-0.5131,-0.6134,-0.6836,-0.7534,-0.8623,-0.9217,-0.9706,-1.0391,-1.0881,-1.1077,-1.0685,-1.1356,-1.192,-1.1521,-1.0565,-0.9801,-0.9801,-1.0667,-1.1531,-1.192,-1.2973,-1.3831,-1.4321,-1.4905,-1.5677,-1.672,-1.7001,-1.7468,-1.8588,-1.9298,-1.9918,-2.0576,-2.1985,-2.3027,-2.3527,-2.4501,-2.5357,-2.6273,-2.693,-2.751,-2.8108,-2.7441,-2.7116,-2.7116,-2.7337,-2.7671,-2.8108,-2.8335,-2.89,0.0,0.0,0.7921,0.8073,0.8327,0.8548,0.0,0.0,0.7659,0.0,0.6936,0.6477,0.6444,0.6447,0.6301,0.593,0.5581,0.541,0.5506,0.4946,0.4379,0.3901,0.4095,0.4001,0.0,0.0,0.0,0.0,0.3144,0.3144,0.3144,0.3144,0.3144,0.3144,0.3144,0.3144,0.3144,0.3144,0.3144,0.3144,0.3144,0.3144,0.3146,0.3095,0.314,0.3185,0.3217,0.312,0.2907,0.292,0.2321,0.1311,0.0907,0.0202,-0.0707,-0.1111,-0.1415,-0.1617,-0.1617,-0.2321,-0.3224,-0.3524,-0.4828,-0.6437,-0.6736,-0.7534,-0.8531,-0.9414,-0.9998,-1.0583,-1.1365,-1.1755,-1.1853,-1.1272,-1.2318,-1.364,-1.41,-1.3064,-1.2022,-1.2313,-1.2973,-1.3532,-1.3825,-1.5158,-1.6202,-1.6202,-1.6886,-1.7662,-1.8126,-1.838,-1.9107,-2.0395,-2.1425,-2.2387,-2.3298,-2.4426,-2.5273,-2.5742,-2.6157,-2.6977,-2.8263,-2.85,-2.8983,-2.9884,-3.0037,-2.9897,-2.9369,-2.9743,-2.9872,-2.9884,-3.0037,-3.0355,0.0,0.4687,0.0,0.6184,0.6933,0.0,0.0,0.0,0.0,0.6675,0.5538,0.4486,0.3821,0.4322,0.462,0.4075,0.395,0.4186,0.4666,0.4282,0.3901,0.3901,0.3428,0.3144,0.0,0.0,0.0,0.0,0.3144,0.3144,0.3144,0.3144,0.3144,0.3144,0.3144,0.3144,0.3144,0.3144,0.3144,0.3144,0.3144,0.3144,0.3144,0.3053,0.3056,0.3065,0.318,0.2697,0.1966,0.2002,0.111,-0.0202,0.0504,-0.0202,-0.1415,-0.0707,-0.0909,-0.1617,-0.1617,-0.2321,-0.3324,-0.4423,-0.5529,-0.6637,-0.764,-0.8627,-0.9509,-0.9608,-1.0974,-1.2533,-1.263,-1.3414,-1.41,-1.41,-1.4854,-1.5393,-1.4374,-1.4076,-1.4368,-1.524,-1.553,-1.5826,-1.6908,-1.7375,-1.7554,-1.7554,-1.7848,-1.8319,-1.9255,-2.0378,-2.1664,-2.3335,-2.4459,-2.5471,-2.6102,-2.6966,-2.7556,-2.7556,-2.8402,-2.9279,-3.0075,-3.0706,-3.1362,-3.2123,-3.2678,-3.2019,-3.0151,-3.1469,-3.2123,-3.2123,-3.2749,-3.3003,0.0,0.0,0.0,0.4398,0.5266,0.6005,0.5737,0.5899,0.5871,0.5121,0.4353,0.3533,0.2547,0.2961,0.3392,0.3261,0.3287,0.3302,0.3487,0.3394,0.3302,0.3302,0.3119,0.2937,0.0,0.0,0.0,0.0,0.0,0.2937,0.2937,0.2937,0.2937,0.2937,0.2937,0.2937,0.2937,0.2937,0.2937,0.2937,0.2937,0.2937,0.2937,0.251,0.2321,0.2206,0.1914,0.1841,0.1925,0.1455,0.0681,-0.0292,0.0,-0.0584,-0.1461,-0.1169,-0.1765,-0.2673,-0.2673,-0.3788,-0.5331,-0.5732,-0.6534,-0.7637,-0.8722,-0.9316,-0.9899,-1.1165,-1.2145,-1.2829,-1.3516,-1.4004,-1.4675,-1.5886,-1.7008,-1.784,-1.8264,-1.7323,-1.6671,-1.7323,-1.7972,-1.8708,-1.9892,-2.0631,-2.1275,-2.1603,-2.1692,-2.2045,-2.2998,-2.3421,-2.4183,-2.5355,-2.6289,-2.7186,-2.7905,-2.8766,-2.9655,-3.0602,-3.0939,-3.1422,-3.2092,-3.2335,-3.2806,-3.3516,-3.4225,-3.3751,-3.2092,-3.3031,-3.3323,-3.289,-3.3559,-3.3656,0.2973,0.0,0.0,0.0,0.0,0.4584,0.4345,0.0,0.4798,0.4059,0.3665,0.3062,0.1884,0.208,0.2378,0.2186,0.2197,0.2284,0.2461,0.2461,0.2549,0.2813,0.2831,0.0,0.0,0.0,0.0,0.0,0.0,0.0,0.2875,0.2875,0.2875,0.2875,0.2875,0.2875,0.2875,0.2875,0.2784,0.2513,0.2513,0.2424,0.2155,0.173,0.1455,0.1438,0.0739,0.075,0.1132,0.0665,0.0,-0.0668,-0.0668,-0.1049,-0.1526,-0.1907,-0.2497,-0.3202,-0.3491,-0.4785,-0.6314,-0.6314,-0.703,-0.8157,-0.9225,-0.9853,-1.0485,-1.2242,-1.2926,-1.3414,-1.41,-1.458,-1.5324,-1.7475,-1.8503,-1.9347,-2.0546,-1.9795,-1.9031,-1.9645,-2.0288,-2.1105,-2.2133,-2.2969,-2.3521,-2.3846,-2.417,-2.4586,-2.5157,-2.5659,-2.6371,-2.7462,-2.8373,-2.9245,-3.0237,-3.0839,-3.1642,-3.2508,-3.2579,-3.3003,-3.3862,-3.393,-3.4307,-3.525,-3.5728,-3.5552,-3.4574,-3.507,-3.507,-3.464,-3.5135,-3.525,0.0,0.0,0.0,0.0,0.0,0.0,0.4089,0.0,0.4347,0.3577,0.3489,0.3167,0.1781,0.1563,0.135,0.0831,0.0755,0.1008,0.1597,0.1681,0.1934,0.2608,0.2744,0.0,0.0,0.0,0.0,0.0,0.2868,0.2868,0.2868,0.2871,0.2872,0.2873,0.2875,0.2875,0.2873,0.2873,0.2513,0.1794,0.1794,0.1436,0.0718,0.0718,0.0628,0.0628,-0.0179,-0.0454,-0.0463,-0.0378,-0.0761,-0.1523,-0.1523,-0.1523,-0.1618,-0.2663,-0.3044,-0.3235,-0.4084,-0.5124,-0.607,-0.607,-0.6822,-0.7994,-0.904,-1.0219,-1.1448,-1.2425,-1.3499,-1.4286,-1.4292,-1.5045,-1.6351,-1.868,-1.943,-1.9894,-2.0898,-2.1078,-2.1347,-2.2217,-2.2482,-2.2824,-2.375,-2.4114,-2.4211,-2.4211,-2.4935,-2.5492,-2.5492,-2.6896,-2.8318,-2.9732,-3.0729,-3.1756,-3.3143,-3.3213,-3.3283,-3.3283,-3.3283,-3.393,-3.5295,-3.5359,-3.5995,-3.7413,-3.7472,-3.7472,-3.7472,-3.7472,-3.7429,-3.7413,-3.7573,-3.779,0.2249,0.0,0.0,0.0,0.0,0.0,0.0,0.0,0.0,0.2144,0.206,0.1877,0.1006,0.0808,0.0523,-0.0455,0.0161,0.084,0.1008,0.1008,0.126,0.1934,0.1606,0.0,0.0,0.0,0.0,0.0,0.1798,0.2056,0.2056,0.2523,0.2562,0.2153,0.2604,0.2604,0.2154,0.2064,0.1974,0.1794,0.1256,0.0897,0.0718,0.0179,-0.009,-0.0179,-0.1613,-0.1798,-0.1086,-0.1093,-0.1186,-0.146,-0.219,-0.2553,-0.2644,-0.355,-0.4406,-0.5108,-0.5386,-0.6188,-0.712,-0.712,-0.7799,-0.8773,-0.9149,-1.0403,-1.1791,-1.2441,-1.3254,-1.4057,-1.425,-1.5406,-1.6965,-1.87,-2.0155,-2.1612,-2.2979,-2.3347,-2.3444,-2.3173,-2.4094,-2.5189,-2.6284,-2.686,-2.7348,-2.7671,-2.7912,-2.8231,-2.8639,-2.9628,-3.053,-3.1362,-3.2177,-3.2989,-3.3891,-3.447,-3.4919,-3.5484,-3.5963,-3.6384,-3.6783,-3.6843,-3.7408,-3.8603,-3.8603,-3.9036,-3.9834,-3.8635,-3.806,-3.806,-3.871,-3.9013,0.2341,0.0,0.0,0.0,0.0,0.0,0.1413,0.1763,0.0,0.0,0.1696,0.1506,0.0606,0.048,0.014,-0.1,-0.0527,0.0079,0.0321,0.0325,0.0572,0.1145,0.0988,0.0,0.0,0.1003,0.084,0.084,0.1092,0.1344,0.1344,0.1702,0.181,0.1397,0.1763,0.186,0.1416,0.1339,0.1166,0.0897,0.0448,0.009,-0.0179,-0.0628,-0.1076,-0.1524,-0.2509,-0.2777,-0.2596,-0.2151,-0.1793,-0.1524,-0.251,-0.2867,-0.3045,-0.438,-0.531,-0.5907,-0.6271,-0.6869,-0.7495,-0.8299,-0.8976,-0.967,-1.1026,-1.2185,-1.3126,-1.3842,-1.4447,-1.5068,-1.6075,-1.7154,-1.836,-2.0138,-2.1603,-2.2766,-2.378,-2.4723,-2.5316,-2.4872,-2.5546,-2.6625,-2.7947,-2.8438,-2.8755,-2.9081,-2.9316,-2.9704,-3.038,-3.1119,-3.1988,-3.2904,-3.3408,-3.4095,-3.5109,-3.5533,-3.6056,-3.6768,-3.7191,-3.7632,-3.806,-3.8117,-3.8657,-3.9783,-3.9851,-4.0217,-4.0908,-3.9868,-3.9443,-3.9564,-4.0014,-4.0257,0.0,0.0,0.0,0.0,0.0,0.0,0.1561,0.1579,0.1596,0.0,0.1767,0.1524,0.0439,0.0254,-0.0065,-0.1091,-0.1248,-0.0995,-0.0449,-0.0384,-0.0156,0.0467,0.0476,0.0,0.0564,0.0574,0.0582,0.0584,0.0667,0.0751,0.0753,0.0753,0.0754,0.0672,0.0771,0.0779,0.0692,0.0617,0.0267,-0.0356,-0.0445,-0.0803,-0.143,-0.1519,-0.2146,-0.3044,-0.331,-0.3844,-0.455,-0.3842,-0.2774,-0.1792,-0.2688,-0.3135,-0.3401,-0.5184,-0.5897,-0.5985,-0.6786,-0.7139,-0.7397,-0.9022,-0.992,-1.0686,-1.3138,-1.4281,-1.4953,-1.5994,-1.6309,-1.675,-1.8635,-1.9335,-1.9965,-2.2155,-2.3211,-2.3806,-2.4114,-2.5724,-2.7058,-2.7139,-2.7139,-2.7614,-2.9069,-2.9316,-2.9394,-2.9524,-2.9935,-3.0545,-3.1328,-3.1988,-3.2847,-3.4177,-3.438,-3.4978,-3.6305,-3.6492,-3.6784,-3.7488,-3.7605,-3.8076,-3.9143,-3.9196,-3.9732,-4.0896,-4.1059,-4.1206,-4.134,-4.1133,-4.1133,-4.1393,-4.1437,-4.1525,0.0,0.0,0.0,0.0,0.0,0.0,0.0983,0.0994,0.1057,0.0,0.0753,0.0478,-0.0494,-0.0693,-0.108,-0.2065,-0.2009,-0.1659,-0.1094,-0.1032,-0.0814,-0.0148,-0.052,0.0,-0.0153,-0.054,-0.0858,-0.0875,-0.0398,0.016,0.0653,0.0735,0.0494,-0.0084,0.0506,0.0507,-0.0085,-0.0085,-0.017,-0.034,-0.0852,-0.1205,-0.1399,-0.2184,-0.3078,-0.4096,-0.5604,-0.6392,-0.664,-0.7179,-0.5957,-0.3755,-0.3933,-0.4469,-0.5272,-0.6428,-0.6786,-0.6874,-0.7051,-0.7139,-0.7139,-0.757,-0.9231,-1.0987,-1.0799,-1.2906,-1.5445,-1.6367,-1.6804,-1.7106,-1.8118,-1.9333,-2.0631,-2.1892,-2.3784,-2.5595,-2.6558,-2.7637,-2.8621,-2.9238,-2.9394,-2.9691,-3.0657,-3.0696,-3.1009,-3.2191,-3.1988,-3.1928,-3.2706,-3.3408,-3.3959,-3.4245,-3.4905,-3.5574,-3.6305,-3.689,-3.7488,-3.8108,-3.8606,-3.9206,-3.9783,-3.9919,-4.0446,-4.1516,-4.2266,-4.2736,-4.2867,-4.2126,-4.181,-4.1853,-4.236,-4.2577,0.0,0.0,0.0,0.154,0.0,0.0,0.0,0.1081,0.0963,0.08,0.0645,0.0349,-0.0421,-0.0808,-0.1267,-0.2052,-0.1996,-0.1911,-0.1834,-0.145,-0.1001,-0.0715,-0.0929,0.0,-0.0728,-0.1032,-0.1202,-0.1232,-0.0926,-0.0623,-0.0319,-0.0319,-0.0482,-0.0813,-0.0411,-0.0414,-0.0827,-0.0836,-0.0757,-0.0841,-0.2013,-0.2528,-0.2639,-0.399,-0.5111,-0.6014,-0.7128,-0.7853,-0.8283,-0.8463,-0.7979,-0.7017,-0.6051,-0.6231,-0.7115,-0.7658,-0.8356,-0.9209,-0.9209,-0.9461,-0.9966,-1.0898,-1.2178,-1.3374,-1.3774,-1.5238,-1.6828,-1.7244,-1.7953,-1.8841,-1.9705,-2.1063,-2.2471,-2.3499,-2.5121,-2.6553,-2.7284,-2.8337,-2.9406,-2.9883,-3.0266,-3.0722,-3.1489,-3.1576,-3.1955,-3.3003,-3.2861,-3.2932,-3.3616,-3.4109,-3.4461,-3.4839,-3.5509,-3.6211,-3.6829,-3.7472,-3.8206,-3.9086,-3.9454,-4.002,-4.0797,-4.1052,-4.1679,-4.2737,-4.3211,-4.349,-4.3609,-4.3158,-4.296,-4.2941,-4.3265,-4.3406,0.0,0.0,0.0,0.0,0.0,0.1661,0.0,0.0,0.0,0.0958,0.0661,0.0,0.0,0.0,0.0,0.0,0.0,0.0,0.0,-0.1879,0.0,-0.1355,0.0,0.0,-0.125,-0.1277,-0.131,-0.12,-0.1267,-0.128,-0.1247,-0.1249,-0.1251,-0.1335,-0.1281,-0.1294,-0.1294,-0.1318,-0.1331,-0.1331,-0.2973,-0.3796,-0.3894,-0.5855,-0.7341,-0.8204,-0.8774,-0.9526,-1.0393,-0.987,-1.0137,-1.0626,-0.8313,-0.7983,-0.8769,-0.8794,-0.974,-1.1021,-1.1273,-1.177,-1.2608,-1.4212,-1.5058,-1.5651,-1.744,-1.804,-1.8112,-1.8496,-1.9395,-2.0605,-2.1916,-2.309,-2.4209,-2.5272,-2.6335,-2.7138,-2.7617,-2.8898,-3.0062,-3.0377,-3.0992,-3.1663,-3.2015,-3.2074,-3.242,-3.3463,-3.3478,-3.3685,-3.4566,-3.4581,-3.4824,-3.5604,-3.6085,-3.6768,-3.7632,-3.8149,-3.8924,-4.0086,-4.0186,-4.0685,-4.1735,-4.2213,-4.2887,-4.3818,-4.3924,-4.4016,-4.4046,-4.4146,-4.4117,-4.3955,-4.3955,-4.3967,0.0,0.0,0.0,0.0,0.1738,0.0,0.0,0.0,0.0873,0.0376,0.0,0.0,0.0,0.0,0.0,0.0,0.0,0.0,-0.2841,-0.2458,-0.2196,-0.2322,-0.154,0.0,0.0,-0.1831,-0.1596,-0.124,-0.1542,-0.1552,-0.1213,-0.1217,-0.1229,-0.1335,-0.1261,-0.1262,-0.1262,-0.1266,-0.1268,-0.1346,-0.2914,-0.373,-0.3881,-0.7058,-0.9053,-1.0113,-1.1688,-1.2857,-1.3773,-1.3643,-1.3888,-1.3811,-0.989,-0.8948,-0.9744,-0.9749,-0.9836,-1.0173,-1.1021,-1.1359,-1.1605,-1.2608,-1.3961,-1.5651,-1.744,-1.804,-1.8416,-2.0256,-2.0864,-2.14,-2.335,-2.397,-2.4376,-2.5488,-2.6493,-2.7494,-2.8737,-3.0179,-3.1357,-3.1708,-3.2778,-3.3254,-3.2277,-3.2074,-3.2749,-3.4758,-3.4537,-3.4647,-3.5961,-3.5703,-3.5589,-3.6258,-3.6368,-3.71,-3.875,-3.8983,-3.9527,-4.0642,-4.0949,-4.134,-4.1955,-4.2849,-4.352,-4.3881,-4.4346,-4.4606,-4.4606,-4.5033,-4.4858,-4.4186,-4.4186,-4.4215,0.0,0.0,0.0,0.0,0.0,0.0,0.1357,0.0,0.0564,0.0,0.0,0.0,0.0,0.0,0.0,0.0,-0.2622,0.0,0.0,0.0,-0.2103,0.0,0.0,0.0,0.0,0.0,0.0,0.0,-0.1507,-0.1595,-0.1154,-0.1176,-0.12,-0.123,-0.1248,-0.1726,-0.2659,-0.3189,-0.3874,-0.4865,-0.6908,-0.7925,-0.8075,-1.0477,-1.179,-1.2214,-1.3099,-1.3662,-1.4081,-1.4207,-1.4792,-1.5405,-1.3573,-1.3492,-1.4061,-1.2207,-1.3024,-1.4896,-1.3981,-1.4864,-1.6589,-1.789,-1.8861,-1.9627,-2.0544,-2.0795,-2.1014,-2.2306,-2.3003,-2.3693,-2.5281,-2.6046,-2.6569,-2.7452,-2.8197,-2.8878,-2.9592,-3.0473,-3.1309,-3.1957,-3.2848,-3.3442,-3.335,-3.3965,-3.4946,-3.6307,-3.6276,-3.6291,-3.689,-3.6784,-3.6723,-3.6951,-3.7541,-3.8253,-3.9036,-3.9732,-4.0477,-4.1437,-4.2154,-4.2759,-4.3306,-4.3893,-4.4382,-4.4762,-4.4992,-4.5118,-4.5118,-4.5283,-4.5264,-4.5023,-4.4931,-4.4931,0.1611,0.0,0.0,0.0,0.0,0.0,0.0,0.0,0.0,0.0,0.0,0.0,0.0,0.0,0.0,0.0,0.0,-0.2581,0.0,0.0,0.0,0.0,0.0,0.0,0.0,0.0,0.0,0.0,0.0,-0.1603,-0.1102,-0.1129,-0.1164,-0.1211,-0.1233,-0.2177,-0.4039,-0.4637,-0.5838,-0.7722,-0.9972,-1.1028,-1.1034,-1.2961,-1.4019,-1.4371,-1.4767,-1.5081,-1.5445,-1.5651,-1.636,-1.7406,-1.7406,-1.823,-1.9032,-1.5594,-1.6364,-1.8786,-1.7404,-1.8523,-2.0881,-2.2136,-2.2498,-2.2572,-2.272,-2.2794,-2.3003,-2.389,-2.4637,-2.5456,-2.685,-2.7735,-2.8427,-2.9129,-2.9589,-3.0023,-3.0659,-3.1194,-3.1881,-3.2874,-3.3692,-3.4562,-3.5292,-3.586,-3.6476,-3.7247,-3.7413,-3.7488,-3.7648,-3.7472,-3.7531,-3.7847,-3.8603,-3.9285,-3.9699,-4.0621,-4.1508,-4.2447,-4.3245,-4.3918,-4.4444,-4.4688,-4.5011,-4.54,-4.5438,-4.5456,-4.5456,-4.5493,-4.5563,-4.5645,-4.551,-4.5475,0.0,0.0,0.0,0.1519,0.0,0.0,0.0,0.0,0.0211,0.0,0.0,0.0,0.0,0.0,0.0,0.0,0.0,0.0,0.0,0.0,0.0,0.0,0.0,0.0,0.0,0.0,0.0,0.0,-0.1937,0.0,-0.1134,-0.1078,-0.1119,-0.1209,-0.1213,-0.2361,-0.4857,-0.4857,-0.6135,-0.8454,-1.0188,-1.1028,-1.1101,-1.3454,-1.5271,-1.6468,-1.7151,-1.818,-1.9302,-1.9323,-1.9865,-2.0731,-2.0731,-2.2213,-2.3835,-2.004,-1.9004,-1.9668,-2.0426,-2.1343,-2.2168,-2.2434,-2.2498,-2.2572,-2.272,-2.2794,-2.3099,-2.4495,-2.5387,-2.6189,-2.7604,-2.8478,-2.9129,-2.9827,-2.9964,-3.048,-3.2158,-3.2982,-3.3748,-3.4998,-3.6191,-3.7417,-3.8387,-3.7247,-3.6445,-3.7121,-3.7291,-3.7605,-3.8165,-3.7764,-3.779,-3.8929,-3.909,-3.975,-4.1276,-4.1743,-4.2487,-4.3675,-4.3955,-4.4327,-4.4849,-4.5074,-4.5243,-4.54,-4.5528,-4.5596,-4.5596,-4.5723,-4.58,-4.58,-4.5661,-4.5661,0.0,0.0,-0.1601,0.0056,0.0,0.0,0.0,0.0,0.0,0.0,0.0,0.0,0.0,0.0,0.0,0.0,0.0,0.0,0.0,0.0,0.0,0.0,0.0,0.0,0.0,0.0,0.0,0.0,-0.1597,0.0,0.0,-0.1026,-0.1666,-0.3115,-0.4237,-0.6432,-0.9751,-1.1327,-1.3057,-1.5024,-1.6082,-1.6615,-1.6615,-1.7475,-1.8292,-1.9078,-1.892,-1.9544,-2.066,-2.0273,-2.0997,-2.2359,-2.2359,-2.3611,-2.501,-2.2024,-2.1685,-2.2868,-2.361,-2.4378,-2.5163,-2.6269,-2.6388,-2.6071,-2.6332,-2.6468,-2.6671,-2.767,-2.8407,-2.9212,-3.0586,-3.0998,-3.1315,-3.1982,-3.2109,-3.2275,-3.287,-3.3366,-3.4002,-3.4864,-3.5958,-3.7,-3.7776,-3.7786,-3.8103,-3.9395,-3.9301,-3.9176,-3.9404,-3.9543,-3.9681,-3.9715,-4.0474,-4.1216,-4.1768,-4.2739,-4.3517,-4.3893,-4.4436,-4.4881,-4.5165,-4.5362,-4.5526,-4.5661,-4.5808,-4.5854,-4.5854,-4.5949,-4.5988,-4.5988,-4.5949,-4.5883,-0.1312,-0.2273,0.0,-0.1159,-0.1361,0.0,0.0253,0.0,0.0,0.0,0.0,0.0,0.0,0.0,0.0,0.0,0.0,0.0,0.0,-0.2511,0.0,0.0,0.0,0.0,0.0,0.0,-0.2262,-0.1424,-0.1588,0.0,0.0,0.0,-0.2178,-0.4702,-0.5827,-0.8584,-1.3186,-1.4781,-1.6618,-1.8726,-1.9249,-1.9488,-1.9488,-1.9488,-2.0303,-2.1632,-2.082,-2.1765,-2.3779,-2.2988,-2.3423,-2.4682,-2.4682,-2.5521,-2.6481,-2.4167,-2.4284,-2.5618,-2.6253,-2.6755,-2.7354,-2.8478,-2.8597,-2.8274,-2.8661,-2.8712,-2.8903,-2.9614,-3.0257,-3.1013,-3.2043,-3.2454,-3.264,-3.313,-3.3395,-3.3689,-3.4056,-3.4568,-3.5177,-3.5983,-3.662,-3.7255,-3.8086,-3.8338,-3.8756,-3.9784,-3.9628,-3.9538,-3.981,-4.0151,-4.0474,-4.0698,-4.149,-4.2208,-4.2681,-4.3531,-4.4146,-4.4373,-4.4905,-4.5265,-4.5399,-4.5577,-4.5737,-4.588,-4.5964,-4.6017,-4.6036,-4.6076,-4.6098,-4.6098,-4.6105,-4.6033]},{"header":{"parameterUnit":"m.s-1","parameterCategory":1,"la1":30.6,"la2":29.2853,"lo1":-89.7004,"lo2":-87.6739,"dy":0.0162,"dx":0.0183,"nx":112,"ny":82,"refTime":"2024-09-13T18:00:00:Z","depth":0,"parameterNumber":3,"parameterNumberName":"V-component_of_WINDS"},"data":[0.0,0.0,0.0,0.0,0.0,0.0,0.0,0.0,0.0,0.0,0.0,0.0,0.0,0.0,0.0,0.0,0.0,0.0,0.0,0.0,0.0,0.0,0.0,0.0,0.0,0.0,0.0,0.0,0.0,0.0,0.0,0.0,0.0,0.0,0.0,0.0,0.0,0.0,0.0,0.0,0.0,0.0,0.0,0.0,0.0,0.0,0.0,0.0,0.0,0.0,0.0,0.0,0.0,0.0,0.0,0.0,0.0,0.0,0.0,0.0,0.0,0.0,0.0,0.0,0.0,0.0,0.0,0.0,0.0,0.0,0.0,0.0,0.0,0.0,0.0,0.0,0.0,0.0,0.0,0.0,0.0,0.0,0.0,0.0,0.0,0.0,0.0,0.0,0.0,0.0,2.184,2.3733,2.6611,2.8181,2.7596,2.7349,2.6078,2.337,0.0,0.0,0.0,0.0,0.0,0.0,0.0,0.0,0.0,0.0,0.0,0.0,0.0,0.0,0.0,0.0,0.0,0.0,0.0,0.0,0.0,0.0,0.0,0.0,0.0,0.0,0.0,0.0,0.0,0.0,0.0,0.0,0.0,0.0,0.0,0.0,0.0,0.0,0.0,0.0,0.0,0.0,0.0,0.0,0.0,0.0,0.0,0.0,0.0,0.0,0.0,0.0,0.0,0.0,0.0,0.0,0.0,0.0,0.0,0.0,0.0,0.0,0.0,0.0,0.0,0.0,0.0,0.0,0.0,0.0,0.0,0.0,0.0,0.0,0.0,0.0,0.0,0.0,0.0,0.0,0.0,0.0,0.0,0.0,0.0,0.0,0.0,0.0,0.0,0.0,0.0,0.0,0.0,0.0,0.0,0.0,0.0,0.0,0.0,0.0,0.0,0.0,0.0,0.0,2.2093,2.6318,2.775,2.8365,2.8273,2.7196,2.6084,2.5051,0.0,0.0,0.0,0.0,0.0,0.0,0.0,0.0,0.0,0.0,0.0,0.0,0.0,0.0,0.0,0.0,0.0,0.0,0.0,0.0,0.0,0.0,0.0,0.0,0.0,0.0,0.0,0.0,0.0,0.0,0.0,0.0,0.0,0.0,0.0,0.0,0.0,0.0,0.0,0.0,0.0,0.0,0.0,0.0,0.0,0.0,0.0,0.0,0.0,0.0,0.0,0.0,0.0,0.0,0.0,0.0,0.0,0.0,0.0,0.0,0.0,0.0,0.0,0.0,0.0,0.0,0.0,0.0,0.0,0.0,0.0,0.0,0.0,0.0,0.0,0.0,0.0,0.0,0.0,0.0,0.0,0.0,0.0,0.0,0.0,0.0,0.0,0.0,0.0,0.0,0.0,0.0,0.0,0.0,0.0,0.0,0.0,0.0,0.0,0.0,0.0,0.0,0.0,2.1563,2.3456,2.7503,2.8227,2.8411,2.8411,2.7165,2.5913,2.4826,2.1343,0.0,0.0,0.0,0.0,0.0,0.0,0.0,0.0,0.0,0.0,0.0,0.0,0.0,0.0,0.0,0.0,0.0,0.0,0.0,0.0,0.0,0.0,0.0,0.0,0.0,0.0,0.0,0.0,0.0,0.0,0.0,0.0,0.0,0.0,0.0,0.0,0.0,0.0,0.0,0.0,0.0,0.0,0.0,0.0,0.0,0.0,0.0,0.0,0.0,0.0,0.0,0.0,0.0,0.0,0.0,0.0,0.0,0.0,0.0,0.0,0.0,0.0,0.0,0.0,0.0,0.0,0.0,0.0,0.0,0.0,0.0,0.0,0.0,0.0,0.0,0.0,0.0,0.0,0.0,0.0,0.0,0.0,0.0,0.0,0.0,0.0,0.0,0.0,0.0,0.0,0.0,0.0,0.0,0.0,0.0,0.0,0.0,0.0,0.0,0.0,0.0,0.0,2.3948,2.5149,2.8088,2.8411,2.8411,2.8411,2.6857,2.543,2.4287,2.0574,0.0,0.0,0.0,0.0,0.0,0.0,0.0,0.0,0.0,0.0,0.0,0.0,0.0,0.0,0.0,0.0,0.0,0.0,0.0,0.0,0.0,0.0,0.0,0.0,0.0,0.0,0.0,0.0,0.0,0.0,0.0,0.0,0.0,0.0,0.0,0.0,0.0,0.0,0.0,0.0,0.0,0.0,0.0,0.0,0.0,0.0,0.0,0.0,0.0,0.0,0.0,0.0,0.0,0.0,0.0,0.0,0.0,0.0,0.0,0.0,0.0,0.0,0.0,0.0,0.0,0.0,0.0,0.0,0.0,0.0,0.0,0.0,0.0,0.0,0.0,0.0,0.0,0.0,0.0,0.0,0.0,0.0,0.0,0.0,0.0,0.0,0.0,0.0,0.0,0.0,0.0,0.0,0.0,0.0,0.0,0.0,0.0,0.0,0.0,0.0,0.0,0.0,2.4625,2.6749,2.8242,2.8411,2.8411,2.8411,2.598,2.4387,2.428,1.9661,0.0,0.0,0.0,0.0,0.0,0.0,0.0,0.0,0.0,0.0,0.0,0.0,0.0,0.0,0.0,0.0,0.0,0.0,0.0,0.0,0.0,0.0,0.0,0.0,0.0,0.0,0.0,0.0,0.0,0.0,0.0,0.0,0.0,0.0,0.0,0.0,0.0,0.0,0.0,0.0,0.0,0.0,0.0,0.0,0.0,0.0,0.0,0.0,0.0,0.0,0.0,0.0,0.0,0.0,0.0,0.0,0.0,0.0,0.0,0.0,0.0,0.0,0.0,0.0,0.0,0.0,0.0,0.0,0.0,0.0,0.0,0.0,0.0,0.0,0.0,0.0,0.0,0.0,0.0,0.0,0.0,0.0,0.0,0.0,0.0,0.0,0.0,0.0,0.0,0.0,0.0,0.0,0.0,0.0,0.0,0.0,0.0,0.0,0.0,0.0,0.0,0.0,2.3933,2.5949,0.0,2.8411,2.8411,2.8411,2.6688,2.5041,2.3683,0.0,0.0,0.0,0.0,0.0,0.0,0.0,0.0,0.0,0.0,0.0,0.0,0.0,0.0,0.0,0.0,0.0,0.0,0.0,0.0,0.0,0.0,0.0,0.0,0.0,0.0,0.0,0.0,0.0,0.0,0.0,0.0,0.0,0.0,0.0,0.0,0.0,0.0,0.0,0.0,0.0,0.0,0.0,0.0,0.0,0.0,0.0,0.0,0.0,0.0,0.0,0.0,0.0,0.0,0.0,0.0,0.0,0.0,0.0,0.0,0.0,0.0,0.0,0.0,0.0,0.0,0.0,0.0,0.0,0.0,0.0,0.0,0.0,0.0,0.0,0.0,0.0,0.0,0.0,0.0,0.0,0.0,0.0,0.0,0.0,0.0,0.0,0.0,0.0,0.0,0.0,0.0,0.0,0.0,0.0,0.0,0.0,0.0,0.0,0.0,0.0,0.0,2.1824,2.384,2.587,0.0,2.8621,2.8575,2.8482,2.6839,2.4989,2.3151,0.0,0.0,0.0,0.0,0.0,0.0,0.0,0.0,0.0,0.0,0.0,0.0,0.0,0.0,0.0,0.0,0.0,0.0,0.0,0.0,0.0,0.0,0.0,0.0,0.0,0.0,0.0,0.0,0.0,0.0,0.0,0.0,0.0,0.0,0.0,0.0,0.0,0.0,0.0,0.0,0.0,0.0,0.0,0.0,0.0,0.0,0.0,0.0,0.0,0.0,0.0,0.0,0.0,0.0,0.0,0.0,0.0,0.0,0.0,0.0,0.0,0.0,0.0,0.0,0.0,0.0,0.0,0.0,0.0,0.0,0.0,0.0,0.0,0.0,0.0,0.0,0.0,0.0,0.0,0.0,0.0,0.0,0.0,0.0,0.0,0.0,0.0,0.0,0.0,0.0,0.0,0.0,0.0,0.0,0.0,0.0,0.0,0.0,0.0,0.0,0.0,0.0,2.1947,2.4656,2.7024,2.8886,2.9074,2.8971,2.8705,2.614,2.399,0.0,0.0,0.0,0.0,0.0,0.0,0.0,0.0,0.0,0.0,0.0,0.0,0.0,0.0,0.0,0.0,0.0,0.0,0.0,0.0,0.0,0.0,0.0,0.0,0.0,0.0,0.0,0.0,0.0,0.0,0.0,0.0,0.0,0.0,0.0,0.0,0.0,0.0,0.0,0.0,0.0,0.0,0.0,0.0,0.0,0.0,0.0,0.0,0.0,0.0,0.0,0.0,0.0,0.0,0.0,0.0,0.0,0.0,0.0,0.0,0.0,0.0,0.0,0.0,0.0,0.0,0.0,0.0,0.0,0.0,0.0,0.0,0.0,0.0,0.0,0.0,0.0,0.0,0.0,0.0,0.0,0.0,0.0,0.0,0.0,0.0,0.0,0.0,0.0,0.0,0.0,0.0,0.0,0.0,0.0,0.0,0.0,0.0,0.0,0.0,0.0,0.0,0.0,2.1947,2.4823,2.7174,2.867,2.8967,2.8867,2.8271,2.6727,2.4867,2.2704,0.0,0.0,0.0,0.0,0.0,0.0,0.0,0.0,0.0,0.0,0.0,0.0,0.0,0.0,0.0,0.0,0.0,0.0,0.0,0.0,0.0,0.0,0.0,0.0,0.0,0.0,0.0,0.0,0.0,0.0,0.0,0.0,0.0,0.0,0.0,0.0,0.0,0.0,0.0,0.0,0.0,0.0,0.0,0.0,0.0,0.0,0.0,0.0,0.0,0.0,0.0,0.0,0.0,0.0,0.0,0.0,0.0,0.0,0.0,0.0,0.0,0.0,0.0,0.0,0.0,0.0,0.0,0.0,0.0,0.0,0.0,0.0,0.0,0.0,0.0,0.0,0.0,0.0,0.0,0.0,0.0,0.0,0.0,0.0,0.0,0.0,0.0,0.0,0.0,0.0,0.0,0.0,0.0,0.0,0.0,0.0,0.0,0.0,0.0,0.0,0.0,0.0,2.2096,2.4947,2.7353,2.8978,2.9182,2.8876,2.8073,2.7114,2.5447,2.2833,0.0,0.0,0.0,0.0,0.0,0.0,0.0,0.0,0.0,0.0,0.0,0.0,0.0,0.0,0.0,0.0,0.0,0.0,0.0,0.0,0.0,0.0,0.0,0.0,0.0,0.0,0.0,0.0,0.0,0.0,0.0,0.0,0.0,0.0,0.0,0.0,0.0,0.0,0.0,0.0,0.0,0.0,0.0,0.0,0.0,0.0,0.0,0.0,0.0,0.0,0.0,0.0,0.0,0.0,0.0,0.0,0.0,0.0,0.0,0.0,0.0,0.0,0.0,0.0,0.0,0.0,0.0,0.0,0.0,0.0,0.0,0.0,0.0,0.0,0.0,0.0,0.0,0.0,0.0,0.0,0.0,0.0,0.0,0.0,0.0,0.0,0.0,0.0,0.0,0.0,0.0,0.0,0.0,0.0,0.0,0.0,0.0,0.0,0.0,0.0,0.0,0.0,2.2373,2.5076,2.7469,2.9472,2.9512,2.8994,2.8094,2.7294,2.5733,2.3076,0.0,0.0,0.0,0.0,0.0,0.0,0.0,0.0,0.0,0.0,0.0,0.0,0.0,0.0,0.0,0.0,0.0,0.0,0.0,0.0,0.0,0.0,0.0,0.0,0.0,0.0,0.0,0.0,0.0,0.0,0.0,0.0,0.0,0.0,0.0,0.0,0.0,0.0,0.0,0.0,0.0,0.0,0.0,0.0,0.0,0.0,0.0,0.0,0.0,0.0,0.0,0.0,0.0,0.0,0.0,0.0,0.0,0.0,0.0,0.0,1.7746,0.0,0.0,0.0,0.0,0.0,0.0,0.0,0.0,0.0,0.0,0.0,0.0,0.0,0.0,0.0,0.0,0.0,0.0,0.0,0.0,0.0,0.0,0.0,0.0,0.0,0.0,0.0,0.0,0.0,0.0,0.0,0.0,0.0,0.0,0.0,0.0,0.0,0.0,0.0,0.0,0.0,2.2748,2.5248,2.7248,2.8763,2.9059,2.8849,2.8049,2.7032,2.5464,2.3109,2.0459,0.0,0.0,0.0,0.0,0.0,0.0,0.0,0.0,0.0,0.0,0.0,0.0,0.0,0.0,0.0,0.0,0.0,0.0,0.0,0.0,0.0,0.0,0.0,0.0,0.0,0.0,0.0,0.0,0.0,0.0,0.0,0.0,0.0,0.0,0.0,0.0,0.0,0.0,0.0,0.0,0.0,0.0,0.0,0.0,0.0,0.0,0.0,0.0,0.0,0.0,0.0,0.0,0.0,0.0,0.0,0.0,0.0,0.0,0.0,0.0,1.9454,0.0,0.0,0.0,0.0,0.0,0.0,0.0,0.0,0.0,0.0,0.0,0.0,0.0,0.0,0.0,0.0,0.0,0.0,0.0,0.0,0.0,0.0,0.0,0.0,0.0,0.0,0.0,0.0,0.0,0.0,0.0,0.0,0.0,0.0,0.0,0.0,0.0,0.0,0.0,0.0,2.3142,2.5858,2.7949,2.9116,2.9227,2.9061,2.856,2.728,2.5886,2.4527,2.1794,0.0,0.0,0.0,0.0,0.0,0.0,0.0,0.0,0.0,0.0,0.0,0.0,0.0,0.0,0.0,0.0,0.0,0.0,0.0,0.0,0.0,0.0,0.0,0.0,0.0,0.0,0.0,0.0,0.0,0.0,0.0,0.0,0.0,0.0,0.0,0.0,0.0,0.0,0.0,0.0,0.0,0.0,0.0,0.0,0.0,0.0,0.0,0.0,0.0,0.0,0.0,0.0,0.0,2.561,2.6318,2.7411,2.6826,2.6872,2.7303,2.5041,2.3579,2.2763,2.2086,0.0,0.0,0.0,0.0,0.0,0.0,0.0,0.0,0.0,0.0,0.0,0.0,0.0,0.0,0.0,0.0,0.0,0.0,0.0,0.0,0.0,0.0,0.0,0.0,2.4533,2.3917,0.0,0.0,0.0,0.0,0.0,0.0,0.0,0.0,0.0,0.0,0.0,0.0,2.3694,2.655,2.8682,2.9492,2.9467,2.9315,2.9137,2.7838,2.6767,2.6106,2.3517,2.1589,0.0,0.0,0.0,0.0,0.0,0.0,0.0,0.0,0.0,0.0,0.0,0.0,0.0,0.0,0.0,0.0,0.0,0.0,0.0,0.0,0.0,0.0,0.0,0.0,0.0,0.0,0.0,0.0,0.0,0.0,0.0,0.0,1.5736,1.7104,0.0,0.0,0.0,0.0,0.0,0.0,0.0,0.0,0.0,0.0,0.0,0.0,0.0,2.5687,2.6457,2.8381,2.9443,2.9627,3.0782,3.1428,3.1597,3.1505,3.1505,3.1582,3.1228,0.0,2.4856,2.4179,0.0,0.0,0.0,0.0,0.0,0.0,0.0,0.0,0.0,0.0,0.0,0.0,0.0,0.0,0.0,0.0,0.0,0.0,0.0,0.0,0.0,0.0,2.7257,2.6934,2.738,2.7534,0.0,2.3394,2.0767,1.9826,1.8238,0.0,0.0,0.0,0.0,0.0,0.0,0.0,2.4802,2.6851,2.8316,2.8795,2.915,2.93,2.9116,2.8642,2.7788,2.6421,2.561,2.446,2.2845,2.1149,0.0,0.0,0.0,0.0,0.0,0.0,0.0,0.0,0.0,0.0,0.0,0.0,0.0,0.0,0.0,0.0,0.0,0.0,0.0,0.0,0.0,0.0,0.0,0.0,0.0,0.0,0.0,0.0,0.0,1.6047,1.8385,1.8401,1.9058,1.9054,0.0,0.0,0.0,0.0,0.0,0.0,0.0,0.0,0.0,2.6943,2.8249,2.9162,2.9627,3.1433,3.2392,3.2392,3.3355,3.3877,3.41,3.41,3.41,3.41,3.41,3.2676,3.0219,2.8061,2.638,2.5041,0.0,0.0,0.0,0.0,2.4025,2.3917,2.5687,2.5857,0.0,2.4748,0.0,0.0,0.0,0.0,0.0,0.0,0.0,0.0,0.0,0.0,2.8519,2.8996,2.9319,2.9458,2.9166,2.738,2.5195,0.0,2.2132,2.1019,1.8761,0.0,0.0,0.0,0.0,2.4202,2.6072,2.791,2.9102,2.9287,2.9528,2.9793,3.0156,2.9189,2.8549,2.8472,2.6961,2.5706,2.5029,2.3261,2.1395,0.0,0.0,0.0,0.0,0.0,0.0,0.0,0.0,0.0,0.0,0.0,0.0,0.0,0.0,0.0,0.0,0.0,0.0,0.0,0.0,0.0,0.0,0.0,0.0,0.0,0.0,0.0,0.0,1.8583,2.065,1.9768,2.1552,2.1978,0.0,0.0,0.0,0.0,0.0,0.0,2.6961,2.7812,2.9027,3.0876,3.182,3.2404,3.2687,3.4107,3.4773,3.4773,3.529,3.5655,3.5925,3.5925,3.5925,3.5925,3.5925,3.553,3.4691,3.1581,2.9589,2.8446,2.7642,2.7396,2.7503,2.8165,2.8088,2.7873,2.9581,2.9627,2.8812,2.815,0.0,2.5949,2.3763,0.0,0.0,0.0,0.0,2.658,2.8642,2.9166,2.9458,3.0643,3.092,3.0936,3.1041,3.05,2.9157,0.0,2.5733,2.4825,2.1734,0.0,0.0,0.0,0.0,2.6518,2.7982,2.9448,3.0315,3.0272,3.0211,3.0351,3.0918,2.9939,2.9542,3.0074,2.8101,2.6887,2.6807,2.5033,2.3211,2.1411,0.0,0.0,0.0,0.0,0.0,0.0,0.0,0.0,0.0,0.0,0.0,0.0,0.0,0.0,0.0,0.0,0.0,0.0,0.0,0.0,0.0,0.0,0.0,0.0,0.0,0.0,0.0,0.0,0.0,2.184,2.49,0.0,0.0,0.0,0.0,2.6385,2.7745,2.9124,3.0579,3.2167,3.3256,3.3701,3.5298,3.6137,3.6169,3.6896,3.72,3.72,3.7231,3.7306,3.7306,3.7306,3.7306,3.7306,3.7306,3.6911,3.6105,3.3732,3.2326,3.1571,3.0577,3.0228,3.0304,3.0951,3.1166,3.1243,3.1982,3.1397,3.052,3.1705,3.0782,2.9058,2.8288,2.718,0.0,0.0,2.8227,2.8719,3.072,3.1228,3.1413,3.2121,3.229,3.236,3.268,3.2173,3.1187,0.0,2.815,2.7103,2.6442,0.0,2.6286,2.7195,2.8274,2.951,3.0898,3.1506,3.1725,3.153,3.1281,3.1055,3.0845,3.101,3.09,3.0258,2.9425,2.8643,2.7947,2.6401,2.4873,2.3287,2.18,0.0,0.0,0.0,0.0,0.0,0.0,0.0,0.0,0.0,0.0,0.0,0.0,0.0,0.0,0.0,0.0,0.0,0.0,0.0,0.0,0.0,0.0,0.0,0.0,0.0,0.0,0.0,0.0,2.5418,2.7748,0.0,2.7065,2.7953,2.8872,2.9405,3.0903,3.2357,3.3745,3.4762,3.5696,3.6451,3.7074,3.7271,3.7054,3.7526,3.7711,3.7711,3.7711,3.7828,3.8033,3.8033,3.8033,3.8033,3.8033,3.7889,3.76,3.6533,3.5324,3.4101,3.3756,3.3607,3.3638,3.3873,3.3952,3.3983,3.4011,3.3848,3.3607,3.3434,3.2439,3.1289,3.1043,3.0936,3.1065,3.1756,3.2129,3.2422,3.2905,3.2857,3.2628,3.2444,3.2749,3.3108,3.3177,3.3371,3.3271,3.2723,3.1326,2.9877,2.885,2.9135,2.9524,2.9609,3.0294,3.1191,3.2333,3.2596,3.2471,3.1934,3.1791,3.1561,3.1173,3.1218,3.1066,3.057,2.9797,2.8956,2.8049,2.7177,2.5848,2.395,2.3129,2.1036,0.0,0.0,0.0,0.0,0.0,0.0,0.0,0.0,0.0,0.0,0.0,0.0,0.0,0.0,0.0,0.0,0.0,0.0,0.0,0.0,0.0,0.0,0.0,0.0,0.0,0.0,2.7937,2.8232,3.0514,3.1571,3.0193,3.109,3.2049,3.2861,3.3974,3.5061,3.6206,3.6772,3.7348,3.787,3.8017,3.796,3.7727,3.796,3.8075,3.8075,3.8075,3.8205,3.8391,3.8391,3.8391,3.8391,3.8391,3.8391,3.8391,3.8148,3.7399,3.6398,3.6156,3.6099,3.6099,3.6099,3.6099,3.6011,3.5545,3.5524,3.5584,3.4722,3.3951,3.341,3.341,3.3721,3.4151,3.4319,3.4607,3.4743,3.4652,3.4455,3.4218,3.3912,3.3953,3.414,3.4242,3.4415,3.4576,3.464,3.3581,3.2333,3.1283,3.167,3.2083,3.2077,3.2437,3.3068,3.4041,3.3982,3.3643,3.3109,3.2601,3.219,3.1876,3.138,3.0959,3.0731,2.9472,2.839,2.7641,2.6914,2.572,2.3967,2.3209,2.1667,1.9226,0.0,0.0,0.0,0.0,0.0,0.0,0.0,0.0,0.0,0.0,0.0,0.0,0.0,0.0,0.0,0.0,0.0,0.0,0.0,0.0,0.0,0.0,0.0,2.558,2.8653,3.0782,3.0156,3.3287,3.473,3.2752,3.4333,3.5864,3.6862,3.6966,3.7254,3.7895,3.8262,3.8262,3.7943,3.8262,3.8391,3.8391,3.8391,3.8448,3.8391,3.8391,3.8391,3.8391,3.8408,3.8391,3.8391,3.8391,3.8391,3.8391,3.8391,3.8391,3.8335,3.7653,3.7417,3.7417,3.7417,3.7417,3.7306,3.6701,3.6463,3.6311,3.5688,3.5466,3.5466,3.5466,3.5466,3.5466,3.5506,3.5522,3.5617,3.5991,3.6066,3.6173,3.6612,3.6089,3.563,3.5909,3.5394,3.4975,3.5195,3.4816,3.4297,3.3839,3.3752,3.3996,3.4661,3.4763,0.0,3.6172,3.568,3.5214,3.5197,3.3835,3.2938,3.2904,3.1541,3.0679,3.0627,2.8523,2.712,2.6791,2.5647,2.4562,2.3485,2.2163,2.1063,2.0178,0.0,0.0,0.0,0.0,0.0,0.0,0.0,0.0,0.0,0.0,0.0,0.0,0.0,0.0,0.0,0.0,0.0,0.0,0.0,0.0,0.0,2.7915,2.9799,2.9418,3.1493,3.3443,3.4463,3.5963,3.6727,3.6438,3.6901,3.7431,3.8003,3.8274,3.8411,3.8351,3.8678,3.8655,3.8262,3.8655,3.8711,3.8391,3.9007,3.9098,3.8821,3.8821,3.8821,3.8821,3.856,3.8391,3.8391,3.8391,3.8391,3.8391,3.8391,3.8391,3.8391,3.8221,3.8148,3.8148,3.8148,3.796,3.7796,3.7809,3.7556,3.716,3.7186,3.708,3.6848,3.6848,3.708,3.7407,3.76,3.7695,3.7769,3.7567,3.7383,3.713,3.6779,3.6887,3.7032,3.7146,3.6937,3.6778,3.684,3.6273,3.5664,3.5301,3.5426,3.566,3.5847,3.5847,0.0,3.6266,3.6111,3.5783,3.5249,3.4335,3.3524,3.2955,3.1541,3.0213,2.9092,2.7937,2.6992,2.6313,2.5962,2.5665,2.5352,2.3904,2.2752,0.0,0.0,0.0,0.0,0.0,0.0,0.0,0.0,0.0,0.0,0.0,0.0,0.0,0.0,0.0,0.0,0.0,0.0,0.0,0.0,0.0,0.0,3.1336,3.3092,3.3409,3.4431,3.56,3.6864,3.7472,3.796,3.8343,3.8343,3.8551,3.8941,3.9135,3.9152,3.8941,3.9152,3.9152,3.8898,3.9115,3.9169,3.8898,3.9348,3.9454,3.9259,3.9259,3.9169,3.8969,3.8766,3.856,3.8391,3.8391,3.8391,3.8391,3.8391,3.8391,0.0,0.0,0.0,0.0,0.0,3.8278,3.8148,3.8335,3.8148,3.7844,3.8017,3.796,3.7844,3.8001,3.827,3.8551,3.8849,3.8995,3.9056,3.9023,3.8906,3.8738,3.8505,3.8447,3.8465,3.8465,3.8214,3.7853,3.7542,3.7111,0.0,3.6096,3.6174,3.6301,3.6301,3.6301,3.6301,3.6301,3.6301,3.6146,3.5714,3.499,3.4249,3.3473,3.2007,0.0,0.0,0.0,2.6799,2.5695,2.5643,0.0,0.0,0.0,0.0,0.0,0.0,0.0,0.0,2.4071,2.4188,0.0,0.0,0.0,0.0,0.0,0.0,0.0,0.0,0.0,0.0,0.0,0.0,0.0,0.0,0.0,0.0,3.4308,3.5991,3.7006,3.7158,3.7383,3.7921,3.8303,3.8688,3.9139,3.9193,3.9425,3.9897,3.9914,3.9914,3.9914,0.0,0.0,0.0,0.0,3.9914,3.9845,3.9966,3.9966,3.9914,3.983,3.964,3.9247,3.911,3.886,3.856,3.856,3.856,3.856,3.856,3.856,3.856,3.8448,3.8391,3.8391,3.8391,3.8391,3.8391,3.8391,0.0,0.0,3.8448,3.8448,3.856,3.8969,3.9115,3.9222,3.9575,3.9714,3.9817,4.0288,4.0355,4.0453,4.084,4.0336,3.9836,3.9836,3.925,3.8525,3.787,3.7594,3.7267,3.6559,3.6353,3.6301,3.6301,3.6301,3.6301,3.6301,3.6301,3.6301,3.6301,0.0,0.0,3.4266,3.2731,3.1472,3.0766,2.8693,2.6861,2.5466,2.553,2.5964,2.6801,2.7552,2.8347,2.9171,3.0786,3.156,3.1487,2.7829,2.7233,0.0,0.0,0.0,0.0,0.0,0.0,0.0,0.0,0.0,0.0,0.0,0.0,0.0,0.0,0.0,3.4146,3.5824,3.7339,3.8439,3.8592,3.8641,3.8772,3.9152,3.9634,4.0374,4.0425,4.0889,4.1831,4.1935,4.1935,4.1935,4.1935,4.1777,4.1456,4.1777,4.1777,4.1439,4.2159,4.233,4.1935,0.0,0.0,4.0881,3.9947,3.9454,3.9348,3.9348,3.9348,3.9348,3.9348,3.9348,3.9295,3.8655,3.8391,3.8391,3.8391,3.8391,3.8391,3.8391,3.8391,3.8448,3.8766,3.886,3.8969,3.9348,3.9747,0.0,4.0121,4.0419,4.0662,4.0776,4.0776,4.0776,4.0871,4.0767,4.0647,4.0647,4.0043,3.9439,3.9301,3.8301,3.7439,3.7284,3.6715,3.6301,3.6301,3.6301,3.6301,3.6301,3.6301,3.6301,3.6301,3.5628,3.5128,3.499,3.3024,3.1528,3.0907,2.942,2.8404,2.8001,2.8718,2.9215,2.9386,3.0159,3.0648,3.0838,3.2404,3.3246,3.3359,3.1782,3.1614,0.0,0.0,0.0,0.0,0.0,0.0,0.0,0.0,0.0,0.0,0.0,2.9715,3.0752,0.0,3.5542,3.7232,3.8384,3.9379,4.0309,4.0625,4.0411,3.9412,3.984,4.0436,4.1032,4.1439,4.1985,4.2792,4.2826,4.2826,4.2826,4.2826,4.2775,4.255,4.2775,4.2792,4.2706,4.3029,4.313,4.2978,4.2533,4.2159,4.192,4.0933,4.0389,4.0163,3.9761,3.961,3.961,3.961,3.961,3.9558,3.9152,3.9007,3.9007,3.9007,3.9007,3.9007,3.9007,3.9007,3.9044,3.9206,3.9312,3.9365,3.985,4.0121,4.0337,4.0534,4.0745,4.0888,4.0888,4.0888,4.0888,4.0888,4.0888,4.0888,4.0888,4.056,4.0164,3.9767,3.9112,3.8397,3.7784,3.7317,3.6876,3.637,3.6301,3.6301,3.6301,3.6402,3.6502,3.6502,3.6278,3.5919,3.5518,3.4129,3.2963,3.2284,3.1616,3.1052,3.0567,3.0984,3.1487,3.1941,3.2329,3.2785,3.3241,3.4429,3.5135,3.5352,3.5254,3.522,0.0,0.0,0.0,0.0,0.0,0.0,0.0,0.0,2.7901,2.9772,3.163,3.34,3.4929,3.6593,3.8319,4.0161,4.0788,4.1275,4.19,4.2187,4.1766,4.0324,4.0813,4.1457,4.1921,4.2518,4.31,4.3595,4.3613,4.3613,4.3613,4.3613,4.3613,4.3613,4.3696,4.3779,4.3924,4.3828,4.386,4.4021,4.3721,4.3354,4.298,4.2227,4.1733,4.1374,4.0561,4.0138,4.0003,4.0003,4.0003,4.0003,4.0003,4.0003,3.9952,3.9697,3.961,3.961,3.961,3.961,3.961,3.9714,3.9731,3.9833,4.0288,4.0404,4.0485,4.0871,4.0918,4.0935,4.1012,4.0965,4.0918,4.1012,4.1012,4.0965,4.1012,4.1012,4.0822,4.0181,3.9939,3.9544,3.8519,3.8049,3.7537,3.6589,3.6426,3.6426,3.6426,3.6626,3.6766,3.6766,3.6908,3.6654,3.5884,3.5289,3.4657,3.3917,3.3917,3.3617,3.2998,3.3015,3.3365,3.414,3.4333,3.4827,3.5605,3.6412,3.6926,3.7192,3.7845,3.7824,2.3242,2.4153,2.5258,2.7068,2.7227,2.824,0.0,0.0,3.2434,3.5086,3.651,3.7681,3.8844,3.9959,4.0922,4.1598,4.1758,4.1954,4.2359,4.192,4.1647,4.2033,4.261,4.3201,4.3906,4.4044,4.4372,4.5113,4.5165,4.5165,4.5165,4.5165,4.5165,4.5165,4.5389,4.5542,4.5525,4.5775,4.5891,4.5874,4.5207,4.4892,4.4791,4.3985,4.3588,4.3535,4.2754,4.2037,4.1363,4.1363,4.1363,4.1363,4.1363,4.1363,4.1255,4.0053,3.961,3.961,3.961,3.961,3.9662,4.007,4.0238,4.0288,4.0728,4.0823,4.0871,4.1117,4.1041,4.1029,4.1426,4.1198,4.1029,4.1426,4.1363,4.1209,4.1471,4.1515,4.1498,4.1393,4.0832,4.0367,4.021,3.9,3.7825,3.7053,3.693,3.693,3.693,3.6948,3.6987,3.6987,3.6987,3.6654,3.5884,3.5874,3.5633,3.4993,3.4992,3.5043,3.5073,3.5169,3.5285,3.5393,3.6336,3.688,3.6971,3.779,3.8319,3.8584,3.8676,3.8535,2.7237,2.8501,2.9359,3.0215,3.1453,3.3076,3.5401,3.5562,3.5991,3.8691,3.9552,4.0075,4.0845,4.1493,4.2189,0.0,4.3144,4.3509,4.4129,4.3546,4.3269,4.3649,4.3496,4.3565,4.4007,4.4443,4.5018,4.5802,4.5854,4.5854,4.5854,4.5854,4.5854,4.5854,4.5988,4.6087,4.6284,4.6235,4.6284,4.6429,4.5967,4.5712,4.5694,4.4952,4.4337,4.388,4.3581,4.3019,4.2289,4.2289,4.2008,4.1604,4.1604,4.1604,4.1498,4.0802,4.0546,4.0497,4.0385,4.0417,4.0546,4.0789,4.0948,4.1088,4.1244,4.129,4.1318,4.1408,4.1363,4.1335,4.156,4.1471,4.138,4.156,4.1498,4.1453,4.156,4.1701,4.1839,4.1839,4.1742,4.1533,4.1189,4.0584,3.9906,3.9283,3.7942,3.6987,3.6987,3.7105,3.7279,3.7559,3.7721,3.7683,3.7341,3.7392,3.7334,3.7058,3.704,3.7091,3.7123,3.7221,3.7235,3.7235,3.7676,3.7904,3.7904,3.825,3.8559,3.8792,3.9301,3.9564,2.9705,3.1237,3.2449,3.3048,3.5056,3.7037,3.7536,3.8062,3.9021,4.1229,4.1524,4.161,4.229,4.2547,4.2893,4.3924,4.4302,4.4662,4.5217,4.4628,4.4173,4.4191,4.3541,4.3249,4.3754,4.4495,4.5256,4.5817,4.6063,4.6186,4.6186,4.6186,4.6186,4.6186,4.6284,4.6381,4.659,4.6495,4.6542,4.6684,4.6525,4.6429,4.6411,4.5864,4.5176,4.4417,4.4417,4.3994,4.3305,4.3305,4.2847,4.2097,4.2097,4.1974,4.178,4.148,4.1346,4.1318,4.1152,4.118,4.13,4.13,4.1453,4.1604,4.1604,4.1604,4.1604,4.1692,4.1648,4.1648,4.178,4.1692,4.1648,4.178,4.1736,4.1719,4.1874,4.205,4.2239,4.232,4.2519,4.2553,4.2141,4.1851,4.1578,4.1188,3.9355,3.7962,3.7749,3.7665,3.7739,3.8086,3.8285,3.8382,3.8382,3.8382,3.8415,3.8528,3.8446,3.8415,3.8528,3.851,3.851,3.851,3.8572,3.8585,3.8585,3.8885,3.9116,3.932,4.0174,4.0849,2.9428,3.1104,3.3566,3.5655,3.7258,3.8796,4.0623,4.1066,4.1468,4.2685,4.2306,4.2223,4.3594,4.3237,4.3269,4.4743,4.4979,4.4979,4.4997,4.4366,4.3704,4.3209,4.244,4.2349,4.3422,4.4428,4.5027,4.5045,4.5765,4.6186,4.6186,4.6186,4.6186,4.6186,4.6447,4.659,4.659,4.6842,4.698,4.6998,4.698,4.6998,4.698,4.6962,4.6516,4.5722,4.5722,4.5276,4.4545,4.4545,4.41,4.3422,4.3422,4.2941,4.2246,4.1977,4.1762,4.1604,4.156,4.1604,4.1604,4.1604,4.1604,4.1604,4.1604,4.1604,4.1648,4.1849,4.1762,4.1692,4.2163,4.1952,4.1719,4.2163,4.2061,4.2044,4.2537,4.2655,4.2788,4.3087,4.316,4.316,4.316,4.2485,4.1991,4.1973,4.1243,4.0388,3.9622,3.8857,3.8382,3.8382,3.8382,3.8382,3.8382,3.8382,3.851,3.8792,3.8541,3.8528,3.8792,3.8792,3.8792,3.8792,3.896,3.9073,3.9073,4.0057,4.0531,4.0576,4.1488,4.2412,3.2442,3.4358,3.6206,3.7781,3.957,4.1247,4.2416,4.2395,4.2458,4.3647,4.3254,4.2979,4.3739,4.368,4.3847,4.4857,4.5027,4.5027,4.5027,4.4817,4.4371,4.3469,4.3155,4.3112,4.3297,4.371,0.0,4.5425,4.5808,4.6181,4.6713,4.6944,4.708,4.708,4.7389,4.7518,4.7518,4.7603,4.7663,4.7663,4.7468,4.7205,4.6998,4.6998,4.6837,4.6587,4.6587,4.6141,4.541,4.541,4.4946,4.425,4.425,4.3786,4.3108,4.3006,4.2583,4.2037,4.1692,4.1692,4.1805,4.1805,4.1934,4.2061,4.2061,4.2061,4.2079,4.2163,4.2121,4.2121,4.2246,4.2292,4.2356,4.2534,4.2691,4.2806,4.2995,4.316,4.3338,4.3461,4.3597,4.373,4.373,4.3509,4.3305,4.3305,4.1882,4.0711,4.0422,4.0331,4.006,3.9528,3.9614,3.9483,3.891,3.8855,3.8902,3.8989,3.8931,3.8884,3.9007,3.8989,3.9045,3.911,3.9778,4.0139,4.0218,4.1095,4.1593,4.1763,4.2599,4.3232,3.5436,3.6885,3.8101,4.0266,4.1844,4.2993,4.3576,4.346,4.3305,4.3638,4.2901,4.2329,4.282,4.2467,4.2564,4.4076,4.4565,4.4849,4.5178,4.5391,4.5178,4.4199,4.4114,4.4057,4.3902,0.0,0.0,4.5459,4.6198,4.6737,4.7187,4.7381,4.7511,4.7511,4.7705,4.7829,4.7829,4.7951,4.7992,4.7992,4.7788,4.7578,4.7363,4.7363,4.7363,4.7363,4.7249,4.6874,4.639,4.6275,4.5749,4.5035,4.5035,4.441,4.3518,4.3518,4.3001,4.2246,4.1934,4.1934,4.2061,4.2061,4.2145,4.2328,4.2432,4.2432,4.2472,4.2591,4.2631,4.2631,4.2631,4.2729,4.2882,4.2882,4.3032,4.3232,4.3339,4.3495,4.3631,4.373,4.3892,4.4005,4.4005,4.4005,4.4005,4.4005,4.2825,4.1838,4.1562,4.1414,4.1139,4.064,4.0722,4.0587,4.003,3.9993,3.9993,3.9993,4.003,4.0058,4.0058,4.0113,4.0195,4.0255,4.0903,4.1243,4.1343,4.2233,4.2749,4.2905,4.3764,4.4255,3.82,3.8718,3.9473,4.298,4.3889,4.3993,4.43,4.4264,4.3878,4.2794,4.1341,4.0387,4.0753,3.9725,3.9751,4.2541,4.3761,4.4636,4.5475,4.6059,4.6055,0.0,0.0,0.0,0.0,0.0,0.0,4.5301,0.0,4.7834,4.7554,4.7554,4.7554,4.7554,4.7536,4.7578,4.7578,4.787,4.8032,4.8032,4.8032,4.8032,4.7992,4.7992,4.7992,4.7992,4.7663,4.7511,4.7511,4.716,4.6579,4.59,4.59,4.4971,4.3614,4.3614,4.306,4.2328,4.2328,4.2328,4.2328,4.2328,4.2328,4.2391,4.2634,4.275,4.2788,4.3123,4.3214,4.3214,4.3214,4.3196,4.3196,4.3196,4.3232,4.3304,4.3563,4.3612,4.3697,4.3942,4.4005,4.4005,4.4005,4.4005,4.4005,4.4005,4.4005,4.3726,4.2965,4.2203,4.1702,4.1664,4.1664,4.1646,4.1619,4.1619,4.1619,4.1619,4.1745,4.181,4.181,4.1927,4.2006,4.2051,4.2252,4.2408,4.2389,4.3476,4.398,4.4,4.4978,4.54,3.9451,4.1366,4.327,4.411,4.4652,4.4992,4.5105,4.3905,4.2402,4.0943,3.9519,3.8204,3.7127,3.8061,0.0,4.1051,4.3338,0.0,4.5528,4.6728,0.0,4.592,0.0,4.6526,4.6188,4.6757,0.0,0.0,4.7268,4.7314,4.7852,4.8035,4.8153,4.8153,4.8402,4.855,4.855,4.8642,4.855,4.8307,4.8307,4.821,4.7992,4.7992,4.7992,4.7992,4.7911,4.787,4.787,4.7788,4.762,4.7438,4.7438,4.6459,4.5062,4.5062,4.4173,4.2975,4.2975,4.2806,4.2652,4.29,4.2975,4.2975,4.305,4.3069,4.3087,4.316,4.3214,4.3214,4.3214,4.3339,4.3495,4.3495,4.3664,4.3795,4.3892,4.3892,4.3923,4.4005,4.4005,4.4005,4.4005,4.4005,4.4036,4.4207,4.4207,4.4102,4.3726,4.3503,4.315,4.2556,4.2482,4.23,4.1782,4.1754,4.1782,4.1892,4.1946,4.1946,4.1946,4.2134,4.2281,4.2375,4.3104,4.3536,4.3636,4.4576,4.5074,4.5182,4.543,4.5596,4.2229,4.386,4.517,4.5075,4.5311,4.5115,4.3375,4.2139,4.0533,3.7524,3.6422,3.5498,3.3989,3.5999,3.8241,0.0,0.0,0.0,4.5919,4.7241,4.7901,0.0,4.7463,0.0,4.7365,4.819,4.8857,0.0,4.8605,4.8603,4.9237,4.943,4.9341,4.8991,4.9141,4.9139,4.8909,4.8909,4.882,4.8623,4.8623,4.8587,4.8514,4.8439,4.8476,4.8586,0.0,4.8307,4.8307,4.8251,4.8174,4.8096,4.8096,4.7108,4.5662,4.5623,4.4582,4.3214,4.3321,4.3232,4.3124,4.3196,4.3214,4.3232,4.3339,4.3375,4.3391,4.3495,4.3529,4.3529,4.3529,4.3664,4.3763,4.3763,4.3892,4.4005,4.4005,4.4005,4.4005,4.4005,4.4067,4.4147,4.4147,4.4158,4.4266,4.4373,4.4401,4.4383,4.4308,4.4258,4.405,4.3583,4.3546,4.3388,4.3034,4.3042,4.3111,4.3163,4.3315,4.3412,4.3412,4.3574,4.3702,4.3784,4.4346,4.467,4.4762,4.5315,4.5613,4.5692,4.5692,4.5723,4.5088,4.5802,4.5927,4.5838,4.5659,4.4517,4.077,3.9727,3.8312,3.3741,3.285,3.2502,3.1164,3.3647,3.6297,3.7533,0.0,4.5291,4.6345,4.755,4.8347,4.844,4.8458,4.8495,4.8605,4.9528,5.019,5.0432,5.0488,5.0639,5.0949,5.0947,5.0579,4.9786,4.9657,4.9381,4.8909,4.8909,4.8909,4.8909,4.8909,4.8978,4.9146,4.8978,4.9061,4.9352,4.8956,0.0,4.8765,4.8657,4.8495,4.8347,4.8347,4.7316,4.5882,4.5755,4.4693,4.3339,4.3563,4.3646,4.3612,4.3375,4.3304,4.3339,4.3597,4.3646,4.3697,4.3923,4.4005,4.4005,4.4005,4.4005,4.4005,4.4005,4.4005,4.4005,4.4005,4.4036,4.4036,4.4067,4.4218,4.4354,4.4354,4.4449,4.456,4.4605,4.4587,4.4648,4.477,4.4648,4.4532,4.456,4.456,4.456,4.4587,4.4688,4.4776,4.4776,4.5074,4.5222,4.5222,4.5362,4.5438,4.5438,4.5563,4.5629,4.5629,4.5737,4.58,4.58,4.58,4.58,4.4714,4.5784,4.6623,4.5963,4.4839,4.3215,4.0521,3.8044,0.0,0.0,3.0438,2.9489,2.8584,3.1084,3.406,3.6512,4.0281,4.3763,4.6145,4.7278,4.8078,0.0,4.882,4.908,4.9748,4.9988,0.0,0.0,5.2178,5.1918,5.1343,5.1306,5.0916,5.0063,4.9395,4.8969,4.8909,4.8909,4.8909,4.8909,4.8909,4.8909,4.8943,4.8909,4.9012,4.9244,4.9146,0.0,4.927,4.9252,4.9174,4.9027,4.9027,4.7955,4.6376,4.6342,4.5286,4.3878,4.3892,4.3923,4.3923,4.3878,4.386,4.386,4.3942,4.3923,4.3923,4.4005,4.4005,4.4005,4.4005,4.4005,4.4005,4.4005,4.4005,4.4005,4.4005,4.4147,4.4266,4.4383,4.4522,4.4617,4.4617,4.4757,4.4881,4.5052,4.5071,4.5137,4.5263,4.4915,4.4701,4.4834,4.4815,4.49,4.5052,4.5115,4.5159,4.5263,4.5342,4.5381,4.5381,4.5493,4.5563,4.5563,4.5692,4.5771,4.5771,4.58,4.58,4.58,4.58,4.58,4.4517,4.516,4.557,4.4803,4.3732,4.1823,3.7809,0.0,0.0,0.0,2.7853,2.7451,2.6298,2.944,3.2625,3.3931,3.7849,4.16,4.4228,4.5658,4.6903,4.8129,4.8649,4.9224,5.0023,5.0506,5.1323,5.2659,5.2715,5.2697,5.2642,5.1844,5.1008,5.0135,4.9317,4.8909,4.8909,4.8909,4.8909,4.8909,4.8909,4.8943,4.9046,4.9046,4.9211,4.9483,4.9483,0.0,4.9415,4.9506,4.9402,4.9141,4.873,4.7764,4.6531,4.6043,4.5082,4.4005,4.4005,4.4005,4.4005,4.4097,4.4085,4.4005,4.4005,4.4005,4.4005,4.4005,4.4005,4.4005,4.4005,4.4067,4.4147,4.4147,4.4207,4.4277,4.4336,4.4448,4.4549,4.4676,4.4849,4.4962,4.4962,4.5077,4.5182,4.5197,4.5197,4.526,4.5381,4.5201,4.5096,4.5144,4.5163,4.5184,4.5302,4.5362,4.5437,4.5493,4.5563,4.5613,4.5613,4.5677,4.5708,4.5708,4.5771,4.58,4.58,4.58,4.58,4.58,4.5841,4.5848,4.4178,4.45,4.4428,4.3697,4.2644,4.0431,3.5275,3.3221,0.0,2.6145,2.567,2.5852,2.4874,2.8012,3.1021,0.0,3.559,3.938,4.237,4.4228,4.59,0.0,4.8441,0.0,5.0112,5.0817,0.0,5.2629,5.2632,5.2823,5.3349,5.1991,5.0875,5.0222,4.9387,4.8978,4.8993,4.8993,4.8993,4.8993,4.8993,4.9113,4.9244,4.9244,4.9402,4.9692,4.9692,0.0,0.0,4.9673,4.9461,4.899,4.8334,4.7423,4.642,4.5649,4.4823,4.4097,4.4097,4.4097,4.4128,4.4285,4.4207,4.4067,4.4097,4.414,4.4121,4.4128,4.414,4.4121,4.4109,4.4237,4.4344,4.4383,4.4505,4.4629,4.477,4.4776,4.48,4.4928,4.512,4.5243,4.5243,4.5381,4.5438,4.5341,4.5341,4.5361,4.5475,4.5475,4.5475,4.5475,4.5475,4.5475,4.5475,4.558,4.5645,4.5645,4.5737,4.58,4.58,4.58,4.58,4.58,4.58,4.5814,4.5827,4.5827,4.5841,4.5835,4.5905,4.591,4.3393,4.4107,4.4428,4.3697,4.1805,3.9075,3.5025,0.0,2.8963,2.5623,2.4652,2.4615,2.5206,2.6431,2.857,3.2284,3.4531,3.7448,4.2129,4.4228,4.59,4.7516,0.0,0.0,5.0284,5.0549,5.104,5.1921,5.1978,5.2015,5.209,5.1077,5.0501,5.0553,4.9674,4.9244,4.9352,4.9352,4.9352,4.9352,4.9352,4.9352,4.9384,4.9384,4.9495,4.9692,4.9692,0.0,0.0,4.9852,4.9334,4.8465,4.839,4.7306,4.5771,4.5696,4.5152,4.444,4.444,4.444,4.4458,4.4487,4.4401,4.4314,4.443,4.4541,4.4617,4.4477,4.4522,4.4591,4.4496,4.4487,4.4524,4.4636,4.4781,4.4928,4.5118,4.5007,4.4938,4.5132,4.5281,4.5362,4.5362,4.5596,4.5752,4.5757,4.5737,4.5737,4.5752,4.5752,4.5752,4.5752,4.5752,4.5752,4.5752,4.5766,4.5786,4.5786,4.58,4.58,4.58,4.58,4.58,4.58,4.58,4.5841,4.5886,4.5886,4.591,4.5986,4.5986,4.5997,4.1716,4.2626,4.3144,4.284,4.1002,3.8219,3.4276,3.1356,2.8497,2.5063,2.4215,2.4245,2.4764,2.5597,2.7028,2.9628,3.1061,3.3222,3.7199,3.9583,4.1969,4.4659,4.6656,0.0,0.0,0.0,5.0798,5.1268,5.1398,5.125,5.0703,5.0573,5.0314,4.9872,4.9521,4.9352,4.9415,4.9415,4.9415,4.9415,4.9415,4.9415,4.9415,4.9525,4.9615,4.9692,4.9807,0.0,0.0,4.9211,4.8711,4.819,4.7174,4.6327,4.566,4.5254,4.4912,4.4636,4.4701,4.4695,4.461,4.4714,4.4648,4.4524,4.4515,4.4551,4.4587,4.4524,4.4551,4.4587,4.4496,4.4551,4.464,4.4802,4.4934,4.5115,4.5282,4.5323,4.5362,4.5545,4.5613,4.5645,4.5645,4.5723,4.5766,4.5692,4.5677,4.5677,4.5677,4.5677,4.5708,4.58,4.58,4.58,4.58,4.58,4.58,4.58,4.58,4.58,4.58,4.58,4.5827,4.5867,4.5867,4.5886,4.5964,4.5964,4.5968,4.5996,4.6041,4.6052,4.0199,4.1324,4.1948,4.1948,4.0003,3.7113,3.3384,3.0547,2.7772,2.4559,2.3976,2.4095,2.4393,2.4928,2.5968,2.7866,2.8891,3.0775,3.4633,3.7106,3.9701,4.2835,0.0,4.7408,0.0,5.0071,5.0463,5.06,5.0752,5.0542,4.9917,5.0212,5.012,4.9585,4.9506,4.9506,4.9566,4.9566,4.9566,4.9566,4.9566,4.9566,4.9548,4.9702,4.9778,4.9759,4.9871,0.0,0.0,4.873,4.8145,4.7485,4.6299,4.5678,4.5423,4.494,4.4764,4.477,4.4943,4.4919,4.4887,4.5007,4.4981,4.49,4.4802,4.4777,4.4777,4.4777,4.4777,4.4777,4.4777,4.4857,4.5,4.509,4.526,4.54,4.5493,4.5563,4.5629,4.5723,4.5737,4.5737,4.5737,4.5766,4.5771,4.5677,4.5661,4.5661,4.5661,4.5661,4.5692,4.58,4.58,4.58,4.58,4.58,4.58,4.58,4.5827,4.5841,4.5841,4.5854,4.5886,4.5936,4.5936,4.5959,4.6033,4.6033,4.6037,4.6072,4.6108,4.6136,3.9075,4.0503,4.1109,4.1109,3.8754,3.5596,3.242,2.928,2.6387,2.4176,2.3858,2.4057,2.4265,2.4428,2.537,2.7976,2.9027,3.1252,3.6264,3.8402,4.0408,0.0,0.0,4.625,4.7137,4.887,4.9898,4.9898,4.9898,0.0,4.9898,4.9898,4.9898,4.9898,4.9778,4.9759,4.9879,4.9879,4.9879,4.9879,4.9879,4.9879,4.9879,4.9898,4.9898,4.9898,0.0,0.0,0.0,4.8685,4.7719,4.6222,4.6203,4.5672,4.4914,4.4895,4.4895,4.4919,4.5125,4.5192,4.5213,4.5341,4.5381,4.54,4.54,4.54,4.54,4.54,4.54,4.54,4.54,4.5493,4.5596,4.5596,4.5692,4.578,4.58,4.5692,4.5596,4.5596,4.5596,4.5596,4.5596,4.5708,4.58,4.58,4.58,4.58,4.58,4.58,4.58,4.58,4.58,4.58,4.58,4.58,4.58,4.58,4.5848,4.5905,4.5905,4.5964,4.5998,4.601,4.599,4.604,4.6105,4.6105,4.6134,4.6204,4.6204,4.6229,3.3883,3.5293,3.6185,3.5614,3.3919,3.1831,2.9779,2.7719,2.5799,2.4111,2.3876,2.4019,2.4301,2.4408,2.5686,2.9495,3.0302,3.1824,0.0,0.0,0.0,4.2421,4.6176,4.8745,0.0,0.0,4.9898,4.9898,4.9898,4.9898,4.9898,4.9898,4.9898,4.9898,4.9871,4.9871,4.9898,4.9898,4.9898,4.9898,4.9898,4.9898,4.9898,4.9898,4.9898,0.0,0.0,0.0,0.0,4.806,4.7169,4.6146,4.5539,4.5141,4.4919,4.5154,4.5241,4.5282,4.5509,4.5545,4.5475,4.5528,4.5475,4.5419,4.551,4.5475,4.54,4.54,4.54,4.54,4.54,4.5419,4.5456,4.5456,4.5563,4.5661,4.5661,4.5692,4.5737,4.5737,4.5737,4.5737,4.5737,4.5766,4.58,4.58,4.58,4.58,4.58,4.58,4.58,4.58,4.58,4.58,4.58,4.5835,4.588,4.588,4.5941,4.5975,4.5975,4.5986,4.6017,4.6066,4.6073,4.6089,4.618,4.618,4.6205,4.6269,4.6265,4.6278,3.0547,3.2206,3.3062,3.2563,3.126,2.9672,2.8102,2.6558,2.5135,2.4024,2.3837,2.3959,2.4302,2.4356,2.5448,2.895,2.9739,3.1355,0.0,0.0,0.0,4.3493,0.0,0.0,0.0,4.9709,4.9898,4.9898,4.9898,4.9898,4.9898,4.9898,4.9898,4.9898,4.9898,4.9898,4.9898,4.9898,4.9898,4.9898,4.9898,4.9898,4.9898,4.9898,4.9898,0.0,0.0,0.0,0.0,4.7302,4.6449,4.5653,4.5103,4.4943,4.5038,4.5258,4.5361,4.5419,4.5645,4.5677,4.5613,4.5661,4.5613,4.5563,4.5645,4.5613,4.5545,4.5545,4.5545,4.5545,4.5545,4.5545,4.5545,4.5545,4.5613,4.5677,4.5677,4.5737,4.58,4.58,4.58,4.58,4.58,4.58,4.58,4.58,4.58,4.58,4.58,4.58,4.5808,4.5873,4.5886,4.5891,4.5908,4.5902,4.591,4.5938,4.6008,4.6044,4.6029,4.6064,4.6111,4.6163,4.6183,4.62,4.623,4.623,4.6268,4.63,4.6306,4.63,0.0,3.0457,3.1118,3.1118,3.0047,2.8602,2.7085,2.564,0.0,2.3916,2.3795,2.3953,2.4469,2.4432,2.506,2.7339,2.8313,3.0565,0.0,3.8054,0.0,0.0,4.7036,0.0,4.8704,4.9443,4.9898,4.9898,4.9898,4.9898,4.9898,4.9898,4.9898,4.9898,4.9898,4.9898,4.9898,4.9898,4.9898,4.9898,4.9898,4.9898,4.9898,4.9898,4.986,0.0,0.0,0.0,0.0,4.6512,4.5697,4.4919,4.4919,4.5038,4.5213,4.5235,4.532,4.5419,4.5563,4.5613,4.5629,4.5752,4.58,4.58,4.58,4.58,4.58,4.58,4.58,4.58,4.58,4.58,4.58,4.58,4.58,4.58,4.58,4.58,4.58,4.58,4.58,4.58,4.58,4.58,4.5814,4.5814,4.5814,4.5814,4.5822,4.5808,4.5854,4.5979,4.6017,4.6021,4.6089,4.5987,4.5938,4.5998,4.6079,4.6114,4.6105,4.6178,4.6229,4.6307,4.6306,4.6301,4.63,4.63,4.63,4.63,4.63,4.63,2.2963,0.0,2.5444,2.5444,2.5158,2.4777,0.0,2.4075,2.3822,2.3757,2.3747,2.4502,2.6784,2.6191,2.701,3.2049,3.3147,3.4641,3.8294,0.0,0.0,4.6904,4.842,4.9386,4.9595,4.9784,4.9898,4.9898,4.9898,4.9898,4.9898,4.9898,4.9898,4.9898,4.9898,4.9898,4.9898,4.9898,4.9898,4.9898,4.9898,4.9898,4.9898,4.9898,4.9557,0.0,0.0,0.0,4.6474,4.6492,4.5963,4.5148,4.5239,4.5321,4.5361,4.5456,4.5528,4.558,4.5708,4.5752,4.5771,4.58,4.58,4.58,4.58,4.58,4.58,4.58,4.58,4.58,4.58,4.58,4.58,4.58,4.58,4.58,4.58,4.58,4.58,4.58,4.58,4.58,4.58,4.58,4.5822,4.5941,4.588,4.5854,4.6005,4.5988,4.5988,4.6073,4.6079,4.6078,4.6097,4.608,4.605,4.6084,4.6144,4.6175,4.618,4.6182,4.6229,4.6307,4.6297,4.6306,4.63,4.63,4.63,4.63,4.63,4.63,2.0501,2.2285,2.4052,2.4052,2.432,2.4569,2.4569,2.4039,2.3585,0.0,0.0,2.4381,2.6443,2.6645,2.789,3.2198,3.4177,0.0,0.0,0.0,4.7055,4.7889,4.9102,4.9898,0.0,4.9898,4.9933,5.0038,5.0038,5.0044,5.0125,4.9689,4.9474,4.9591,4.9036,4.9102,4.9879,4.9898,4.9898,4.9898,4.9519,4.9349,4.933,4.9036,4.8669,0.0,0.0,0.0,4.6374,4.6125,4.5703,4.5213,4.5341,4.54,4.5419,4.5545,4.5645,4.5692,4.5766,4.58,4.58,4.58,4.58,4.58,4.58,4.58,4.58,4.58,4.58,4.58,4.58,4.58,4.58,4.58,4.58,4.58,4.58,4.5854,4.5886,4.5886,4.5933,4.5947,4.5947,4.5947,4.5968,4.6026,4.5979,4.5969,4.6099,4.6059,4.6079,4.6144,4.6147,4.6158,4.6191,4.6191,4.619,4.6186,4.6229,4.625,4.6249,4.6249,4.6267,4.63,4.6306,4.63,4.63,4.63,4.63,4.63,4.63,4.63,2.0073,2.2553,2.4783,2.4427,2.4998,2.5604,2.5479,0.0,0.0,0.0,0.0,0.0,2.5819,2.7204,0.0,0.0,0.0,0.0,4.301,4.5843,4.7662,4.8401,4.933,0.0,4.9898,4.9898,4.9922,4.9967,4.9967,4.9945,4.9934,4.9129,4.8766,4.892,4.7933,4.8079,4.95,4.9546,4.9554,4.9554,4.8871,4.8522,4.8484,4.7914,4.7586,4.7457,0.0,0.0,4.6278,4.5649,4.5321,4.5237,4.5381,4.5438,4.5475,4.5596,4.5692,4.58,4.58,4.58,4.5814,4.5808,4.5841,4.5822,4.5848,4.5848,4.5848,4.5848,4.5835,4.5827,4.5814,4.5827,4.5841,4.5841,4.5841,4.5822,4.5848,4.5933,4.6027,4.6027,4.6052,4.6105,4.6105,4.6105,4.6092,4.6105,4.6105,4.6117,4.6138,4.6123,4.6144,4.621,4.6211,4.6248,4.6303,4.63,4.6309,4.6305,4.6305,4.63,4.63,4.63,4.63,4.63,4.63,4.63,4.63,4.63,4.63,4.63,4.63,4.63,2.1358,2.3749,2.5158,2.316,2.3784,2.4694,2.4016,0.0,0.0,0.0,0.0,0.0,0.0,3.0623,3.2414,0.0,0.0,4.0847,0.0,0.0,4.7453,4.7567,0.0,4.9898,4.9898,4.9898,4.9641,4.8984,4.8927,4.8631,4.7897,4.772,4.7644,4.7688,4.7479,4.751,4.7776,4.7952,4.8043,4.8043,4.791,4.7781,4.7586,4.7479,4.7068,4.6423,0.0,4.5948,4.5185,4.5339,4.54,4.5381,4.551,4.5645,4.5737,4.5752,4.5766,4.58,4.58,4.58,4.5827,4.5922,4.5975,4.5977,4.6044,4.6041,4.6041,4.6041,4.6008,4.5933,4.5841,4.5873,4.5975,4.5975,4.5975,4.5977,4.6044,4.6076,4.6084,4.6084,4.6086,4.6105,4.6105,4.6092,4.6119,4.6173,4.6132,4.614,4.6249,4.621,4.621,4.6276,4.627,4.6287,4.63,4.63,4.6303,4.6306,4.6306,4.6303,4.63,4.63,4.63,4.63,4.63,4.63,4.63,4.63,4.63,4.63,4.63,4.63,2.0127,2.2125,2.3749,2.3106,2.5408,2.7638,2.6905,2.6444,0.0,0.0,0.0,0.0,0.0,0.0,3.5857,3.96,0.0,4.2829,4.4175,4.5729,4.6752,0.0,0.0,4.8553,4.8553,4.8553,4.8434,4.8199,4.8161,0.0,4.7674,4.7143,4.6915,4.7026,4.6402,4.613,4.632,4.6336,4.6748,4.7523,4.711,4.6852,4.6733,4.6383,4.6058,4.5767,0.0,4.5667,4.5381,4.5455,4.551,4.5528,4.5661,4.5692,4.5692,4.5766,4.58,4.58,4.58,4.5854,4.5929,4.5986,4.6018,4.6052,4.6091,4.6098,4.6105,4.6092,4.6084,4.6035,4.5988,4.5998,4.606,4.6044,4.6041,4.6064,4.6092,4.6128,4.6152,4.6152,4.6173,4.6204,4.6204,4.6205,4.6228,4.625,4.623,4.623,4.6297,4.6261,4.6261,4.6303,4.63,4.63,4.63,4.63,4.63,4.63,4.63,4.63,4.63,4.63,4.6269,4.6187,4.6187,4.617,4.6072,4.6072,4.6072,4.6072,4.6072,4.6072,1.9484,2.1072,2.2821,2.3802,2.6621,2.9255,2.9679,2.9053,0.0,0.0,0.0,0.0,0.0,3.5758,0.0,4.2697,4.3693,4.4194,4.4819,4.5653,4.6203,4.6203,4.6904,4.7397,4.7397,4.7397,4.7403,4.7404,4.7381,0.0,4.7277,4.6476,4.6129,4.6277,4.5384,4.5061,4.5341,4.5237,4.5776,4.6939,4.6311,4.6026,4.6007,4.5478,4.53,4.54,4.54,4.551,4.5692,4.5596,4.558,4.5613,4.5708,4.5708,4.5661,4.5752,4.5827,4.5854,4.5854,4.5898,4.6007,4.6008,4.6044,4.6072,4.6105,4.6118,4.6131,4.6133,4.6147,4.6137,4.6118,4.6111,4.6108,4.6117,4.6114,4.6128,4.6147,4.6198,4.6229,4.6229,4.6268,4.63,4.63,4.63,4.6297,4.6297,4.6293,4.6287,4.6261,4.628,4.6273,4.6211,4.6221,4.624,4.6211,4.6211,4.6211,4.6211,4.6211,4.6211,4.6211,4.6211,4.617,4.6057,4.6049,4.5996,4.5899,4.5899,4.5889,4.5889,4.5889,4.5878,2.1447,2.2714,2.3784,2.5265,2.5372,0.0,2.9779,2.9557,0.0,3.2581,0.0,0.0,0.0,3.8014,4.1199,4.3307,4.4302,4.4838,4.4895,0.0,4.6203,4.6203,4.6904,4.7397,4.7397,4.7397,4.715,4.6542,0.0,0.0,4.5442,4.5147,4.5014,4.5038,4.4957,4.4991,4.5213,4.5192,4.5335,4.5534,4.5476,4.5457,4.5457,4.54,4.54,4.54,4.54,4.5419,4.5438,4.5419,4.5493,4.5596,4.5613,4.5677,4.58,4.58,4.5893,4.5986,4.5986,4.5997,4.6017,4.6068,4.6049,4.6041,4.617,4.6182,4.6206,4.6262,4.6285,4.6261,4.6123,4.614,4.6182,4.618,4.6182,4.6207,4.6268,4.6285,4.6284,4.6284,4.63,4.6293,4.6293,4.6306,4.6303,4.6303,4.6303,4.6269,4.6138,4.6216,4.6211,4.5969,4.6041,4.6057,4.593,4.593,4.593,4.593,4.593,4.593,4.593,4.593,4.592,4.591,4.591,4.591,4.5899,4.5897,4.5906,4.5906,4.5832,4.582,1.9877,2.1786,2.3743,2.4855,2.6022,0.0,0.0,3.191,3.3248,3.6748,3.7879,0.0,0.0,0.0,4.2592,4.354,4.4383,4.4895,4.4895,4.5179,4.5388,4.5388,4.5653,4.5843,4.5843,4.5965,4.5944,4.5668,0.0,0.0,4.5341,4.526,4.5218,4.5218,4.5218,4.5216,4.5192,4.5279,4.532,4.5279,4.5361,4.5361,4.5279,4.5361,4.5341,4.5279,4.5279,4.5321,4.54,4.54,4.5475,4.5613,4.5692,4.5771,4.58,4.58,4.5822,4.588,4.588,4.5925,4.5998,4.6033,4.6086,4.6133,4.6228,4.6258,4.6265,4.6288,4.6305,4.6288,4.6243,4.6248,4.6268,4.6268,4.6269,4.6262,4.6297,4.6293,4.629,4.629,4.6306,4.6306,4.6306,4.6221,4.6176,4.6176,4.6105,4.6021,4.5987,4.6013,4.6005,4.591,4.5959,4.5969,4.591,4.5852,4.5841,4.5841,4.5886,4.5899,4.5899,4.5899,4.5886,4.5841,4.5841,4.5769,4.5654,4.5658,4.5539,4.5341,4.5323,4.5208,1.8841,2.0889,2.3305,2.445,0.0,0.0,3.2439,3.4055,3.5933,3.9707,4.0377,0.0,4.2213,0.0,0.0,0.0,4.4383,4.4895,4.4895,4.4895,4.4895,4.4895,4.4895,4.4919,4.501,4.5125,4.5235,0.0,0.0,0.0,0.0,4.5419,4.5381,4.5341,4.5341,4.53,4.5192,4.53,4.532,4.5258,4.5361,4.5341,4.5258,4.5361,4.5341,4.5258,4.5258,4.5341,4.5456,4.5456,4.5545,4.5677,4.5752,4.58,4.58,4.58,4.5835,4.5866,4.5866,4.5938,4.6041,4.6064,4.6111,4.6175,4.6219,4.6245,4.6268,4.6284,4.63,4.6301,4.6308,4.6305,4.6295,4.6307,4.63,4.6303,4.6306,4.6277,4.624,4.624,4.6206,4.6176,4.6176,4.6098,4.6041,4.6041,4.5969,4.5889,4.5875,4.5897,4.5889,4.5875,4.5828,4.5803,4.5803,4.5747,4.5727,4.5727,4.5708,4.5725,4.5803,4.577,4.5736,4.5712,4.561,4.5472,4.5342,4.5243,4.5074,4.4849,4.4825,4.4726,1.8963,2.0377,2.2475,0.0,0.0,0.0,3.4622,3.5706,3.6877,4.0908,4.1552,4.1884,4.3415,4.3,0.0,4.3568,4.4383,4.4895,4.4895,4.4895,4.4895,4.4895,4.4895,4.4986,4.517,4.5192,4.532,0.0,0.0,0.0,0.0,4.5475,4.5341,4.5213,4.5192,4.5192,4.5192,4.5192,4.5258,4.54,4.54,4.54,4.54,4.54,4.54,4.54,4.54,4.5475,4.5596,4.5596,4.5677,4.58,4.58,4.58,4.58,4.58,4.5891,4.5996,4.5996,4.6049,4.6112,4.6177,4.6153,4.6098,4.6097,4.6156,4.6207,4.6289,4.6307,4.6307,4.6307,4.6297,4.63,4.63,4.63,4.63,4.63,4.6187,4.6098,4.6098,4.5996,4.5899,4.5899,4.5899,4.5899,4.5899,4.5899,4.5875,4.5808,4.5859,4.5875,4.5794,4.5684,4.5605,4.5586,4.5586,4.5586,4.5586,4.5342,4.5322,4.5586,4.5531,4.5495,4.5495,4.518,4.5007,4.4988,4.4657,4.4493,4.4493,4.4411,4.4383,1.9754,2.181,0.0,2.6117,0.0,0.0,0.0,3.7363,0.0,0.0,4.3198,4.3215,4.3329,0.0,0.0,4.3715,4.4383,4.4895,4.4895,4.4895,4.4895,4.4895,4.4895,4.4919,4.4967,4.5125,0.0,0.0,0.0,0.0,0.0,4.5419,4.5381,4.5341,4.5341,4.53,4.5192,4.53,4.5239,4.5042,4.5301,4.5341,4.5258,4.5456,4.5457,4.5258,4.5456,4.551,4.5456,4.5563,4.5677,4.58,4.58,4.58,4.5814,4.5848,4.5898,4.5936,4.5968,4.6033,4.6099,4.6117,4.6147,4.6175,4.6229,4.625,4.6269,4.6297,4.6234,4.6167,4.6167,4.6086,4.6037,4.6138,4.6079,4.6013,4.6013,4.5987,4.5969,4.5969,4.592,4.5899,4.5899,4.5852,4.5829,4.5829,4.5747,4.5677,4.5668,4.568,4.561,4.5399,4.5342,4.5243,4.5052,4.503,4.503,4.503,4.4943,4.5052,4.5302,4.5074,4.4938,4.4938,4.48,4.4701,4.465,4.4546,4.4374,4.4151,4.4121,4.3999,2.0811,2.3008,0.0,2.8126,3.1556,3.519,3.8335,0.0,0.0,0.0,4.3834,4.366,4.3834,4.3999,0.0,4.417,4.4573,4.4895,4.4895,4.4895,4.4895,4.4895,4.4895,4.4919,4.5014,4.5125,0.0,0.0,0.0,0.0,0.0,4.5547,4.5475,4.5475,4.54,4.5322,4.5241,4.5323,4.5284,4.5182,4.5381,4.5437,4.5342,4.5475,4.5419,4.53,4.551,4.558,4.5526,4.5645,4.5752,4.588,4.5854,4.5867,4.5873,4.591,4.5966,4.5998,4.6026,4.6086,4.6132,4.6163,4.62,4.6249,4.6285,4.6254,4.6222,4.6221,4.6112,4.6013,4.6013,4.5939,4.5897,4.5979,4.5957,4.5899,4.5899,4.5886,4.5852,4.5852,4.5822,4.5777,4.5777,4.5752,4.5712,4.5712,4.5651,4.5586,4.5586,4.5513,4.5381,4.5222,4.5096,4.4985,4.48,4.48,4.4776,4.4751,4.4489,4.438,4.4537,4.4433,4.4353,4.4325,4.4005,4.3776,4.3745,4.3624,4.3483,4.3283,4.3283,4.3195,2.1917,2.3998,0.0,3.0125,3.2552,0.0,4.0391,4.218,4.3106,4.4233,0.0,4.3638,4.4694,4.4308,4.4042,4.4781,4.4895,4.4895,4.4895,4.4895,4.4895,4.4895,4.4938,4.4991,4.517,4.5213,0.0,0.0,0.0,0.0,0.0,4.5742,4.5601,4.5613,4.5419,4.5323,4.5342,4.5342,4.5416,4.5603,4.5619,4.5619,4.5619,4.5491,4.5438,4.5456,4.5577,4.5673,4.5733,4.5794,4.5886,4.5997,4.5922,4.5964,4.5988,4.6017,4.6052,4.6092,4.6117,4.6156,4.6226,4.6289,4.6307,4.6303,4.6284,4.6206,4.6098,4.6091,4.5987,4.5889,4.5889,4.5835,4.5794,4.5863,4.5867,4.5867,4.5867,4.5822,4.5786,4.5786,4.5684,4.5586,4.5586,4.5586,4.5586,4.5568,4.5568,4.5549,4.5531,4.5322,4.514,4.5118,4.4896,4.4751,4.4726,4.4682,4.4631,4.4553,4.3886,4.3457,4.341,4.3608,4.3713,4.367,4.2939,4.2573,4.2573,4.2329,4.2157,4.2098,4.2098,4.2098,2.21,2.428,0.0,0.0,3.5384,3.936,4.1416,4.2723,4.3725,4.4607,4.4452,4.4296,4.4808,4.4762,4.4706,4.4876,4.4895,4.4895,4.4895,4.4895,4.4895,4.4895,4.5057,4.5148,4.5192,0.0,0.0,0.0,0.0,0.0,4.5679,4.5638,4.5607,4.5587,4.5555,4.5539,4.5536,4.5536,4.5552,0.0,4.5708,4.5769,4.5769,4.5728,4.5769,4.5866,4.591,4.5922,4.5933,4.5944,4.5975,4.5997,4.5986,4.5988,4.6013,4.6064,4.6098,4.6117,4.615,4.6226,4.6289,4.6307,4.6301,4.6284,4.6181,4.6112,4.6084,4.5978,4.5875,4.5815,4.5815,4.5742,4.5635,4.5665,4.5665,4.5665,4.5665,4.5651,4.5635,4.5635,4.562,4.5586,4.5586,4.5586,4.5513,4.5322,4.5302,4.5201,4.5007,4.4919,4.48,4.4599,4.4519,4.4374,4.4109,4.3767,4.3535,4.3468,4.2996,4.27,4.2567,4.2607,4.2645,4.2607,4.239,4.2284,4.2284,4.2221,4.1937,4.149,4.149,4.1279,2.207,0.0,0.0,3.3003,0.0,4.0011,4.1128,4.2265,4.3208,4.3625,4.4209,4.4707,4.4919,4.4919,4.4895,4.4943,4.4991,4.5038,4.5038,4.5087,4.5156,4.518,4.526,4.5321,4.5381,0.0,0.0,0.0,0.0,4.567,4.5883,4.575,4.5675,4.5796,4.5708,4.5689,4.5796,4.5796,4.5822,4.5883,4.5958,4.5998,4.5998,4.5933,4.5933,4.5997,4.5997,4.6017,4.6056,4.6007,4.6027,4.6093,4.6063,4.6064,4.6111,4.6123,4.6173,4.6207,4.6249,4.6268,4.6297,4.6297,4.6261,4.6187,4.6112,4.6024,4.5938,4.5871,4.5775,4.5696,4.5696,4.5651,4.5586,4.5586,4.5586,4.5586,4.5586,4.5586,4.5586,4.5586,4.5586,4.5586,4.5586,4.5495,4.5362,4.5222,4.5096,4.4962,4.48,4.4676,4.4474,4.4157,4.3998,4.3767,4.3406,4.3087,4.2886,4.2829,4.2364,4.1937,4.1542,4.1323,4.1323,4.1542,4.1007,4.0745,4.0745,4.0745,4.0586,4.0312,4.0312,4.0016,2.1461,0.0,2.9996,3.4669,3.7396,0.0,4.0077,4.1288,4.2231,4.2231,4.3421,4.4483,4.46,4.4691,4.4786,4.4855,4.5099,4.5237,4.5235,4.5341,4.5438,4.549,4.5473,4.5526,4.5619,0.0,0.0,0.0,0.0,4.5844,4.6169,4.5928,4.5871,4.6027,4.5871,4.5871,4.6027,4.6027,4.6093,4.6196,4.6196,4.6196,4.6196,4.6084,4.6027,4.6027,4.6027,4.6075,4.6102,4.6066,4.6102,4.619,4.6138,4.6153,4.6225,4.62,4.6249,4.6305,4.6305,4.6297,4.63,4.6273,4.6181,4.6098,4.6068,4.5917,4.58,4.5771,4.5648,4.5531,4.5531,4.5495,4.5457,4.5457,4.5457,4.5495,4.5586,4.5586,4.5586,4.5586,4.5568,4.5513,4.5476,4.5282,4.5118,4.5074,4.4872,4.4701,4.458,4.4346,4.4039,4.3643,4.3367,4.3105,4.2754,4.2447,4.2271,4.2208,4.1595,4.1013,4.0443,3.9902,3.9783,4.0165,3.9508,3.9206,3.9206,3.9135,3.9011,3.892,3.8849,3.8509,0.0,0.0,2.9995,0.0,3.6367,3.8364,0.0,0.0,4.1528,0.0,4.2161,4.2784,4.2984,4.3616,4.4173,4.4287,4.4975,4.5437,4.5381,4.5456,4.5491,4.549,4.5654,4.5756,4.5783,0.0,0.0,0.0,4.6111,4.6135,4.6196,4.6162,4.6154,4.6162,4.6154,4.6154,4.6162,4.6162,4.6189,4.6196,4.6196,4.6196,4.6196,4.6189,4.6162,4.6162,4.6162,4.6189,4.6189,4.6181,4.6177,4.6197,4.6196,4.6234,4.6289,4.6226,4.625,4.6306,4.6306,4.6303,4.6277,4.615,4.6105,4.6076,4.5891,4.5822,4.5771,4.5651,4.5457,4.5243,4.5243,4.5074,4.4915,4.4915,4.4915,4.503,4.5495,4.5586,4.5586,4.5586,4.5419,4.518,4.4962,4.4891,4.4776,4.4546,4.4465,4.4252,4.367,4.3453,4.3193,4.2775,4.2659,4.2544,4.2386,4.1533,4.0983,4.0943,4.0052,3.9489,3.9385,3.843,3.7962,3.8003,3.8778,3.9206,3.9206,3.8728,3.827,3.7822,3.735,3.6812,2.1239,2.5022,2.8808,0.0,3.5002,3.6524,3.7633,0.0,4.0099,4.0061,4.0711,4.159,4.2675,4.3188,4.347,4.3554,4.3944,4.4206,4.416,4.4288,4.4376,4.4376,4.4451,4.4517,0.0,0.0,0.0,0.0,4.472,4.4734,4.4734,4.4734,4.4734,4.4734,4.4734,4.4734,4.4734,4.4734,4.4734,4.4734,4.4734,4.4734,4.4754,4.5241,4.5728,4.6196,4.6196,4.6196,4.6196,4.6196,4.6209,4.6206,4.6191,4.6241,4.6307,4.6267,4.6278,4.63,4.63,4.6245,4.6176,4.6112,4.6016,4.5925,4.5822,4.5742,4.5632,4.5419,4.5302,4.518,4.5007,4.4891,4.4843,4.4938,4.4713,4.4485,4.455,4.4867,4.514,4.514,4.4862,4.4588,4.4485,4.4149,4.3867,4.3751,4.3597,4.3367,4.2996,4.2886,4.2698,4.2244,4.186,4.1525,4.1268,4.0491,3.9884,3.9546,3.902,3.8492,3.7873,3.7408,3.7008,3.6631,3.7084,3.7322,3.7322,3.7112,3.6888,3.6631,3.643,3.6009,0.0,0.0,2.6742,3.0937,3.3089,3.4604,0.0,0.0,3.8503,0.0,3.9335,4.0323,4.187,4.2502,4.28,4.2873,4.3117,4.3276,4.3284,4.341,4.3491,4.3497,4.3519,4.3547,0.0,0.0,0.0,0.0,4.3598,4.3598,4.3598,4.3598,4.3598,4.3598,4.3598,4.3598,4.3598,4.3598,4.3598,4.3598,4.3598,4.3598,4.3617,4.4267,4.491,4.5553,4.6001,4.6066,4.5884,4.6099,4.6211,4.6212,4.6202,4.6249,4.6303,4.6295,4.6306,4.63,4.63,4.6211,4.6098,4.6057,4.5938,4.58,4.5757,4.5632,4.5476,4.5262,4.5096,4.4943,4.4751,4.465,4.4624,4.4795,4.4417,4.3927,4.372,4.4102,4.4478,4.4398,4.4149,4.3919,4.3849,4.3406,4.3048,4.3048,4.2868,4.2639,4.2444,4.2271,4.1926,4.1358,4.0723,4.018,3.975,3.909,3.8547,3.8165,3.7882,3.7302,3.6338,3.6152,3.5791,3.5145,3.5014,3.516,3.5627,3.529,3.513,3.5145,3.5014,3.4765,0.0,2.0927,0.0,2.7056,3.0331,0.0,0.0,0.0,0.0,3.7853,3.8194,3.8627,3.968,4.1121,4.2189,4.2324,4.2983,4.3471,4.3481,4.3481,4.3497,4.3497,4.3557,4.3598,0.0,0.0,0.0,0.0,4.3598,4.3598,4.3598,4.3598,4.3598,4.3598,4.3598,4.3598,4.3598,4.3598,4.3598,4.3598,4.3598,4.3598,4.3598,4.3663,4.3702,4.3838,4.5475,4.5741,4.5035,4.5855,4.6237,4.6289,4.6228,4.6249,4.6306,4.6303,4.63,4.63,4.63,4.6211,4.6091,4.594,4.5859,4.5771,4.5654,4.5438,4.5222,4.5201,4.4849,4.4438,4.4411,4.4221,4.4048,4.4048,4.3758,4.3468,4.359,4.3646,4.3571,4.3336,4.3254,4.3188,4.2923,4.2736,4.2641,4.2641,4.2562,4.2382,4.2008,4.1323,4.053,3.9615,3.8954,3.83,3.7801,3.7286,3.6901,3.6901,3.6353,3.5676,3.4904,3.4403,3.3779,3.2975,3.2536,3.3157,3.4838,3.3599,3.2975,3.2975,3.2464,3.229,0.0,0.0,0.0,2.463,2.7409,2.9851,3.1335,3.3885,3.6048,3.6439,3.7482,3.8451,3.8862,3.9851,4.0816,4.1434,4.1765,4.196,4.1965,4.1953,4.196,4.196,4.1974,4.2007,0.0,0.0,0.0,0.0,0.0,4.2007,4.2007,4.2007,4.2007,4.2007,4.2007,4.2007,4.2007,4.2007,4.2007,4.2007,4.2007,4.2007,4.2007,4.2563,4.2515,4.2091,4.3845,4.4395,4.4099,4.4449,4.4604,4.4628,4.4609,4.4605,4.4624,4.4633,4.4926,4.5331,4.5331,4.5585,4.5902,4.5854,4.5766,4.5635,4.54,4.5282,4.5118,4.4781,4.4546,4.4374,4.421,4.4079,4.386,4.3353,4.2904,4.2544,4.2257,4.2609,4.2869,4.2609,4.234,4.2019,4.1472,4.1153,4.0868,4.0629,4.0582,4.0391,3.9834,3.9564,3.908,3.8307,3.7719,3.7077,3.6367,3.5841,3.5185,3.4287,3.4062,3.3696,3.3087,3.2904,3.2379,3.1529,3.0817,3.1336,3.3087,3.2037,3.1761,3.2321,3.1569,3.1523,1.5121,0.0,0.0,0.0,0.0,2.6679,2.9072,0.0,3.3604,3.4292,3.5613,3.6846,3.7511,3.8107,3.8873,4.0038,4.0233,4.0228,4.0237,4.0237,4.0232,4.0234,4.0487,0.0,0.0,0.0,0.0,0.0,0.0,0.0,4.111,4.111,4.111,4.111,4.111,4.111,4.111,4.111,4.1097,4.1095,4.1095,4.11,4.1115,4.1702,4.1654,4.1166,4.2318,4.2962,4.3227,4.3569,4.3691,4.3706,4.3706,4.3698,4.3704,4.3669,4.3972,4.4396,4.4355,4.4588,4.4929,4.4929,4.5021,4.5108,4.4842,4.4908,4.4966,4.4519,4.4346,4.4221,4.4048,4.3892,4.3575,4.2716,4.2302,4.1966,4.1436,4.1735,4.2003,4.1654,4.1367,4.0978,4.0343,3.9985,3.9732,3.9492,3.9249,3.8966,3.8553,3.8221,3.7662,3.6776,3.6153,3.5477,3.4479,3.41,3.349,3.265,3.2579,3.215,3.1302,3.1228,3.0755,2.9578,2.9061,2.9307,3.0454,2.9821,2.9821,3.0379,2.9744,2.9578,0.0,0.0,0.0,0.0,0.0,0.0,2.6957,0.0,2.9525,3.1398,3.2509,3.366,3.5463,3.5806,3.6381,3.8077,3.843,3.8502,3.8502,3.8498,3.8506,3.8505,3.924,0.0,0.0,0.0,0.0,0.0,4.1013,4.1013,4.1013,4.1052,4.1071,4.1091,4.111,4.111,4.1091,4.1091,4.1095,4.1094,4.1094,4.1108,4.1107,4.1107,4.1108,4.1108,4.1093,4.1579,4.2439,4.3279,4.3626,4.3626,4.3626,4.3626,4.3603,4.3532,4.3526,4.3532,4.3402,4.3291,4.3189,4.3189,4.3689,4.4205,4.3943,4.4265,4.4669,4.4428,4.4154,4.3968,4.3986,4.3693,4.3159,4.2203,4.1906,4.1709,4.1237,4.1146,4.1007,4.0497,4.0351,4.0136,3.9527,3.9351,3.9315,3.9315,3.8767,3.8332,3.8332,3.7361,3.6245,3.4966,3.4278,3.3463,3.2146,3.2074,3.2001,3.2001,3.2001,3.1228,2.9616,2.9539,2.876,2.7058,2.6976,2.6976,2.6976,2.6976,2.7069,2.7058,2.6801,2.6461,1.4,0.0,0.0,0.0,0.0,0.0,0.0,0.0,0.0,2.8846,3.0419,3.182,3.2934,3.3662,3.4254,3.4724,3.6894,3.8506,3.8502,3.8502,3.8495,3.8506,3.8717,0.0,0.0,0.0,0.0,0.0,3.9217,3.9223,3.9223,3.9822,4.0446,4.1076,4.1109,4.1109,4.1096,4.11,4.1105,4.1094,4.1094,4.1103,4.1107,4.1093,4.1094,4.1093,4.1042,4.1191,4.149,4.1724,4.1819,4.181,4.1779,4.1738,4.1733,4.1626,4.1917,4.2369,4.2334,4.2679,4.3127,4.3127,4.3129,4.312,4.3042,4.2917,4.2881,4.3388,4.3351,4.3262,4.3856,4.3505,4.2795,4.2002,4.1323,4.0647,4.0002,3.9834,3.98,3.9935,3.9318,3.8603,3.7889,3.7483,3.7128,3.6888,3.6706,3.6461,3.6166,3.531,3.4507,3.3779,3.3031,3.2277,3.1328,3.0631,3.0088,2.9512,2.8863,2.8299,2.7844,2.7763,2.693,2.5189,2.5189,2.4511,2.3231,2.521,2.6036,2.5793,2.4661,2.4142,1.5666,0.0,0.0,0.0,0.0,0.0,2.2299,2.3724,0.0,0.0,2.8759,2.9982,3.0853,3.1422,3.2011,3.2739,3.4527,3.6074,3.6815,3.7225,3.7456,3.7463,3.7741,0.0,0.0,3.8288,3.8506,3.8506,3.85,3.8492,3.8492,3.8986,3.949,3.9995,4.0372,4.0563,4.0561,4.0915,4.1097,4.1103,4.1091,4.1094,4.1093,4.1108,4.108,4.1065,4.1017,4.1,4.0972,4.1037,4.1074,4.1085,4.1037,4.0994,4.0981,4.082,4.1025,4.1377,4.1343,4.1605,4.1973,4.1722,4.1781,4.1886,4.151,4.1469,4.1632,4.1976,4.1957,4.1967,4.2428,4.2193,4.1725,4.1288,4.0629,4.0034,3.9577,3.8995,3.8613,3.8854,3.8414,3.7674,3.6753,3.6399,3.615,3.5913,3.5721,3.54,3.4795,3.4109,3.3269,3.2335,3.1842,3.1106,2.9986,2.9422,2.8809,2.7959,2.7395,2.6719,2.6036,2.5953,2.5104,2.3317,2.3124,2.2522,2.1409,2.3134,2.37,2.3305,2.2524,2.2086,0.0,0.0,0.0,0.0,0.0,0.0,2.3053,2.3306,2.3559,0.0,2.6954,2.7908,2.8766,2.9081,2.9726,3.125,3.1753,3.2563,3.4313,3.5213,3.5703,3.57,3.6344,0.0,3.691,3.7613,3.812,3.8218,3.8217,3.8254,3.8352,3.8352,3.8391,3.851,3.925,3.966,3.9662,4.0425,4.0819,4.0819,4.0818,4.0871,4.0952,4.0948,4.094,4.0961,4.0921,4.0855,4.0723,4.0835,4.0961,4.1055,4.1006,4.0974,4.0933,4.0746,4.0668,4.0655,4.0549,4.0489,4.0403,3.9871,4.016,4.0589,3.9843,4.005,4.0533,4.0344,4.0365,4.0438,4.0423,4.031,4.0263,4.0175,3.98,3.9425,3.9351,3.8318,3.7413,3.7354,3.7354,3.698,3.5897,3.5721,3.5657,3.5499,3.5204,3.4677,3.3891,3.3269,3.242,3.1044,3.082,3.0139,2.8621,2.8383,2.7971,2.6987,2.6823,2.6047,2.4341,2.4255,2.3404,2.1516,2.1033,2.0657,2.0387,2.0845,2.0845,2.0413,2.0322,2.0141,0.0,0.0,0.0,0.0,0.0,0.0,1.9565,2.0699,2.2006,0.0,2.2995,2.4331,2.5151,2.6456,2.7498,2.7794,2.9659,3.1656,3.342,3.3793,3.3916,3.3906,3.4058,0.0,3.5117,3.5347,3.5732,3.6435,3.6482,3.6777,3.7416,3.7454,3.777,3.8476,3.8668,3.8747,3.875,3.8926,3.9003,3.9002,3.9053,3.9435,4.0054,3.9999,4.0234,4.0673,4.0513,4.0356,4.0217,4.0204,4.0462,4.0863,4.0846,4.0811,4.0734,4.0588,4.0549,4.0534,4.0504,4.0489,4.0489,4.0351,3.9983,3.9618,3.9609,3.9138,3.8712,3.9031,3.9589,4.0055,3.9757,3.9203,3.8801,3.9092,3.8247,3.7415,3.7578,3.7011,3.6305,3.5785,3.5657,3.5385,3.4499,3.4543,3.4288,3.3045,3.3269,3.3353,3.2563,3.1842,3.1254,3.097,3.0343,2.9586,2.8621,2.7799,2.6987,2.6069,2.5432,2.4498,2.3434,2.3163,2.2189,2.0249,1.8488,1.7375,1.7102,1.8756,1.9497,1.9405,1.8419,1.7963,0.0,0.0,0.0,2.2017,0.0,0.0,0.0,2.1516,2.2049,2.2916,2.2745,2.2849,2.4117,2.4674,2.5222,2.6072,2.7682,2.9156,2.9983,3.1627,3.2758,3.2746,3.2741,0.0,3.3351,3.3793,3.4413,3.5291,3.5359,3.5717,3.6561,3.66,3.6794,3.7237,3.7673,3.7908,3.7901,3.8331,3.8547,3.8545,3.8404,3.8569,3.8954,3.878,3.8825,3.9071,3.9419,3.948,3.9392,3.9814,4.0112,4.0312,4.0488,4.048,4.0354,4.0334,4.0175,3.9888,3.9888,3.9789,3.9605,3.9298,3.892,3.8567,3.8364,3.7954,3.7576,3.7838,3.7853,3.779,3.7854,3.7228,3.667,3.7065,3.6722,3.6379,3.6372,3.6107,3.5672,3.5299,3.4971,3.4572,3.3768,3.3713,3.3381,3.229,3.2434,3.2362,3.1623,3.1119,3.0758,3.0419,2.9664,2.8803,2.7879,2.6976,2.5891,2.4542,2.4059,2.3105,2.1578,2.0917,1.9546,1.7267,1.6156,1.5507,1.5229,1.6243,1.6706,1.6699,1.6069,1.5798,0.0,0.0,0.0,0.0,0.0,2.3751,0.0,0.0,0.0,2.4376,2.3291,0.0,0.0,0.0,0.0,0.0,0.0,0.0,0.0,2.8669,0.0,3.1045,0.0,0.0,3.1811,3.2494,3.3334,3.4374,3.4137,3.4488,3.5701,3.5759,3.5837,3.5991,3.6677,3.7048,3.7048,3.775,3.8102,3.8102,3.7774,3.77,3.7847,3.7495,3.7332,3.7392,3.8004,3.8205,3.812,3.8864,3.9199,3.9312,3.9965,4.0132,3.9967,4.0082,3.9802,3.9406,3.9314,3.9107,3.8804,3.8266,3.7983,3.7785,3.7188,3.6987,3.693,3.6696,3.6096,3.5509,3.559,3.5051,3.4574,3.4944,3.5107,3.5208,3.5032,3.4901,3.4735,3.4486,3.4119,3.3659,3.3297,3.3213,3.2847,3.1756,3.1769,3.1549,3.0581,3.0594,3.0406,2.9611,2.8961,2.7959,2.6719,2.5975,2.4798,2.2911,2.2736,2.1747,1.9795,1.8464,1.6786,1.4555,1.4166,1.3878,1.3782,1.3392,1.3488,1.407,1.407,1.3968,0.0,0.0,0.0,0.0,2.4861,0.0,0.0,0.0,2.3538,2.152,0.0,0.0,0.0,0.0,0.0,0.0,0.0,0.0,2.356,2.4408,2.5746,2.7225,2.82,0.0,0.0,3.104,3.1776,3.3414,3.2111,3.2306,3.4725,3.4842,3.5193,3.5971,3.6111,3.615,3.615,3.6247,3.6306,3.6284,3.6015,3.6254,3.6925,3.6312,3.631,3.6779,3.6515,3.6306,3.6115,3.6248,3.6656,3.7436,3.9302,3.9948,3.9821,3.984,3.9819,3.9694,3.9406,3.9289,3.9177,3.8804,3.8358,3.7785,3.7188,3.6987,3.6736,3.562,3.5244,3.4922,3.3815,3.345,3.3398,3.3519,3.3157,3.2766,3.2625,3.2505,3.233,3.1986,3.1653,3.1834,3.2989,3.3213,3.2464,3.0215,3.0556,3.0519,2.8991,2.9431,2.9599,2.8712,2.8542,2.7452,2.4925,2.4596,2.375,2.1952,2.1203,2.0387,1.9231,1.6987,1.5305,1.4364,1.2716,1.1848,1.1848,1.019,1.0769,1.3193,1.3193,1.2887,0.0,0.0,0.0,0.0,0.0,0.0,2.2185,0.0,2.3489,0.0,0.0,0.0,0.0,0.0,0.0,0.0,2.215,0.0,0.0,0.0,2.2892,0.0,0.0,0.0,0.0,0.0,0.0,0.0,3.0001,3.0427,3.3046,3.3671,3.4354,3.5213,3.574,3.5935,3.578,3.556,3.5374,3.5173,3.473,3.4672,3.4978,3.4539,3.4485,3.4731,3.5034,3.5132,3.5072,3.561,3.571,3.5641,3.6545,3.7323,3.8114,3.9014,3.8645,3.7816,3.8414,3.7976,3.7041,3.6278,3.5849,3.5591,3.5228,3.5127,3.4973,3.4023,3.3627,3.3216,3.1925,3.1456,3.1246,3.0893,3.0906,3.0968,3.0777,3.101,3.1309,3.1404,3.09,3.0778,3.1648,3.0987,2.9847,2.8366,2.8469,2.8481,2.7799,2.7971,2.8051,2.7718,2.6778,2.5681,2.4511,2.3404,2.2092,2.0322,1.8548,1.6951,1.5442,1.3945,1.2517,1.1161,1.0284,0.9899,0.9899,0.9213,0.9209,0.9878,1.0373,1.0373,2.6337,0.0,0.0,0.0,0.0,0.0,0.0,0.0,0.0,0.0,0.0,0.0,0.0,0.0,0.0,0.0,0.0,2.0286,0.0,0.0,0.0,0.0,0.0,0.0,0.0,0.0,0.0,0.0,0.0,2.8236,3.1563,3.2343,3.3319,3.4666,3.531,3.5597,3.5454,3.5223,3.4886,3.4478,3.3936,3.369,3.3709,3.333,3.3027,3.2854,3.3362,3.3479,3.3312,3.3949,3.3917,3.3436,3.3436,3.3928,3.4871,3.6962,3.697,3.6087,3.6902,3.6354,3.5098,3.425,3.3991,3.3941,3.3843,3.3793,3.3627,3.2882,3.24,3.186,3.0617,3.0004,2.9566,2.8876,2.9077,2.9247,2.8465,2.8836,2.9214,2.8957,2.8396,2.7987,2.8451,2.8397,2.7989,2.7186,2.7058,2.6987,2.673,2.6976,2.6894,2.6378,2.5189,2.4074,2.3384,2.1826,2.0133,1.8018,1.5954,1.4058,1.2221,1.1453,1.0288,0.8825,0.8627,0.8425,0.8425,0.8226,0.7829,0.7332,0.8127,0.8326,0.0,0.0,0.0,2.3975,0.0,0.0,0.0,0.0,2.414,0.0,0.0,0.0,0.0,0.0,0.0,0.0,0.0,0.0,0.0,0.0,0.0,0.0,0.0,0.0,0.0,0.0,0.0,0.0,2.4611,0.0,3.0565,3.088,3.2051,3.4627,3.4725,3.4861,3.5115,3.5115,3.4795,3.4225,3.3852,3.369,3.3666,3.3092,3.238,3.1634,3.1425,3.0864,3.0152,3.0185,3.0299,3.0448,3.0448,3.0019,2.9831,3.3188,3.4819,3.5301,3.5026,3.4659,3.43,3.4056,3.3991,3.3941,3.3843,3.3793,3.3609,3.2654,3.1916,3.121,3.0257,2.949,2.8876,2.8182,2.8065,2.7445,2.5238,2.5194,2.5086,2.3275,2.2725,2.2483,2.2725,2.5839,2.7965,2.7094,2.7093,2.6823,2.5986,2.6565,2.6461,2.4681,2.4426,2.3298,2.0692,1.9687,1.7925,1.5038,1.407,1.2711,1.0974,1.0096,0.941,0.8825,0.8028,0.763,0.763,0.6833,0.6437,0.6437,0.7232,0.7232,0.0,0.0,2.8197,2.5449,0.0,0.0,0.0,0.0,0.0,0.0,0.0,0.0,0.0,0.0,0.0,0.0,0.0,0.0,0.0,0.0,0.0,0.0,0.0,0.0,0.0,0.0,0.0,0.0,2.3579,0.0,0.0,2.9377,3.0521,3.1624,3.2735,3.3091,3.2657,3.2435,3.2115,3.1676,3.1394,3.1248,3.1248,3.1045,3.0593,2.9947,3.0278,2.9809,2.8831,2.9223,2.89,2.811,2.811,2.7891,2.8021,3.1454,3.2608,3.2508,3.2796,3.2498,3.1919,3.1168,3.117,3.1486,3.1243,3.1127,3.0954,3.0064,2.9288,2.8457,2.718,2.671,2.6276,2.5554,2.5426,2.5216,2.4434,2.402,2.3698,2.3406,2.236,2.1578,2.203,2.2704,2.3235,2.3438,2.4084,2.4361,2.4029,2.376,2.3491,2.3511,2.1975,2.0549,1.9588,1.7159,1.5197,1.4262,1.2323,1.0672,0.9497,0.8715,0.7925,0.7232,0.6234,0.5732,0.5732,0.4728,0.4327,0.4327,0.4526,0.5329,2.8622,2.8875,0.0,2.6537,2.596,0.0,2.3182,0.0,0.0,0.0,0.0,0.0,0.0,0.0,0.0,0.0,0.0,0.0,0.0,1.6312,0.0,0.0,0.0,0.0,0.0,0.0,2.0245,2.2474,2.2013,0.0,0.0,0.0,2.9314,2.9688,3.106,3.1487,3.0876,3.0645,3.0448,3.0261,3.007,3.0009,3.0009,3.0009,2.9131,2.7688,2.8788,2.7733,2.5388,2.6444,2.6243,2.5227,2.5227,2.5079,2.5239,2.8801,3.0122,3.0261,3.0875,3.0778,3.0247,2.949,2.9484,2.9794,2.9421,2.9345,2.9156,2.8349,2.7604,2.6722,2.5603,2.5016,2.4708,2.4181,2.3711,2.3154,2.2541,2.16,2.0824,2.0566,1.978,1.9291,1.9511,1.9534,1.996,2.1154,2.1853,2.2256,2.2409,2.1914,2.152,2.164,2.0124,1.8572,1.7353,1.5095,1.3392,1.2619,1.0574,0.9106,0.8414,0.7627,0.6734,0.5837,0.5135,0.4634,0.423,0.3525,0.3224,0.3224,0.3123,0.3825]}]]